[[{"header":{"parameterUnit":"m.s-1","parameterCategory":1,"la1":30.6,"la2":29.2853,"lo1":-89.7004,"lo2":-87.6739,"dy":0.0162,"dx":0.0183,"nx":112,"ny":82,"refTime":"2024-04-19T00:00:00:Z","depth":0,"parameterNumber":2,"parameterNumberName":"U-component_of_WINDS"},"data":[0.0,0.0,0.0,0.0,0.0,0.0,0.0,0.0,0.0,0.0,0.0,0.0,0.0,0.0,0.0,0.0,0.0,0.0,0.0,0.0,0.0,0.0,0.0,0.0,0.0,0.0,0.0,0.0,0.0,0.0,0.0,0.0,0.0,0.0,0.0,0.0,0.0,0.0,0.0,0.0,0.0,0.0,0.0,0.0,0.0,0.0,0.0,0.0,0.0,0.0,0.0,0.0,0.0,0.0,0.0,0.0,0.0,0.0,0.0,0.0,0.0,0.0,0.0,0.0,0.0,0.0,0.0,0.0,0.0,0.0,0.0,0.0,0.0,0.0,0.0,0.0,0.0,0.0,0.0,0.0,0.0,0.0,0.0,0.0,0.0,0.0,0.0,0.0,0.0,0.0,-4.1274,-4.3327,-4.6012,-4.7054,-4.5544,-4.5216,-4.3896,-4.1134,0.0,0.0,0.0,0.0,0.0,0.0,0.0,0.0,0.0,0.0,0.0,0.0,0.0,0.0,0.0,0.0,0.0,0.0,0.0,0.0,0.0,0.0,0.0,0.0,0.0,0.0,0.0,0.0,0.0,0.0,0.0,0.0,0.0,0.0,0.0,0.0,0.0,0.0,0.0,0.0,0.0,0.0,0.0,0.0,0.0,0.0,0.0,0.0,0.0,0.0,0.0,0.0,0.0,0.0,0.0,0.0,0.0,0.0,0.0,0.0,0.0,0.0,0.0,0.0,0.0,0.0,0.0,0.0,0.0,0.0,0.0,0.0,0.0,0.0,0.0,0.0,0.0,0.0,0.0,0.0,0.0,0.0,0.0,0.0,0.0,0.0,0.0,0.0,0.0,0.0,0.0,0.0,0.0,0.0,0.0,0.0,0.0,0.0,0.0,0.0,0.0,0.0,0.0,0.0,-4.0901,-4.4726,-4.5506,-4.5879,-4.6267,-4.5516,-4.3793,-4.0923,0.0,0.0,0.0,0.0,0.0,0.0,0.0,0.0,0.0,0.0,0.0,0.0,0.0,0.0,0.0,0.0,0.0,0.0,0.0,0.0,0.0,0.0,0.0,0.0,0.0,0.0,0.0,0.0,0.0,0.0,0.0,0.0,0.0,0.0,0.0,0.0,0.0,0.0,0.0,0.0,0.0,0.0,0.0,0.0,0.0,0.0,0.0,0.0,0.0,0.0,0.0,0.0,0.0,0.0,0.0,0.0,0.0,0.0,0.0,0.0,0.0,0.0,0.0,0.0,0.0,0.0,0.0,0.0,0.0,0.0,0.0,0.0,0.0,0.0,0.0,0.0,0.0,0.0,0.0,0.0,0.0,0.0,0.0,0.0,0.0,0.0,0.0,0.0,0.0,0.0,0.0,0.0,0.0,0.0,0.0,0.0,0.0,0.0,0.0,0.0,0.0,0.0,0.0,-4.0843,-4.2973,-4.5751,-4.5999,-4.6236,-4.6884,-4.5634,-4.3992,-4.1977,-3.9193,0.0,0.0,0.0,0.0,0.0,0.0,0.0,0.0,0.0,0.0,0.0,0.0,0.0,0.0,0.0,0.0,0.0,0.0,0.0,0.0,0.0,0.0,0.0,0.0,0.0,0.0,0.0,0.0,0.0,0.0,0.0,0.0,0.0,0.0,0.0,0.0,0.0,0.0,0.0,0.0,0.0,0.0,0.0,0.0,0.0,0.0,0.0,0.0,0.0,0.0,0.0,0.0,0.0,0.0,0.0,0.0,0.0,0.0,0.0,0.0,0.0,0.0,0.0,0.0,0.0,0.0,0.0,0.0,0.0,0.0,0.0,0.0,0.0,0.0,0.0,0.0,0.0,0.0,0.0,0.0,0.0,0.0,0.0,0.0,0.0,0.0,0.0,0.0,0.0,0.0,0.0,0.0,0.0,0.0,0.0,0.0,0.0,0.0,0.0,0.0,0.0,0.0,-4.2727,-4.4482,-4.6242,-4.6411,-4.6642,-4.7206,-4.5644,-4.3999,-4.2551,-3.91,0.0,0.0,0.0,0.0,0.0,0.0,0.0,0.0,0.0,0.0,0.0,0.0,0.0,0.0,0.0,0.0,0.0,0.0,0.0,0.0,0.0,0.0,0.0,0.0,0.0,0.0,0.0,0.0,0.0,0.0,0.0,0.0,0.0,0.0,0.0,0.0,0.0,0.0,0.0,0.0,0.0,0.0,0.0,0.0,0.0,0.0,0.0,0.0,0.0,0.0,0.0,0.0,0.0,0.0,0.0,0.0,0.0,0.0,0.0,0.0,0.0,0.0,0.0,0.0,0.0,0.0,0.0,0.0,0.0,0.0,0.0,0.0,0.0,0.0,0.0,0.0,0.0,0.0,0.0,0.0,0.0,0.0,0.0,0.0,0.0,0.0,0.0,0.0,0.0,0.0,0.0,0.0,0.0,0.0,0.0,0.0,0.0,0.0,0.0,0.0,0.0,0.0,-4.157,-4.354,-4.5946,-4.6171,-4.6414,-4.7058,-4.5462,-4.3559,-4.1528,-3.8072,0.0,0.0,0.0,0.0,0.0,0.0,0.0,0.0,0.0,0.0,0.0,0.0,0.0,0.0,0.0,0.0,0.0,0.0,0.0,0.0,0.0,0.0,0.0,0.0,0.0,0.0,0.0,0.0,0.0,0.0,0.0,0.0,0.0,0.0,0.0,0.0,0.0,0.0,0.0,0.0,0.0,0.0,0.0,0.0,0.0,0.0,0.0,0.0,0.0,0.0,0.0,0.0,0.0,0.0,0.0,0.0,0.0,0.0,0.0,0.0,0.0,0.0,0.0,0.0,0.0,0.0,0.0,0.0,0.0,0.0,0.0,0.0,0.0,0.0,0.0,0.0,0.0,0.0,0.0,0.0,0.0,0.0,0.0,0.0,0.0,0.0,0.0,0.0,0.0,0.0,0.0,0.0,0.0,0.0,0.0,0.0,0.0,0.0,0.0,0.0,0.0,0.0,-4.2684,-4.4557,0.0,-4.6452,-4.6984,-4.7601,-4.6077,-4.4189,-4.2056,0.0,0.0,0.0,0.0,0.0,0.0,0.0,0.0,0.0,0.0,0.0,0.0,0.0,0.0,0.0,0.0,0.0,0.0,0.0,0.0,0.0,0.0,0.0,0.0,0.0,0.0,0.0,0.0,0.0,0.0,0.0,0.0,0.0,0.0,0.0,0.0,0.0,0.0,0.0,0.0,0.0,0.0,0.0,0.0,0.0,0.0,0.0,0.0,0.0,0.0,0.0,0.0,0.0,0.0,0.0,0.0,0.0,0.0,0.0,0.0,0.0,0.0,0.0,0.0,0.0,0.0,0.0,0.0,0.0,0.0,0.0,0.0,0.0,0.0,0.0,0.0,0.0,0.0,0.0,0.0,0.0,0.0,0.0,0.0,0.0,0.0,0.0,0.0,0.0,0.0,0.0,0.0,0.0,0.0,0.0,0.0,0.0,0.0,0.0,0.0,0.0,0.0,-4.0974,-4.3296,-4.5112,0.0,-4.6524,-4.7272,-4.7915,-4.6177,-4.4252,-4.2384,0.0,0.0,0.0,0.0,0.0,0.0,0.0,0.0,0.0,0.0,0.0,0.0,0.0,0.0,0.0,0.0,0.0,0.0,0.0,0.0,0.0,0.0,0.0,0.0,0.0,0.0,0.0,0.0,0.0,0.0,0.0,0.0,0.0,0.0,0.0,0.0,0.0,0.0,0.0,0.0,0.0,0.0,0.0,0.0,0.0,0.0,0.0,0.0,0.0,0.0,0.0,0.0,0.0,0.0,0.0,0.0,0.0,0.0,0.0,0.0,0.0,0.0,0.0,0.0,0.0,0.0,0.0,0.0,0.0,0.0,0.0,0.0,0.0,0.0,0.0,0.0,0.0,0.0,0.0,0.0,0.0,0.0,0.0,0.0,0.0,0.0,0.0,0.0,0.0,0.0,0.0,0.0,0.0,0.0,0.0,0.0,0.0,0.0,0.0,0.0,0.0,0.0,-4.0706,-4.3032,-4.4876,-4.5512,-4.6332,-4.7094,-4.7829,-4.557,-4.3577,0.0,0.0,0.0,0.0,0.0,0.0,0.0,0.0,0.0,0.0,0.0,0.0,0.0,0.0,0.0,0.0,0.0,0.0,0.0,0.0,0.0,0.0,0.0,0.0,0.0,0.0,0.0,0.0,0.0,0.0,0.0,0.0,0.0,0.0,0.0,0.0,0.0,0.0,0.0,0.0,0.0,0.0,0.0,0.0,0.0,0.0,0.0,0.0,0.0,0.0,0.0,0.0,0.0,0.0,0.0,0.0,0.0,0.0,0.0,0.0,0.0,0.0,0.0,0.0,0.0,0.0,0.0,0.0,0.0,0.0,0.0,0.0,0.0,0.0,0.0,0.0,0.0,0.0,0.0,0.0,0.0,0.0,0.0,0.0,0.0,0.0,0.0,0.0,0.0,0.0,0.0,0.0,0.0,0.0,0.0,0.0,0.0,0.0,0.0,0.0,0.0,0.0,0.0,-4.0774,-4.3433,-4.5348,-4.5507,-4.6761,-4.7411,-4.6964,-4.5691,-4.4211,-4.2519,0.0,0.0,0.0,0.0,0.0,0.0,0.0,0.0,0.0,0.0,0.0,0.0,0.0,0.0,0.0,0.0,0.0,0.0,0.0,0.0,0.0,0.0,0.0,0.0,0.0,0.0,0.0,0.0,0.0,0.0,0.0,0.0,0.0,0.0,0.0,0.0,0.0,0.0,0.0,0.0,0.0,0.0,0.0,0.0,0.0,0.0,0.0,0.0,0.0,0.0,0.0,0.0,0.0,0.0,0.0,0.0,0.0,0.0,0.0,0.0,0.0,0.0,0.0,0.0,0.0,0.0,0.0,0.0,0.0,0.0,0.0,0.0,0.0,0.0,0.0,0.0,0.0,0.0,0.0,0.0,0.0,0.0,0.0,0.0,0.0,0.0,0.0,0.0,0.0,0.0,0.0,0.0,0.0,0.0,0.0,0.0,0.0,0.0,0.0,0.0,0.0,0.0,-4.0596,-4.3524,-4.5525,-4.5446,-4.686,-4.7581,-4.7029,-4.5943,-4.4646,-4.3084,0.0,0.0,0.0,0.0,0.0,0.0,0.0,0.0,0.0,0.0,0.0,0.0,0.0,0.0,0.0,0.0,0.0,0.0,0.0,0.0,0.0,0.0,0.0,0.0,0.0,0.0,0.0,0.0,0.0,0.0,0.0,0.0,0.0,0.0,0.0,0.0,0.0,0.0,0.0,0.0,0.0,0.0,0.0,0.0,0.0,0.0,0.0,0.0,0.0,0.0,0.0,0.0,0.0,0.0,0.0,0.0,0.0,0.0,0.0,0.0,0.0,0.0,0.0,0.0,0.0,0.0,0.0,0.0,0.0,0.0,0.0,0.0,0.0,0.0,0.0,0.0,0.0,0.0,0.0,0.0,0.0,0.0,0.0,0.0,0.0,0.0,0.0,0.0,0.0,0.0,0.0,0.0,0.0,0.0,0.0,0.0,0.0,0.0,0.0,0.0,0.0,0.0,-4.0311,-4.3411,-4.5446,-4.5311,-4.6739,-4.7645,-4.75,-4.6142,-4.4809,-4.3658,0.0,0.0,0.0,0.0,0.0,0.0,0.0,0.0,0.0,0.0,0.0,0.0,0.0,0.0,0.0,0.0,0.0,0.0,0.0,0.0,0.0,0.0,0.0,0.0,0.0,0.0,0.0,0.0,0.0,0.0,0.0,0.0,0.0,0.0,0.0,0.0,0.0,0.0,0.0,0.0,0.0,0.0,0.0,0.0,0.0,0.0,0.0,0.0,0.0,0.0,0.0,0.0,0.0,0.0,0.0,0.0,0.0,0.0,0.0,0.0,-3.7744,0.0,0.0,0.0,0.0,0.0,0.0,0.0,0.0,0.0,0.0,0.0,0.0,0.0,0.0,0.0,0.0,0.0,0.0,0.0,0.0,0.0,0.0,0.0,0.0,0.0,0.0,0.0,0.0,0.0,0.0,0.0,0.0,0.0,0.0,0.0,0.0,0.0,0.0,0.0,0.0,0.0,-4.0365,-4.3336,-4.5329,-4.5291,-4.6739,-4.7192,-4.5924,-4.549,-4.4594,-4.2931,-4.1453,0.0,0.0,0.0,0.0,0.0,0.0,0.0,0.0,0.0,0.0,0.0,0.0,0.0,0.0,0.0,0.0,0.0,0.0,0.0,0.0,0.0,0.0,0.0,0.0,0.0,0.0,0.0,0.0,0.0,0.0,0.0,0.0,0.0,0.0,0.0,0.0,0.0,0.0,0.0,0.0,0.0,0.0,0.0,0.0,0.0,0.0,0.0,0.0,0.0,0.0,0.0,0.0,0.0,0.0,0.0,0.0,0.0,0.0,0.0,0.0,-3.8048,0.0,0.0,0.0,0.0,0.0,0.0,0.0,0.0,0.0,0.0,0.0,0.0,0.0,0.0,0.0,0.0,0.0,0.0,0.0,0.0,0.0,0.0,0.0,0.0,0.0,0.0,0.0,0.0,0.0,0.0,0.0,0.0,0.0,0.0,0.0,0.0,0.0,0.0,0.0,0.0,-4.0872,-4.3533,-4.5454,-4.5834,-4.6975,-4.721,-4.5979,-4.5504,-4.4662,-4.3256,-4.2233,0.0,0.0,0.0,0.0,0.0,0.0,0.0,0.0,0.0,0.0,0.0,0.0,0.0,0.0,0.0,0.0,0.0,0.0,0.0,0.0,0.0,0.0,0.0,0.0,0.0,0.0,0.0,0.0,0.0,0.0,0.0,0.0,0.0,0.0,0.0,0.0,0.0,0.0,0.0,0.0,0.0,0.0,0.0,0.0,0.0,0.0,0.0,0.0,0.0,0.0,0.0,0.0,0.0,-4.0666,-4.0639,-4.131,-4.117,-4.1098,-4.0992,-3.9507,-3.8739,-3.8557,-3.8539,0.0,0.0,0.0,0.0,0.0,0.0,0.0,0.0,0.0,0.0,0.0,0.0,0.0,0.0,0.0,0.0,0.0,0.0,0.0,0.0,0.0,0.0,-3.957,-3.8856,-4.0207,-4.0898,-3.804,0.0,0.0,0.0,0.0,0.0,0.0,0.0,0.0,0.0,0.0,0.0,-4.1233,-4.3695,-4.5544,-4.6214,-4.7011,-4.7153,-4.6357,-4.5497,-4.4602,-4.3632,-4.2902,-4.1772,0.0,0.0,0.0,0.0,0.0,0.0,0.0,0.0,0.0,0.0,0.0,0.0,0.0,0.0,0.0,0.0,0.0,0.0,0.0,0.0,0.0,0.0,0.0,0.0,0.0,0.0,0.0,0.0,0.0,0.0,0.0,0.0,-3.9224,-3.8578,0.0,0.0,0.0,0.0,0.0,0.0,0.0,0.0,0.0,0.0,0.0,0.0,0.0,-4.0836,-4.093,-4.2315,-4.3135,-4.3351,-4.2468,-4.2129,-4.2197,-4.1458,-4.1061,-4.0994,-4.0753,0.0,-3.9588,-3.9483,0.0,0.0,0.0,0.0,0.0,0.0,0.0,0.0,0.0,0.0,0.0,0.0,0.0,0.0,0.0,0.0,0.0,0.0,0.0,0.0,0.0,0.0,-3.8893,-3.9274,-3.9695,-3.9852,-3.9213,-3.9616,-3.9815,-3.8869,-3.9024,-3.908,0.0,0.0,0.0,0.0,0.0,0.0,-4.0528,-4.337,-4.5345,-4.5454,-4.6178,-4.63,-4.5441,-4.4626,-4.3732,-4.2721,-4.2557,-4.2272,-4.1725,-4.1725,0.0,0.0,0.0,0.0,0.0,0.0,0.0,0.0,0.0,0.0,0.0,0.0,0.0,0.0,0.0,0.0,0.0,0.0,0.0,0.0,0.0,0.0,0.0,0.0,0.0,0.0,0.0,0.0,0.0,-3.8967,-4.0,-4.0571,-4.0145,-3.9492,0.0,0.0,0.0,0.0,0.0,0.0,0.0,0.0,0.0,-4.1442,-4.2187,-4.2555,-4.2553,-4.3311,-4.3698,-4.3695,-4.3305,-4.3124,-4.3129,-4.2748,-4.2517,-4.2451,-4.2461,-4.227,-4.1855,-4.0827,-4.0159,-3.9737,0.0,0.0,0.0,0.0,-3.8063,-3.8218,-3.8589,-3.8773,-3.8904,-3.925,0.0,0.0,0.0,0.0,0.0,0.0,0.0,-3.8526,0.0,0.0,-4.0608,-4.034,-4.1374,-4.198,-4.0403,-4.1067,-4.1516,-4.0071,-4.0194,-4.0382,-3.9887,0.0,0.0,0.0,0.0,-4.0853,-4.1741,-4.3462,-4.4802,-4.5254,-4.5617,-4.5488,-4.4652,-4.4213,-4.359,-4.2622,-4.2566,-4.2407,-4.2076,-4.1692,-4.0412,0.0,0.0,0.0,0.0,0.0,0.0,0.0,0.0,0.0,0.0,0.0,0.0,0.0,0.0,0.0,0.0,0.0,0.0,0.0,0.0,0.0,0.0,0.0,0.0,0.0,0.0,0.0,0.0,-3.9871,-4.1052,-4.1873,-4.1451,-4.0747,0.0,0.0,0.0,0.0,0.0,0.0,-4.1727,-4.2386,-4.3037,-4.3678,-4.3924,-4.4023,-4.4021,-4.4251,-4.4362,-4.4356,-4.4144,-4.4022,-4.4028,-4.3792,-4.3663,-4.3638,-4.3626,-4.3617,-4.3475,-4.1933,-4.1271,-4.114,-4.0198,-3.9809,-3.9676,-3.8967,-3.912,-3.9655,-3.9653,-4.005,-4.0573,-4.0542,-4.0068,-3.949,-3.9344,0.0,0.0,0.0,0.0,-3.9673,-4.0674,-4.1599,-4.2076,-4.1318,-4.2524,-4.3315,-4.1283,-4.1978,-4.2543,0.0,-4.1108,-4.1332,-4.0963,0.0,0.0,0.0,0.0,-4.1866,-4.2557,-4.3499,-4.4331,-4.4928,-4.4983,-4.4747,-4.4129,-4.3796,-4.3336,-4.2624,-4.253,-4.2409,-4.2103,-4.1635,-4.0573,-3.8904,0.0,0.0,0.0,0.0,0.0,0.0,0.0,0.0,0.0,0.0,0.0,0.0,0.0,0.0,0.0,0.0,0.0,0.0,0.0,0.0,0.0,0.0,0.0,0.0,0.0,0.0,0.0,0.0,0.0,-4.1249,-4.3179,0.0,0.0,0.0,0.0,-4.1037,-4.2527,-4.3515,-4.3572,-4.3609,-4.3653,-4.3702,-4.45,-4.4937,-4.492,-4.5761,-4.6168,-4.6164,-4.5338,-4.4925,-4.4905,-4.4078,-4.3693,-4.3687,-4.3687,-4.3662,-4.3514,-4.2544,-4.214,-4.2029,-4.1096,-4.074,-4.0718,-4.0674,-4.0649,-4.0636,-4.0629,-4.0566,-4.0504,-4.0573,-4.0476,-4.0313,-4.0187,-4.0101,0.0,0.0,-4.0528,-4.116,-4.1024,-4.1599,-4.2121,-4.1827,-4.1948,-4.2018,-4.1626,-4.2317,-4.2715,0.0,-4.197,-4.2092,-4.13,0.0,-4.1578,-4.0882,-4.1306,-4.176,-4.1923,-4.3211,-4.4114,-4.415,-4.415,-4.4111,-4.4012,-4.3192,-4.2624,-4.2503,-4.2387,-4.2246,-4.2103,-4.2068,-4.1597,-4.0695,-3.9554,0.0,0.0,0.0,0.0,0.0,0.0,0.0,0.0,0.0,0.0,0.0,0.0,0.0,0.0,0.0,0.0,0.0,0.0,0.0,0.0,0.0,0.0,0.0,0.0,0.0,0.0,0.0,0.0,-4.3311,-4.3705,0.0,-4.3105,-4.3385,-4.3341,-4.2749,-4.3804,-4.4478,-4.4475,-4.5045,-4.5363,-4.5373,-4.5664,-4.5832,-4.5838,-4.6132,-4.6308,-4.6301,-4.5987,-4.5847,-4.5824,-4.5504,-4.5352,-4.5309,-4.5309,-4.5303,-4.5192,-4.4261,-4.3205,-4.2222,-4.2398,-4.2136,-4.1709,-4.2267,-4.2086,-4.1545,-4.1538,-4.1103,-4.0653,-4.1162,-4.0871,-4.0431,-4.0883,-4.0577,-4.0181,-4.0691,-4.1027,-4.1465,-4.242,-4.285,-4.2995,-4.2852,-4.3238,-4.3427,-4.2763,-4.3276,-4.3714,-4.3349,-4.3235,-4.3065,-4.2739,-4.2684,-4.2577,-4.2323,-4.2395,-4.2521,-4.265,-4.3047,-4.3317,-4.3317,-4.3317,-4.3335,-4.3297,-4.2965,-4.2451,-4.1771,-4.2221,-4.2116,-4.131,-4.1878,-4.1478,-3.9873,-3.9431,-3.8513,0.0,0.0,0.0,0.0,0.0,0.0,0.0,0.0,0.0,0.0,0.0,0.0,0.0,0.0,0.0,0.0,0.0,0.0,0.0,0.0,0.0,0.0,0.0,0.0,0.0,0.0,-4.3189,-4.4098,-4.4248,-4.4312,-4.4396,-4.4441,-4.4366,-4.4066,-4.4847,-4.5345,-4.5345,-4.5954,-4.6292,-4.6306,-4.6302,-4.6294,-4.6301,-4.6305,-4.6308,-4.6307,-4.6304,-4.63,-4.6296,-4.6306,-4.6251,-4.6206,-4.6206,-4.6203,-4.6158,-4.5519,-4.4257,-4.2691,-4.2908,-4.2452,-4.173,-4.228,-4.2106,-4.1596,-4.1872,-4.1747,-4.1499,-4.1651,-4.1278,-4.0852,-4.1304,-4.0966,-4.0606,-4.1437,-4.1859,-4.2276,-4.3333,-4.375,-4.3894,-4.3783,-4.4129,-4.4308,-4.3623,-4.3911,-4.4255,-4.4119,-4.383,-4.3597,-4.36,-4.334,-4.3142,-4.3196,-4.3068,-4.2994,-4.3086,-4.2956,-4.2862,-4.2862,-4.2824,-4.2786,-4.2747,-4.2416,-4.1939,-4.1243,-4.1669,-4.1439,-4.0389,-4.1218,-4.0964,-3.9405,-3.9083,-3.8187,-3.6725,0.0,0.0,0.0,0.0,0.0,0.0,0.0,0.0,0.0,0.0,0.0,0.0,0.0,0.0,0.0,0.0,0.0,0.0,0.0,0.0,0.0,0.0,0.0,-4.2879,-4.3916,-4.4186,-4.3364,-4.4879,-4.5323,-4.3641,-4.5136,-4.5846,-4.5007,-4.5729,-4.6192,-4.6206,-4.6258,-4.6303,-4.6303,-4.6294,-4.63,-4.6302,-4.6296,-4.6303,-4.6307,-4.6307,-4.6302,-4.6301,-4.6308,-4.6251,-4.6209,-4.6209,-4.6192,-4.6196,-4.6205,-4.5172,-4.3501,-4.2665,-4.1722,-4.0872,-4.0867,-4.0829,-4.0887,-4.1637,-4.2459,-4.2996,-4.2057,-4.1738,-4.1683,-4.1453,-4.1362,-4.1483,-4.2227,-4.3045,-4.3677,-4.3642,-4.4165,-4.4672,-4.4524,-4.4501,-4.4411,-4.4097,-4.4177,-4.4226,-4.3961,-4.3749,-4.3666,-4.3788,-4.3463,-4.3251,-4.3358,-4.3233,0.0,-4.3086,-4.2899,-4.2783,-4.2783,-4.2668,-4.255,-4.2412,-4.1634,-4.1087,-4.0986,-4.0778,-4.0299,-3.9561,-4.0179,-4.0193,-3.9488,-3.8629,-3.7717,-3.6791,0.0,0.0,0.0,0.0,0.0,0.0,0.0,0.0,0.0,0.0,0.0,0.0,0.0,0.0,0.0,0.0,0.0,0.0,0.0,0.0,0.0,-4.2049,-4.3197,-4.3761,-4.4138,-4.4493,-4.4889,-4.5479,-4.5693,-4.5326,-4.5804,-4.6048,-4.5864,-4.606,-4.6206,-4.6192,-4.6253,-4.6303,-4.6303,-4.6308,-4.6296,-4.6309,-4.6308,-4.6296,-4.6307,-4.6308,-4.6307,-4.6306,-4.6296,-4.6284,-4.6273,-4.6221,-4.6203,-4.62,-4.6196,-4.5173,-4.3696,-4.4642,-4.4062,-4.2836,-4.4027,-4.3679,-4.2531,-4.2103,-4.2095,-4.2302,-4.2566,-4.2605,-4.2659,-4.3119,-4.2715,-4.2276,-4.3106,-4.3341,-4.3489,-4.4156,-4.4476,-4.4619,-4.4578,-4.4565,-4.4551,-4.4449,-4.4411,-4.4344,-4.4226,-4.3992,-4.3816,-4.3804,-4.3601,-4.3358,-4.3215,-4.3141,0.0,-4.2783,-4.2688,-4.2649,-4.2649,-4.2629,-4.255,-4.2412,-4.2134,-4.1614,-4.0757,-4.1188,-4.1088,-4.0193,-4.0889,-4.0635,-3.9242,-3.8244,-3.7433,0.0,0.0,0.0,0.0,0.0,0.0,0.0,0.0,0.0,0.0,0.0,0.0,0.0,0.0,0.0,0.0,0.0,0.0,0.0,0.0,0.0,0.0,-4.3033,-4.4067,-4.4494,-4.47,-4.4975,-4.5453,-4.5976,-4.6211,-4.5968,-4.6671,-4.7028,-4.6727,-4.708,-4.7132,-4.6768,-4.6786,-4.6643,-4.6277,-4.6282,-4.629,-4.6303,-4.6308,-4.6297,-4.6305,-4.6308,-4.6308,-4.6307,-4.6301,-4.6291,-4.63,-4.6251,-4.6231,-4.6196,-4.6203,-4.5379,0.0,0.0,0.0,0.0,0.0,-4.4163,-4.3279,-4.3102,-4.3241,-4.3505,-4.3533,-4.3515,-4.355,-4.3904,-4.355,-4.3198,-4.4026,-4.4089,-4.4044,-4.4574,-4.4693,-4.4667,-4.4667,-4.4646,-4.4592,-4.4565,-4.4482,-4.4368,-4.4277,-4.4082,0.0,-4.3851,-4.3583,-4.3322,-4.3178,-4.3049,-4.2879,-4.2629,-4.2588,-4.2548,-4.2548,-4.251,-4.2409,-4.2246,-4.1881,0.0,0.0,0.0,-4.0898,-4.0298,-4.0438,0.0,0.0,0.0,-3.7328,-3.6623,-3.6482,0.0,0.0,-3.5338,-3.5266,0.0,0.0,0.0,0.0,0.0,0.0,0.0,0.0,0.0,0.0,0.0,0.0,0.0,0.0,0.0,0.0,-4.3331,-4.422,-4.5085,-4.5427,-4.5553,-4.5429,-4.6334,-4.6743,-4.6099,-4.759,-4.8296,-4.7602,-4.8226,-4.8304,-4.7545,0.0,0.0,0.0,0.0,-4.6303,-4.6303,-4.6291,-4.6301,-4.6301,-4.6308,-4.6307,-4.6307,-4.6304,-4.6297,-4.6305,-4.6302,-4.6258,-4.6203,-4.6203,-4.562,-4.4674,-4.3836,-4.3044,-4.247,-4.3073,-4.3299,-4.3401,-4.4107,0.0,0.0,-4.4581,-4.4367,-4.4392,-4.4211,-4.41,-4.4179,-4.4829,-4.4931,-4.4858,-4.4883,-4.4833,-4.4783,-4.4815,-4.4712,-4.4605,-4.4551,-4.4482,-4.4378,-4.424,-4.4124,-4.4005,-4.3963,-4.3548,-4.3232,-4.3196,-4.2975,-4.2764,-4.2609,-4.2526,-4.2483,-4.2483,0.0,0.0,-4.203,-4.1353,-4.0863,-4.0668,-4.0517,-4.0368,-4.0239,-3.9617,-3.8829,-3.792,-3.7916,-3.7436,-3.6461,-3.636,-3.6225,-3.6151,-3.6688,-3.7234,0.0,0.0,0.0,0.0,0.0,0.0,0.0,0.0,0.0,0.0,0.0,0.0,0.0,0.0,0.0,-4.3355,-4.4185,-4.4867,-4.5162,-4.584,-4.6077,-4.5467,-4.6308,-4.6904,-4.6867,-4.783,-4.8437,-4.8451,-4.796,-4.7622,-4.7505,-4.684,-4.6362,-4.6209,-4.6272,-4.6303,-4.6303,-4.63,-4.6293,-4.6301,0.0,0.0,-4.6308,-4.6307,-4.6305,-4.6302,-4.6308,-4.6267,-4.6198,-4.6209,-4.528,-4.3821,-4.3581,-4.3787,-4.4131,-4.3579,-4.3355,-4.3318,-4.3426,-4.3967,-4.4623,-4.4432,-4.4769,-4.5255,-4.517,-4.501,0.0,-4.5034,-4.487,-4.4685,-4.4783,-4.4757,-4.4719,-4.4802,-4.477,-4.4732,-4.4685,-4.4605,-4.4524,-4.4397,-4.4296,-4.4226,-4.4153,-4.38,-4.3445,-4.316,-4.2975,-4.2804,-4.2546,-4.2407,-4.2346,-4.2346,-4.2325,-4.2246,-4.21,-4.1937,-4.1764,-4.1568,-4.142,-4.1243,-4.1,-4.0951,-4.0192,-3.8642,-3.8603,-3.7824,-3.6251,-3.6229,-3.6453,-3.6881,-3.6309,-3.6401,0.0,0.0,0.0,0.0,0.0,0.0,0.0,0.0,0.0,0.0,0.0,-3.9059,-4.0574,0.0,-4.331,-4.3954,-4.4493,-4.4895,-4.5026,-4.5864,-4.6347,-4.6041,-4.6858,-4.7332,-4.704,-4.821,-4.8716,-4.7994,-4.8768,-4.891,-4.8091,-4.8046,-4.7669,-4.682,-4.683,-4.6657,-4.6245,-4.6245,-4.6264,-4.6297,-4.6301,-4.6305,-4.6308,-4.6308,-4.6308,-4.6304,-4.6296,-4.6257,-4.6198,-4.6203,-4.5659,-4.479,-4.4329,-4.3598,-4.2902,-4.3732,-4.3742,-4.3465,-4.4226,-4.4757,-4.5106,-4.5059,-4.5299,-4.5577,-4.5485,-4.5351,-4.5235,-4.5203,-4.5026,-4.4877,-4.4931,-4.4895,-4.4846,-4.4883,-4.4846,-4.4783,-4.4764,-4.4672,-4.4578,-4.451,-4.4411,-4.4329,-4.4255,-4.4008,-4.3682,-4.334,-4.305,-4.2785,-4.2665,-4.2528,-4.243,-4.2387,-4.2405,-4.2325,-4.2103,-4.2058,-4.1991,-4.1801,-4.1736,-4.1604,-4.1408,-4.1386,-4.062,-3.8934,-3.8833,-3.7958,-3.6255,-3.6165,-3.6246,-3.6539,-3.6031,-3.6339,0.0,0.0,0.0,0.0,0.0,0.0,0.0,0.0,-3.57,-3.7488,-3.8364,-3.9523,-4.1812,-4.2686,-4.3331,-4.4227,-4.4519,-4.4725,-4.487,-4.5893,-4.6671,-4.68,-4.7662,-4.803,-4.7447,-4.8858,-4.9296,-4.8038,-4.973,-5.0239,-4.8899,-4.9181,-4.8788,-4.7422,-4.7239,-4.6847,-4.6203,-4.6192,-4.6236,-4.6293,-4.6299,-4.6302,-4.6306,-4.6306,-4.6308,-4.6304,-4.6301,-4.6261,-4.6192,-4.6193,-4.6061,-4.5786,-4.5062,-4.3402,-4.1655,-4.3699,-4.4116,-4.3832,-4.5098,-4.5655,-4.58,-4.5727,-4.5695,-4.5673,-4.5531,-4.5467,-4.5419,-4.5338,-4.5235,-4.5159,-4.5148,-4.5091,-4.5045,-4.5045,-4.4931,-4.4852,-4.4821,-4.4719,-4.4632,-4.4605,-4.4496,-4.4397,-4.4329,-4.4147,-4.3894,-4.3565,-4.3196,-4.2918,-4.286,-4.2746,-4.2649,-4.2584,-4.2564,-4.2394,-4.1973,-4.1866,-4.1779,-4.1654,-4.1633,-4.1643,-4.1648,-4.1538,-4.0709,-3.9021,-3.8877,-3.7984,-3.628,-3.6127,-3.6019,-3.5997,-3.5861,-3.6441,-2.9417,-3.0774,-3.2156,-3.243,-3.3014,-3.3871,0.0,0.0,-3.6935,-3.817,-3.9815,-4.1232,-4.183,-4.2817,-4.3666,-4.4147,-4.4393,-4.4605,-4.4858,-4.6327,-4.7431,-4.7556,-4.8511,-4.9154,-4.9123,-4.9997,-5.0585,-5.0563,-5.0123,-4.9802,-4.9662,-4.8349,-4.749,-4.732,-4.6612,-4.6227,-4.6203,-4.6201,-4.6228,-4.6293,-4.6295,-4.6301,-4.6306,-4.6308,-4.6308,-4.6308,-4.6295,-4.6251,-4.6203,-4.6209,-4.5705,-4.4945,-4.4829,-4.416,-4.3248,-4.3466,-4.3967,-4.4549,-4.4626,-4.5143,-4.5792,-4.5714,-4.5695,-4.5676,-4.554,-4.5541,-4.5541,-4.5419,-4.5388,-4.5348,-4.5297,-4.5224,-4.5181,-4.5181,-4.508,-4.4955,-4.4895,-4.4821,-4.4732,-4.4619,-4.4537,-4.4473,-4.4397,-4.4173,-4.391,-4.3631,-4.3496,-4.334,-4.3104,-4.2994,-4.2919,-4.2783,-4.2782,-4.2379,-4.1465,-4.1274,-4.1172,-4.1085,-4.1085,-4.1304,-4.1762,-4.1758,-4.0884,-3.9042,-3.9003,-3.8049,-3.6208,-3.6187,-3.6122,-3.5997,-3.5861,-3.6209,-3.0049,-3.157,-3.2996,-3.3524,-3.4027,-3.4778,-3.6249,-3.6527,-3.6957,-3.8824,-3.9711,-4.0544,-4.1697,-4.2648,-4.3501,0.0,-4.4312,-4.4682,-4.5894,-4.6838,-4.765,-4.8324,-4.8842,-4.9175,-4.9259,-4.8798,-4.8743,-4.9374,-4.9092,-4.8924,-4.9033,-4.8386,-4.7765,-4.7264,-4.6954,-4.6596,-4.6158,-4.618,-4.622,-4.623,-4.6282,-4.6293,-4.6301,-4.6306,-4.6308,-4.6304,-4.6309,-4.6269,-4.6206,-4.6192,-4.5965,-4.557,-4.5012,-4.4578,-4.4244,-4.417,-4.4393,-4.4749,-4.513,-4.5508,-4.5791,-4.5777,-4.577,-4.5743,-4.5657,-4.5622,-4.5577,-4.5486,-4.5438,-4.5379,-4.5378,-4.5286,-4.5192,-4.5192,-4.5103,-4.4979,-4.4907,-4.4846,-4.4745,-4.4619,-4.4202,-4.3828,-4.3718,-4.3619,-4.3439,-4.3156,-4.3385,-4.3513,-4.334,-4.3196,-4.305,-4.2822,-4.2311,-4.1802,-4.1343,-4.1246,-4.1165,-4.1001,-4.1366,-4.1651,-4.1784,-4.1314,-4.0385,-3.9042,-3.8614,-3.7742,-3.6377,-3.6314,-3.6233,-3.6174,-3.5997,-3.6031,-3.0482,-3.1999,-3.3422,-3.4179,-3.4718,-3.5445,-3.6891,-3.682,-3.7011,-3.8986,-3.9491,-3.9979,-4.1305,-4.2277,-4.3158,-4.398,-4.4251,-4.4854,-4.6338,-4.6958,-4.7572,-4.8397,-4.8372,-4.8452,-4.878,-4.7847,-4.7613,-4.8557,-4.8425,-4.8443,-4.8781,-4.8377,-4.7843,-4.723,-4.7035,-4.6666,-4.61,-4.6158,-4.617,-4.6199,-4.6257,-4.629,-4.6296,-4.6306,-4.6171,-4.5945,-4.6191,-4.6136,-4.5899,-4.612,-4.6053,-4.5765,-4.5083,-4.4664,-4.4438,-4.4386,-4.4502,-4.4807,-4.5537,-4.5807,-4.58,-4.5803,-4.5795,-4.5788,-4.5722,-4.5673,-4.562,-4.5559,-4.5477,-4.5419,-4.5389,-4.5328,-4.5246,-4.5224,-4.5148,-4.4988,-4.4702,-4.4573,-4.4487,-4.4346,-4.3628,-4.31,-4.3257,-4.3038,-4.2847,-4.288,-4.3187,-4.3441,-4.3529,-4.3339,-4.3123,-4.2936,-4.2241,-4.1676,-4.142,-4.1325,-4.1225,-4.1085,-4.128,-4.1439,-4.1527,-4.0697,-3.9736,-3.8754,-3.8241,-3.7515,-3.6544,-3.6423,-3.6339,-3.6301,-3.6127,-3.5971,-3.0479,-3.1962,-3.3501,-3.3904,-3.4745,-3.5751,-3.678,-3.7035,-3.7364,-3.8412,-3.9512,-4.0346,-4.0577,-4.1714,-4.2728,-4.3087,-4.4156,-4.5134,-4.5593,-4.6549,-4.7251,-4.7434,-4.6937,-4.6903,0.0,-4.7988,-4.8443,-4.9382,-4.875,-4.8676,-4.9509,-4.8077,-4.7229,-4.719,-4.6447,-4.6069,-4.611,-4.6108,-4.6141,-4.6202,-4.6194,-4.6237,-4.6296,-4.6308,-4.5836,-4.509,-4.5924,-4.5815,-4.5091,-4.588,-4.5702,-4.4949,-4.4911,-4.4351,-4.3544,-4.3535,-4.4031,-4.4807,-4.5537,-4.5807,-4.58,-4.5803,-4.5791,-4.5786,-4.5731,-4.57,-4.5684,-4.562,-4.5559,-4.5476,-4.5409,-4.5398,-4.5388,-4.5317,-4.5235,-4.4971,-4.4105,-4.3878,-4.3798,-4.3654,-4.2881,-4.2504,-4.336,-4.2626,-4.221,-4.2964,-4.299,-4.3083,-4.354,-4.3357,-4.3196,-4.3196,-4.2919,-4.2441,-4.1665,-4.1421,-4.1305,-4.1305,-4.0394,-4.0162,-4.0784,-3.9991,-3.9071,-3.8055,-3.802,-3.7574,-3.6702,-3.6544,-3.6423,-3.6301,-3.6229,-3.6036,-3.251,-3.395,-3.5287,-3.5431,-3.5505,-3.5797,-3.6666,-3.6542,-3.6797,-3.8739,-3.9214,-3.9647,-4.0792,-4.1761,-4.2833,-4.414,-4.409,-4.4791,-4.7415,-4.7217,-4.7113,-4.7961,-4.7478,0.0,0.0,0.0,0.0,-4.846,-4.7285,-4.694,-4.7886,-4.6873,-4.6264,-4.6266,-4.6048,-4.5931,-4.598,-4.606,-4.6132,-4.6209,-4.6241,-4.628,-4.6301,-4.6308,-4.5818,-4.5016,-4.5302,-4.5272,-4.5024,-4.5238,-4.5162,-4.4848,-4.4253,-4.3483,-4.2691,-4.2646,-4.2805,-4.3156,-4.3885,-4.4524,-4.5007,-4.4993,-4.4993,-4.5097,-4.5607,-4.5765,-4.575,-4.5682,-4.5622,-4.555,-4.5429,-4.54,-4.538,-4.5328,-4.5286,-4.5014,-4.4108,-4.384,-4.376,-4.3629,-4.2458,-4.168,-4.2403,-4.1807,-4.1653,-4.2852,-4.3353,-4.3582,-4.3594,-4.3479,-4.3358,-4.3196,-4.2596,-4.2068,-4.1686,-4.1574,-4.1207,-4.0535,-4.0613,-4.0493,-4.0159,-3.9199,-3.8511,-3.8067,-3.7498,-3.7071,-3.6768,-3.6684,-3.6602,-3.6544,-3.6314,-3.6101,-3.334,-3.4791,-3.6114,-3.63,-3.6377,-3.6508,-3.6774,-3.6542,-3.6638,-3.7969,-3.8537,-3.9133,-4.0217,-4.1456,-4.2711,-4.394,-4.3959,-4.4779,-4.7579,-4.6945,-4.6644,-4.7767,-4.7035,-4.6297,0.0,0.0,0.0,-4.752,-4.6374,-4.6022,-4.6989,-4.6248,-4.5807,-4.5791,-4.5866,-4.59,-4.5906,-4.6003,-4.6105,-4.6201,-4.6275,-4.6301,-4.6285,-4.5976,-4.5368,-4.4549,-4.454,-4.4531,-4.4564,-4.4823,-4.4921,-4.4808,-4.3936,-4.3066,-4.2256,-4.1907,-4.1947,-4.2318,-4.3051,-4.3673,-4.4131,-4.4136,-4.4342,-4.471,-4.5211,-4.5563,-4.5792,-4.5722,-4.5637,-4.5577,-4.5457,-4.5419,-4.5381,-4.5359,-4.5328,-4.4991,-4.3719,-4.3406,-4.3244,-4.2832,-4.1839,-4.1224,-4.1613,-4.1443,-4.1565,-4.245,-4.3345,-4.3878,-4.3732,-4.3582,-4.3427,-4.325,-4.2687,-4.2159,-4.1742,-4.1575,-4.1119,-4.0197,-4.0165,-3.9919,-3.9361,-3.8366,-3.7805,-3.7707,-3.7174,-3.6849,-3.6809,-3.6725,-3.6681,-3.6623,-3.6356,-3.6187,-3.3056,-3.4489,-3.5959,-3.6525,-3.7226,-3.7614,-3.7029,-3.6979,-3.6908,-3.6371,-3.759,-3.8808,0.0,0.0,-4.2313,-4.2606,-4.3797,-4.5072,-4.6195,-4.5869,-4.5918,0.0,0.0,0.0,0.0,0.0,0.0,-4.6714,0.0,-4.595,-4.6793,-4.6174,-4.5796,-4.5796,-4.5856,-4.5899,-4.5905,-4.5969,-4.6065,-4.6203,-4.6255,-4.6297,-4.6267,-4.5448,-4.4586,-4.3768,-4.3779,-4.3773,-4.3831,-4.4605,-4.4903,-4.4743,-4.3874,-4.2999,-4.212,-4.1306,-4.148,-4.2241,-4.2993,-4.324,-4.3234,-4.3234,-4.3788,-4.4478,-4.4574,-4.5133,-4.5723,-4.5715,-4.5643,-4.5586,-4.5513,-4.5467,-4.5419,-4.5399,-4.5408,-4.4908,-4.3063,-4.2677,-4.2398,-4.1506,-4.126,-4.1139,-4.1033,-4.1481,-4.1814,-4.1759,-4.2977,-4.3896,-4.3913,-4.3647,-4.3388,-4.3265,-4.3105,-4.2631,-4.1723,-4.1465,-4.1009,-4.0181,-3.9125,-3.8504,-3.8449,-3.7512,-3.7009,-3.7007,-3.7007,-3.6928,-3.6809,-3.6725,-3.6623,-3.6502,-3.6343,-3.6255,-3.4716,-3.5588,-3.641,-3.7099,-3.669,-3.6224,-3.6648,-3.6614,-3.659,-3.6942,-3.7692,-3.8594,-3.9634,0.0,0.0,-4.3234,-4.3912,0.0,-4.6852,-4.6493,0.0,-4.7623,0.0,-4.6523,-4.6765,-4.6354,0.0,0.0,-4.5908,-4.56,-4.5911,-4.5797,-4.5746,-4.58,-4.5824,-4.5852,-4.5892,-4.6014,-4.608,-4.6123,-4.6195,-4.6225,-4.6212,-4.605,-4.5487,-4.4666,-4.4665,-4.4678,-4.4639,-4.4218,-4.4025,-4.3907,-4.2994,-4.21,-4.1303,-4.1073,-4.1101,-4.1359,-4.2197,-4.2443,-4.2395,-4.2351,-4.2473,-4.2918,-4.4207,-4.4748,-4.5017,-4.555,-4.5692,-4.5651,-4.5531,-4.5522,-4.5523,-4.5419,-4.54,-4.5054,-4.3821,-4.3579,-4.3501,-4.3254,-4.2583,-4.1628,-4.0294,-4.0628,-4.1065,-4.0985,-4.1782,-4.272,-4.3765,-4.3266,-4.2781,-4.2645,-4.1878,-4.1267,-4.0979,-4.0763,-4.0256,-3.9299,-3.8955,-3.8449,-3.7711,-3.7403,-3.7182,-3.7069,-3.693,-3.6831,-3.6809,-3.6725,-3.6623,-3.6502,-3.6343,-3.6255,-3.5013,-3.5792,-3.652,-3.6987,-3.6862,-3.6677,-3.6853,-3.719,-3.7378,-3.7029,-3.7896,-3.8942,-3.9694,-4.0492,-4.1542,0.0,0.0,0.0,-4.6097,-4.5685,-4.5745,0.0,-4.6799,0.0,-4.724,-4.6676,-4.634,0.0,-4.5829,-4.5458,-4.5541,-4.565,-4.572,-4.5742,-4.5776,-4.5827,-4.5906,-4.6,-4.6066,-4.6098,-4.617,-4.6201,-4.6189,-4.586,-4.5462,-4.4955,0.0,-4.4078,-4.4367,-4.3499,-4.3349,-4.36,-4.2674,-4.1997,-4.1513,-4.1135,-4.095,-4.1019,-4.1907,-4.2186,-4.2205,-4.2511,-4.2854,-4.3324,-4.4304,-4.4852,-4.5206,-4.563,-4.548,-4.514,-4.5034,-4.4757,-4.447,-4.4364,-4.4327,-4.4049,-4.3051,-4.2829,-4.2787,-4.277,-4.1968,-4.109,-4.0384,-4.0565,-4.0772,-4.0712,-4.1338,-4.208,-4.288,-4.2514,-4.2078,-4.1883,-4.1266,-4.0645,-4.018,-3.995,-3.9427,-3.8528,-3.8329,-3.7985,-3.7372,-3.726,-3.7164,-3.7068,-3.695,-3.6849,-3.6766,-3.6705,-3.6602,-3.6423,-3.6339,-3.628,-3.4618,-3.5466,-3.631,-3.6528,-3.7155,-3.7636,-3.7172,-3.7905,-3.8264,-3.6821,-3.7956,-3.9282,-3.9476,-4.0384,-4.1489,-4.268,0.0,-4.3741,-4.4809,-4.441,-4.4689,-4.6536,-4.6183,-4.6246,-4.7419,-4.676,-4.636,-4.6561,-4.5833,-4.54,-4.5477,-4.5608,-4.5671,-4.5691,-4.5765,-4.5822,-4.5898,-4.5944,-4.6017,-4.6084,-4.6146,-4.618,-4.6159,-4.5471,-4.5099,-4.4913,-4.3397,-4.3105,-4.3626,-4.2762,-4.2848,-4.3435,-4.2493,-4.213,-4.2038,-4.1284,-4.0958,-4.1043,-4.1898,-4.2193,-4.2313,-4.2993,-4.3705,-4.4272,-4.4253,-4.4736,-4.5316,-4.5428,-4.4904,-4.4302,-4.4233,-4.367,-4.3079,-4.3015,-4.2963,-4.2688,-4.1867,-4.1628,-4.154,-4.136,-4.0659,-4.0268,-4.0767,-4.0741,-4.0628,-4.0557,-4.1103,-4.1511,-4.1511,-4.1469,-4.1337,-4.1085,-4.0783,-4.0221,-3.933,-3.9067,-3.8654,-3.7917,-3.7595,-3.7392,-3.7297,-3.7184,-3.7087,-3.7007,-3.7007,-3.6908,-3.6705,-3.6618,-3.6426,-3.6184,-3.6167,-3.6167,-3.4667,-3.5094,-3.5626,-3.6286,-3.6185,-3.6134,-3.678,-3.693,0.0,-3.6696,-3.7216,-3.8074,-3.935,-3.9842,-4.063,-4.2358,-4.3249,-4.3953,-4.4654,-4.4651,-4.5322,0.0,-4.7105,-4.7408,-4.9093,-4.8005,0.0,0.0,-4.6077,-4.5282,-4.541,-4.5484,-4.5594,-4.5691,-4.5765,-4.5814,-4.5827,-4.5873,-4.5947,-4.6019,-4.61,-4.6117,-4.6103,-4.6021,-4.5633,-4.4977,-4.4682,0.0,-4.363,-4.2763,-4.248,-4.2547,-4.1647,-4.1268,-4.1218,-4.1064,-4.0996,-4.1095,-4.1921,-4.2204,-4.2216,-4.2296,-4.2427,-4.2511,-4.246,-4.255,-4.2795,-4.345,-4.3538,-4.3404,-4.3339,-4.3203,-4.3085,-4.3026,-4.2989,-4.2925,-4.2698,-4.2594,-4.2336,-4.1599,-4.1291,-4.09,-4.0136,-3.995,-3.9875,-3.9796,-3.9902,-3.9984,-3.9984,-4.0346,-4.0544,-4.0389,-3.9488,-3.8796,-3.8508,-3.8272,-3.8007,-3.7757,-3.7631,-3.7503,-3.7297,-3.7278,-3.7182,-3.6989,-3.7007,-3.6928,-3.6788,-3.616,-3.5747,-3.5547,-3.5492,-3.5434,-3.4851,-3.5041,-3.5328,-3.5843,-3.5864,-3.5902,-3.6546,0.0,0.0,-3.6978,-3.7519,-3.8424,-3.9601,-3.9951,0.0,-4.2416,-4.311,-4.3556,-4.3906,-4.4065,-4.468,-4.6203,-4.6287,-4.6761,-4.8167,-4.7245,-4.6695,-4.6991,-4.5833,-4.5175,-4.5398,-4.5456,-4.5556,-4.5691,-4.5719,-4.5764,-4.5807,-4.588,-4.5931,-4.5997,-4.6041,-4.6061,-4.6098,-4.6181,-4.5994,-4.559,-4.5181,-4.4509,-4.3632,-4.2765,-4.2131,-4.1678,-4.1269,-4.1089,-4.1042,-4.1007,-4.0991,-4.1123,-4.1915,-4.2204,-4.2184,-4.2161,-4.2418,-4.2717,-4.2699,-4.268,-4.2757,-4.3143,-4.2936,-4.2567,-4.249,-4.2152,-4.1786,-4.1703,-4.1673,-4.1641,-4.1614,-4.1541,-4.137,-4.0903,-4.0777,-4.0522,-3.9913,-3.9747,-3.9684,-3.9614,-3.9589,-3.9589,-3.9589,-3.9767,-3.9802,-3.9596,-3.9024,-3.8559,-3.8323,-3.8055,-3.7881,-3.781,-3.7292,-3.6916,-3.6788,-3.6379,-3.6057,-3.5871,-3.5871,-3.5776,-3.5586,-3.5255,-3.5021,-3.4864,-3.4772,-3.4923,-3.5177,-3.5221,-3.5205,-3.5532,-3.58,-3.6084,-3.6419,-3.7263,-3.7809,-3.7251,-3.787,-3.8753,-3.9615,-4.0034,-4.074,0.0,-4.2771,-4.305,-4.3267,-4.339,-4.3875,0.0,-4.5276,0.0,-4.6855,-4.6247,0.0,-4.6338,-4.5525,-4.5136,-4.5392,-4.5467,-4.5556,-4.5652,-4.569,-4.5731,-4.5778,-4.5847,-4.5899,-4.5986,-4.5994,-4.5944,-4.5817,-4.5881,-4.5813,-4.5614,-4.4994,-4.423,-4.3379,-4.2689,-4.1881,-4.1099,-4.1104,-4.1105,-4.1083,-4.1048,-4.1013,-4.1081,-4.171,-4.1945,-4.1946,-4.1937,-4.2433,-4.3026,-4.284,-4.2757,-4.275,-4.2763,-4.2254,-4.1712,-4.1658,-4.1116,-4.0579,-4.0512,-4.046,-4.0413,-4.0424,-4.0373,-4.031,-4.0225,-4.0138,-4.0036,-3.9848,-3.9747,-3.9684,-3.9626,-3.962,-3.9589,-3.9589,-3.952,-3.9328,-3.9073,-3.8859,-3.8637,-3.8338,-3.8089,-3.7916,-3.7899,-3.6952,-3.6364,-3.6292,-3.551,-3.4996,-3.4817,-3.4817,-3.4726,-3.456,-3.4384,-3.4239,-3.418,-3.4086,-3.4324,-3.5686,-3.5621,-3.5337,-3.5532,-3.58,-3.6084,-3.6419,-3.674,-3.6998,-3.7238,-3.7408,-3.7823,-3.8831,-3.9621,-4.0429,-4.1369,0.0,-4.2805,-4.3232,-4.316,-4.356,-4.4942,0.0,0.0,-4.6705,-4.6157,-4.5856,-4.6184,-4.5517,-4.5191,-4.5383,-4.5467,-4.5509,-4.5518,-4.5635,-4.5703,-4.5715,-4.5771,-4.5848,-4.5917,-4.5966,-4.5622,-4.4914,-4.4922,-4.4538,-4.383,-4.3837,-4.3327,0.0,-4.2437,-4.1883,-4.1106,-4.1094,-4.1101,-4.1109,-4.1096,-4.1053,-4.102,-4.1081,-4.1116,-4.1095,-4.1048,-4.1602,-4.2133,-4.1302,-4.1027,-4.104,-4.1035,-4.0926,-4.0816,-4.0809,-4.0703,-4.058,-4.0523,-4.0508,-4.0492,-4.0482,-4.0432,-4.0353,-4.0224,-4.0138,-4.0057,-3.9911,-3.9781,-3.9696,-3.9693,-3.9645,-3.9589,-3.9589,-3.9596,-3.947,-3.921,-3.884,-3.8556,-3.8399,-3.8136,-3.7967,-3.7899,-3.6952,-3.6364,-3.6292,-3.5474,-3.496,-3.4889,-3.4817,-3.4781,-3.4781,-3.3986,-3.3563,-3.349,-3.3471,-3.3451,-3.6083,-3.5844,-3.5383,-3.5756,-3.5975,-3.6251,-3.6708,-3.6891,-3.7087,-3.7411,-3.7503,-3.779,-3.8685,-3.9585,-4.0487,-4.126,0.0,0.0,-4.316,-4.3178,-4.3413,-4.4057,-4.4247,0.0,0.0,0.0,-4.5067,-4.5382,-4.5262,-4.5201,-4.5277,-4.5389,-4.5448,-4.5509,-4.5593,-4.5662,-4.5708,-4.5761,-4.5826,-4.5899,-4.5931,-4.5784,-4.5512,-4.5556,-4.5137,-4.4377,-4.4412,-4.3659,0.0,-4.2402,-4.1893,-4.1109,-4.11,-4.1091,-4.1103,-4.1092,-4.1064,-4.101,-4.0997,-4.1003,-4.1006,-4.0974,-4.1169,-4.1349,-4.0959,-4.0823,-4.0794,-4.0802,-4.0777,-4.0746,-4.0707,-4.0646,-4.058,-4.0573,-4.0503,-4.0447,-4.0482,-4.0417,-4.0318,-4.0271,-4.0167,-4.0067,-3.9975,-3.9837,-3.9754,-3.9705,-3.9681,-3.9457,-3.8894,-3.8826,-3.8758,-3.8595,-3.8706,-3.8695,-3.8478,-3.8186,-3.8002,-3.795,-3.7039,-3.6291,-3.5773,-3.4834,-3.4126,-3.3646,-3.3493,-3.3424,-3.3406,-3.302,-3.2827,-3.2792,-3.2721,-3.2912,-3.676,-3.6535,-3.6056,-3.6749,-3.6843,-3.6877,-3.7341,-3.7304,-3.7261,-3.754,-3.7595,-3.7773,-3.8344,-3.9423,-4.0344,0.0,0.0,-4.2995,-4.2832,-4.3068,-4.3303,-4.3427,0.0,-4.3816,0.0,-4.4306,-4.4565,-4.4814,-4.5007,-4.5113,-4.5133,-4.5275,-4.5263,-4.509,-4.5175,-4.5131,-4.4935,-4.499,-4.5056,-4.5131,-4.5144,-4.5051,-4.4854,-4.4924,-4.4645,-4.4093,-4.4127,-4.3329,0.0,-4.2297,-4.1757,-4.074,-4.0717,-4.073,-4.074,-4.0711,-4.0689,-4.0674,-4.0916,-4.1006,-4.1003,-4.0999,-4.0978,-4.0936,-4.0937,-4.0872,-4.0837,-4.08,-4.079,-4.0752,-4.0707,-4.0646,-4.0607,-4.0607,-4.0511,-4.0381,-4.014,-4.0208,-4.0233,-3.9946,-4.0024,-4.0117,-4.0046,-3.9713,-3.9463,-3.941,-3.9168,-3.8745,-3.8096,-3.7991,-3.7967,-3.7889,-3.8117,-3.8385,-3.8597,-3.8099,-3.7742,-3.771,-3.6835,-3.6017,-3.5377,-3.4225,-3.3447,-3.3128,-3.2731,-3.2523,-3.2523,-3.244,-3.2406,-3.2406,-3.2319,-3.2582,-3.786,-3.7835,-3.7577,-3.8754,-3.8558,-3.8156,-3.8428,-3.7922,-3.7448,-3.7558,-3.7595,-3.7595,-3.7613,-3.8973,-3.991,-3.9319,0.0,0.0,-4.219,-4.2739,-4.3232,0.0,0.0,-4.358,-4.3772,-4.4285,-4.4624,-4.4688,-4.4827,0.0,-4.5008,-4.5126,-4.4872,-4.4145,-4.4238,-4.3927,-4.3121,-4.3181,-4.3262,-4.3337,-4.3382,-4.2974,-4.2136,-4.2208,-4.2247,-4.224,-4.2299,-4.1861,0.0,-4.2034,-4.1423,-3.99,-3.9843,-3.9841,-3.9908,-3.9842,-3.9808,-3.9921,-4.071,-4.1,-4.1002,-4.1003,-4.1003,-4.1006,-4.1006,-4.0946,-4.0892,-4.0812,-4.0752,-4.07,-4.07,-4.0646,-4.0607,-4.0607,-4.0558,-4.0242,-3.9309,-3.9793,-4.0104,-3.9108,-3.9605,-4.0176,-4.0117,-3.9321,-3.8709,-3.8709,-3.7921,-3.7316,-3.7316,-3.7316,-3.7265,-3.713,-3.6948,-3.7378,-3.8777,-3.7857,-3.7137,-3.7029,-3.6136,-3.5488,-3.5204,-3.3723,-3.3226,-3.3876,-3.3029,-3.2606,-3.2606,-3.2456,-3.2406,-3.2406,-3.2456,-3.2474,-3.8047,-3.7629,-3.6828,-3.7379,-3.7379,-3.7284,-3.7611,-3.7919,-3.8048,-3.7683,-3.8078,-3.8311,-3.7702,-3.9066,-4.0238,-4.0041,-4.1723,0.0,0.0,0.0,0.0,-4.3232,-4.3478,-4.3714,0.0,0.0,-4.4546,-4.4562,-4.4758,-4.4902,-4.4927,-4.5095,-4.4853,-4.4126,-4.4202,-4.3873,-4.3102,-4.3162,-4.3209,-4.3239,-4.335,-4.3266,-4.2987,-4.3009,-4.2728,-4.2169,-4.1591,-4.0906,-4.0238,-4.0504,-3.9999,-3.906,-3.9587,-3.9473,-3.9019,-3.8995,-3.8942,-3.9037,-3.988,-4.019,-4.0166,-4.0126,-4.0108,-3.9992,-3.9408,-4.0008,-4.0892,-4.0812,-4.0388,-3.9937,-3.9901,-3.9387,-3.8884,-3.8883,-3.8806,-3.8639,-3.8334,-3.8925,-3.9407,-3.9094,-3.968,-4.0015,-3.9452,-3.9032,-3.8553,-3.7902,-3.7558,-3.7146,-3.6486,-3.6451,-3.6453,-3.6424,-3.5735,-3.6043,-3.7858,-3.7603,-3.7497,-3.7856,-3.7049,-3.6246,-3.5576,-3.4373,-3.3547,-3.3162,-3.2797,-3.2606,-3.2606,-3.2574,-3.254,-3.254,-3.2556,-3.2574,-3.8057,-3.7982,-3.763,-3.7873,-3.7701,-3.7549,-3.7814,-3.8013,-3.8052,-3.7684,-3.8024,-3.8258,-3.7702,-3.8833,-3.986,-3.9932,-4.1415,0.0,0.0,0.0,0.0,-4.3339,0.0,0.0,0.0,-4.4237,-4.4421,-4.4493,-4.47,-4.484,-4.4895,-4.4725,-4.4309,-4.3589,-4.3637,-4.3147,-4.2082,-4.2152,-4.2201,-4.2212,-4.2325,-4.2396,-4.2414,-4.2425,-4.1981,-4.1199,-4.064,-3.9789,0.0,-3.9162,-3.9039,-3.8602,-3.8755,-3.8726,-3.8554,-3.8239,-3.8074,-3.8174,-3.9015,-3.9307,-3.9304,-3.927,-3.925,-3.9135,-3.8564,-3.9123,-3.9937,-3.9871,-3.9492,-3.9055,-3.9021,-3.8568,-3.8099,-3.8093,-3.8045,-3.7966,-3.7905,-3.8314,-3.8682,-3.8621,-3.8981,-3.9127,-3.861,-3.8175,-3.769,-3.7071,-3.6739,-3.6311,-3.5691,-3.5655,-3.5674,-3.5684,-3.5071,-3.5267,-3.6771,-3.669,-3.6714,-3.6999,-3.6485,-3.5869,-3.5191,-3.4209,-3.3546,-3.3217,-3.2866,-3.269,-3.2721,-3.269,-3.2673,-3.2673,-3.2622,-3.2622,0.0,-3.8643,-3.9413,-3.9576,-3.9064,-3.8569,-3.87,-3.8183,0.0,-3.7613,-3.7648,-3.7666,-3.7613,-3.8329,-3.9013,-3.9247,-4.0655,0.0,0.0,-4.2704,0.0,0.0,-4.3496,0.0,-4.3942,-4.4116,-4.4285,-4.4487,-4.463,-4.4744,-4.487,-4.4182,-4.3479,-4.2787,-4.2842,-4.2077,-4.0426,-4.0468,-4.0534,-4.0595,-4.0661,-4.0739,-4.0797,-4.0744,-4.0289,0.0,-3.9466,-3.858,-3.7263,-3.8131,-3.8468,-3.8323,-3.7585,-3.7754,-3.8318,-3.7519,-3.7202,-3.7329,-3.8126,-3.8419,-3.8402,-3.8408,-3.8374,-3.8299,-3.8236,-3.8319,-3.8393,-3.8311,-3.8228,-3.8128,-3.8122,-3.8019,-3.7925,-3.7919,-3.7926,-3.7892,-3.7766,-3.7831,-3.7874,-3.7756,-3.7761,-3.7772,-3.7662,-3.696,-3.6373,-3.6252,-3.5596,-3.5084,-3.502,-3.5011,-3.5001,-3.5001,-3.4869,-3.5028,-3.5581,-3.5361,-3.5142,-3.5003,-3.4881,-3.4654,-3.4335,-3.3486,-3.3271,-3.3821,-3.3145,-3.2854,-3.2916,-3.2854,-3.2821,-3.2805,-3.2688,-3.2706,-3.7448,0.0,-3.8018,-3.798,-3.7894,-3.7844,0.0,-3.8201,-3.8362,-3.7792,-3.8187,-3.8419,-3.7793,-3.851,-3.9391,-3.995,0.0,-4.1887,-4.1958,-4.214,0.0,-4.2996,-4.3196,-4.3392,-4.3681,-4.3952,-4.4218,-4.4406,-4.4551,-4.4635,-4.4674,-4.4632,-4.4249,-4.3487,-4.3577,-4.2594,-4.0426,-4.0468,-4.0534,-4.0595,-4.0661,-4.0739,-4.0777,-4.0106,-3.9698,-3.9442,-3.8171,-3.7422,-3.7191,-3.8111,-3.7717,-3.6657,-3.7756,-3.7547,-3.6594,-3.6384,-3.6308,-3.6437,-3.7288,-3.7586,-3.7568,-3.7527,-3.7044,-3.6504,-3.6492,-3.7378,-3.8399,-3.8373,-3.7874,-3.7351,-3.7306,-3.6776,-3.6251,-3.6205,-3.6189,-3.617,-3.6084,-3.6558,-3.7005,-3.6972,-3.74,-3.7625,-3.703,-3.6676,-3.6255,-3.5627,-3.5327,-3.516,-3.5098,-3.5028,-3.5001,-3.5001,-3.4927,-3.4903,-3.4937,-3.5192,-3.5528,-3.5951,-3.5274,-3.4787,-3.4613,-3.3765,-3.3288,-3.32,-3.3039,-3.2979,-3.3055,-3.3024,-3.3042,-3.3042,-3.2993,-3.2961,-3.7501,-3.7887,-3.85,-3.8031,-3.7961,-3.8037,-3.8129,-3.8164,-3.8056,-3.7721,-3.8007,-3.8168,-3.7739,-3.8151,-3.8833,-3.9625,-4.0293,0.0,0.0,0.0,-4.2068,-4.2432,-4.2996,-4.3412,0.0,-4.3902,-4.4166,-4.4344,-4.4482,-4.4573,-4.46,-4.4014,-4.3502,-4.3122,-4.2493,-4.177,-4.0966,-4.1025,-4.0885,-4.0537,-4.0612,-4.0699,-4.0713,-3.9844,-3.9256,-3.8822,-3.7549,-3.7027,-3.7111,-3.7634,-3.7556,-3.7158,-3.7683,-3.7379,-3.6543,-3.6142,-3.5994,-3.6074,-3.6539,-3.6704,-3.6684,-3.664,-3.6316,-3.5941,-3.5914,-3.6537,-3.726,-3.7229,-3.6899,-3.6534,-3.6479,-3.6101,-3.5723,-3.5662,-3.5654,-3.5736,-3.6074,-3.6164,-3.6291,-3.664,-3.6688,-3.6562,-3.6124,-3.5998,-3.5795,-3.5369,-3.5269,-3.5218,-3.5157,-3.5091,-3.5057,-3.5057,-3.4965,-3.4868,-3.4788,-3.4941,-3.5101,-3.5272,-3.4729,-3.431,-3.416,-3.361,-3.3226,-3.3057,-3.3106,-3.3152,-3.3198,-3.3198,-3.3165,-3.3101,-3.3101,-3.3055,-3.8067,-3.887,-3.9702,-3.8593,-3.8414,-3.8525,-3.8572,-3.7964,-3.7429,-3.7558,-3.7576,-3.7558,-3.7595,-3.7667,-3.8008,0.0,0.0,0.0,-4.0724,-4.1394,-4.1849,-4.205,-4.2886,0.0,-4.356,-4.3871,-4.4136,-4.4292,-4.4411,-4.4458,-4.4395,-4.3107,-4.2378,-4.2378,-4.1125,-4.0804,-4.1552,-4.1502,-4.1149,-4.0496,-4.0565,-4.0617,-4.0655,-3.9786,-3.9032,-3.8342,0.0,0.0,-3.7026,-3.7214,-3.7614,-3.8046,-3.7439,-3.7149,-3.6994,-3.6268,-3.6005,-3.5992,-3.5996,-3.5991,-3.5996,-3.5933,-3.5947,-3.5966,-3.5924,-3.5894,-3.588,-3.5834,-3.5857,-3.5887,-3.5825,-3.5801,-3.5778,-3.5713,-3.5693,-3.5871,-3.6571,-3.611,-3.5784,-3.64,-3.5928,-3.5405,-3.5345,-3.5323,-3.5327,-3.5324,-3.5308,-3.5293,-3.5215,-3.517,-3.511,-3.512,-3.5012,-3.4888,-3.4746,-3.4663,-3.4461,-3.4023,-3.3911,-3.3766,-3.3549,-3.3371,-3.3235,-3.3178,-3.3289,-3.3352,-3.3352,-3.3337,-3.3274,-3.3162,-3.3147,-3.3104,-3.9467,-4.0192,-4.0288,-3.8042,-3.8046,-3.8405,-3.7767,-3.7461,-3.7372,-3.7558,-3.7466,-3.7391,0.0,-3.7739,-3.8097,0.0,0.0,-3.9733,0.0,0.0,-4.1144,-4.2277,0.0,-4.3233,-4.3424,-4.3728,-4.4039,-4.4266,-4.4368,-4.4112,-4.3437,-4.3292,-4.2907,-4.2246,-4.2124,-4.183,-4.1357,-4.0788,-4.0501,-4.0496,-4.0504,-4.0549,-4.0582,-3.9779,-3.9329,-3.9161,0.0,-3.7635,-3.7051,-3.7864,-3.7448,-3.6359,-3.6955,-3.676,-3.6111,-3.6027,-3.6009,-3.6007,-3.5996,-3.5996,-3.5995,-3.5989,-3.594,-3.5908,-3.5908,-3.5895,-3.5899,-3.5885,-3.5889,-3.5872,-3.5822,-3.5791,-3.5782,-3.5713,-3.5699,-3.5728,-3.5787,-3.5693,-3.5637,-3.5746,-3.5617,-3.5481,-3.5476,-3.5429,-3.5405,-3.5453,-3.5432,-3.5357,-3.5293,-3.5242,-3.5176,-3.5172,-3.512,-3.4782,-3.4034,-3.4462,-3.442,-3.3561,-3.3902,-3.4023,-3.3766,-3.3615,-3.353,-3.3516,-3.3549,-3.3549,-3.3549,-3.3509,-3.3466,-3.3433,-3.3378,-3.3256,-3.8776,-3.9632,-4.0087,-3.838,-3.8516,-3.8784,-3.7619,-3.726,-3.7012,-3.6381,0.0,0.0,0.0,0.0,-3.7792,-3.8277,0.0,-3.9515,-4.0131,-4.0835,-4.147,0.0,0.0,-4.3233,-4.3338,-4.3682,-4.3963,-4.4131,-4.4203,-4.3922,-4.324,-4.2849,-4.2302,-4.1519,-4.1668,-4.1366,-4.0555,-4.0747,-4.0701,-4.0392,-4.0471,-4.0508,-4.0511,-3.9718,-3.9367,-3.9367,0.0,-3.8015,-3.7744,-3.8176,-3.7637,-3.6588,-3.7024,-3.6679,-3.5902,-3.5979,-3.5997,-3.5995,-3.6009,-3.5993,-3.5995,-3.5995,-3.5973,-3.5951,-3.5941,-3.5947,-3.5953,-3.5916,-3.5897,-3.5888,-3.583,-3.5823,-3.5842,-3.5778,-3.5756,-3.5737,-3.5679,-3.5637,-3.5599,-3.5608,-3.5547,-3.5509,-3.5547,-3.5528,-3.5502,-3.5495,-3.5462,-3.542,-3.5364,-3.5254,-3.5201,-3.5196,-3.5136,-3.4923,-3.4498,-3.4338,-3.4159,-3.3896,-3.4052,-3.4049,-3.382,-3.3712,-3.3647,-3.3605,-3.3605,-3.3605,-3.3605,-3.3534,-3.3509,-3.3509,-3.3422,-3.3319,-3.8402,-3.901,-3.9539,-3.8718,-3.9007,-3.9161,-3.784,-3.7306,-3.6739,-3.5545,0.0,0.0,0.0,-3.6896,0.0,-3.7846,-3.8617,-3.9264,-3.9493,-4.0852,-4.1887,-4.194,-4.2723,-4.3251,-4.3285,-4.3599,-4.3851,-4.3961,-4.385,-4.3539,-4.2899,-4.212,-4.136,-4.0616,-4.0767,-4.0537,-3.9878,-4.0602,-4.0747,-4.0289,-4.0396,-4.0463,-4.0481,-3.9872,-3.9622,-3.9644,-3.9052,-3.8586,-3.8276,-3.8292,-3.7709,-3.6814,-3.7074,-3.6771,-3.6198,-3.6031,-3.5986,-3.5976,-3.5994,-3.6001,-3.6008,-3.5995,-3.5996,-3.5996,-3.5995,-3.6009,-3.598,-3.5932,-3.5917,-3.5909,-3.5843,-3.5852,-3.5895,-3.5838,-3.581,-3.5784,-3.5722,-3.5688,-3.564,-3.5637,-3.5577,-3.5547,-3.5584,-3.5604,-3.5591,-3.5522,-3.5502,-3.5481,-3.5427,-3.5304,-3.5215,-3.5226,-3.5151,-3.5006,-3.4735,-3.3795,-3.3393,-3.3803,-3.4041,-3.4074,-3.3921,-3.3815,-3.3753,-3.3684,-3.3488,-3.3383,-3.3383,-3.3089,-3.2974,-3.2974,-3.2875,-3.2806,-3.9858,-3.9383,-3.8673,-3.8522,-3.9051,-3.9348,-3.8433,-3.7596,-3.68,-3.6086,0.0,0.0,0.0,-3.6767,-3.7428,-3.7828,-3.8438,-3.9135,-4.0003,0.0,-4.1959,-4.2634,-4.2955,-4.3142,-4.3213,-4.339,-4.36,-4.3804,-4.324,-4.2594,-4.195,-4.1191,-4.0465,-3.9721,-3.9775,-3.9814,-3.9804,-3.9946,-4.0065,-4.0215,-4.0289,-4.0388,-4.0491,-4.0492,-4.0514,-4.0498,-4.0513,-3.9631,-3.8205,-3.8276,-3.7347,-3.5974,-3.6795,-3.7117,-3.7014,-3.6192,-3.5912,-3.5914,-3.5986,-3.5995,-3.6004,-3.5994,-3.6004,-3.5992,-3.5995,-3.5996,-3.5995,-3.5987,-3.5998,-3.598,-3.5903,-3.5892,-3.5901,-3.5898,-3.5846,-3.5806,-3.5784,-3.5794,-3.5771,-3.5701,-3.564,-3.559,-3.5606,-3.5596,-3.5598,-3.5591,-3.5547,-3.5509,-3.5481,-3.5391,-3.5285,-3.5285,-3.5226,-3.4835,-3.3951,-3.2406,-3.1762,-3.2402,-3.359,-3.4281,-3.4257,-3.4086,-3.3972,-3.3972,-3.3176,-3.2764,-3.2764,-3.1806,-3.1367,-3.1367,-3.1234,-3.1138,-3.8779,-3.8888,-3.8921,-3.8679,-3.8518,-3.8143,-3.7113,-3.7039,-3.6707,-3.4995,-3.5927,0.0,0.0,0.0,-3.7577,-3.7703,-3.8365,-3.9029,-3.9463,-4.0671,-4.1647,-4.2006,-4.2157,-4.225,-4.225,-4.1992,-4.189,-4.2044,-4.1864,-4.1437,-4.0789,-4.0527,-4.0067,-3.9367,-3.9989,-4.0102,-3.9689,-4.0322,-4.0444,-4.0089,-4.0187,-4.0307,-4.0441,-4.0507,-4.0569,-4.0571,-4.0105,-3.9251,-3.8191,-3.8225,-3.7579,-3.659,-3.696,-3.7129,-3.7039,-3.6203,-3.5894,-3.589,-3.5934,-3.5962,-3.5992,-3.5995,-3.6001,-3.6009,-3.5996,-3.6008,-3.5995,-3.5996,-3.5968,-3.5937,-3.5903,-3.5901,-3.5889,-3.585,-3.5819,-3.5783,-3.5751,-3.5742,-3.5728,-3.5702,-3.5672,-3.5667,-3.5657,-3.567,-3.5648,-3.5614,-3.5577,-3.5547,-3.5509,-3.496,-3.4551,-3.4553,-3.3964,-3.3209,-3.2322,-3.2121,-3.1929,-3.1634,-3.2532,-3.2959,-3.2747,-3.2667,-3.2592,-3.2521,-3.2133,-3.1949,-3.1949,-3.1486,-3.1237,-3.1203,-3.1111,-3.1003,-3.7964,-3.8055,-3.8093,-3.8097,-3.7775,-3.7184,-3.6344,-3.6572,-3.6412,-3.4553,-3.5384,-3.6478,-3.6572,0.0,0.0,0.0,-3.8182,-3.8952,-3.9175,-4.0293,-4.1121,-4.1209,-4.1231,-4.1251,-4.1251,-4.0907,-4.0772,-4.0911,-4.0789,-4.053,-4.0084,-3.9912,-3.9624,-3.9147,-3.985,-4.0014,-3.9563,-4.0266,-4.0413,-3.9996,-4.007,-4.0196,-4.0344,-4.0449,-4.0388,-4.0169,-3.9634,-3.8936,-3.8206,-3.8202,-3.8047,-3.7778,-3.7296,-3.7268,-3.7389,-3.6301,-3.5897,-3.5892,-3.5899,-3.5929,-3.5975,-3.5979,-3.5981,-3.6005,-3.5994,-3.6009,-3.6003,-3.5991,-3.5976,-3.5939,-3.5912,-3.59,-3.5898,-3.5838,-3.5834,-3.5803,-3.5754,-3.5721,-3.5727,-3.5708,-3.5728,-3.5728,-3.5703,-3.5693,-3.5678,-3.5635,-3.5375,-3.5172,-3.5123,-3.4295,-3.3709,-3.3693,-3.2832,-3.1993,-3.139,-3.1572,-3.1485,-3.0894,-3.1319,-3.1704,-3.1944,-3.1907,-3.1827,-3.1733,-3.1369,-3.1169,-3.1157,-3.0748,-3.0527,-3.0438,-3.0374,-3.0269,-3.78,-3.6895,-3.5881,-3.6612,-3.6793,-3.6741,-3.6538,-3.6328,-3.5953,-3.5084,-3.4942,-3.5013,-3.5083,-3.5651,0.0,-3.6626,-3.7881,-3.8934,-3.9331,-3.9944,-4.0384,-4.0387,-4.0323,-4.0291,-4.0291,-4.0402,-4.0545,-4.0688,-4.0195,-3.9929,-4.0004,-3.9364,-3.8993,-3.9003,-3.9129,-3.9285,-3.9502,-3.9563,-3.9717,-3.9996,-3.9933,-4.0017,-4.0205,-4.0396,-4.0046,-3.9304,-3.935,-3.8923,-3.8195,-3.821,-3.8755,-3.9437,-3.7752,-3.7637,-3.8187,-3.6515,-3.5895,-3.5905,-3.59,-3.5908,-3.5892,-3.5904,-3.5936,-3.6005,-3.6005,-3.6005,-3.5992,-3.5999,-3.6008,-3.5975,-3.5917,-3.589,-3.5908,-3.5908,-3.5895,-3.5875,-3.5811,-3.5807,-3.5788,-3.5703,-3.5747,-3.5775,-3.5713,-3.5684,-3.5688,-3.5688,-3.4883,-3.4286,-3.4286,-3.3462,-3.2864,-3.2785,-3.2003,-3.147,-3.1389,-3.06,-3.0094,-3.0102,-3.0095,-3.075,-3.2223,-3.2091,-3.1976,-3.1976,-3.1013,-3.0465,-3.0401,-2.9442,-2.8935,-2.8798,-2.8737,-2.8657,-3.7442,-3.7073,-3.6542,-3.6295,-3.6159,-3.6063,-3.5963,-3.6296,0.0,0.0,-3.4639,-3.4408,-3.4994,-3.5208,0.0,-3.6292,-3.6769,-3.7301,-3.8026,-3.8725,-3.9188,-3.9332,-3.9316,-3.9317,-3.9317,-3.9427,-3.9536,-3.9642,-3.9546,-3.9537,-3.9639,-3.9014,-3.8698,-3.8795,-3.8964,-3.9156,-3.9363,-3.9477,-3.9611,-3.9781,-3.9867,-4.0017,-4.0186,-3.9632,-3.9301,-3.9141,-3.8623,-3.8276,-3.8112,-3.8819,-3.9273,-3.9425,-3.8304,-3.7681,-3.7296,-3.6223,-3.5861,-3.5901,-3.5895,-3.5905,-3.5894,-3.59,-3.5911,-3.5921,-3.5931,-3.5934,-3.5938,-3.5995,-3.5999,-3.5973,-3.5918,-3.5927,-3.5955,-3.5911,-3.5895,-3.5872,-3.5799,-3.5841,-3.5857,-3.5786,-3.5795,-3.5795,-3.578,-3.5267,-3.4841,-3.4783,-3.4035,-3.3216,-3.2555,-3.2192,-3.1738,-3.1117,-3.0816,-3.0636,-3.0555,-3.0331,-3.0142,-3.0102,-3.0095,-3.025,-3.0593,-3.0552,-3.0462,-3.0308,-2.9926,-2.967,-2.957,-2.9229,-2.8975,-2.8798,-2.8773,-2.8687,-3.7079,-3.6994,-3.664,-3.651,-3.6664,-3.6658,-3.5978,-3.6067,0.0,0.0,-3.4348,-3.4013,-3.4225,-3.471,0.0,-3.5776,-3.6395,-3.7014,-3.7534,-3.7943,-3.823,-3.8306,-3.8308,-3.8291,-3.8291,-3.8705,-3.8887,-3.8618,-3.9012,-3.9171,-3.8932,-3.8609,-3.8465,-3.8596,-3.8807,-3.9021,-3.9219,-3.9389,-3.9539,-3.9712,-3.9781,-3.9924,-4.01,-3.9299,-3.8628,-3.806,-3.8028,-3.8209,-3.8632,-3.958,-3.9798,-3.9404,-3.8537,-3.7728,-3.6944,-3.6108,-3.5822,-3.5865,-3.5864,-3.5852,-3.5859,-3.5898,-3.5894,-3.5903,-3.5897,-3.5902,-3.5904,-3.5955,-3.5981,-3.5982,-3.5953,-3.5976,-3.5985,-3.5924,-3.5906,-3.5883,-3.5856,-3.5875,-3.5887,-3.5803,-3.5807,-3.5807,-3.5801,-3.5072,-3.4487,-3.4454,-3.3383,-3.2246,-3.1291,-3.1154,-3.0912,-3.0407,-3.0318,-3.028,-3.0241,-3.0226,-3.0185,-3.0142,-3.0147,-3.0098,-3.0019,-2.9943,-2.9844,-2.9729,-2.955,-2.9382,-2.9286,-2.9189,-2.9033,-2.8846,-2.881,-2.8712,-3.6656,-3.6607,-3.6318,-3.6894,-3.763,-3.7801,-3.6238,-3.5668,-3.5202,-3.4313,0.0,-3.3736,-3.3118,-3.4087,-3.5024,-3.5173,-3.6425,-3.7369,-3.7441,-3.7508,-3.7477,-3.7312,-3.7353,-3.7392,-3.7392,-3.8232,-3.8487,-3.7828,-3.8636,-3.8851,-3.8111,-3.8209,-3.8322,-3.8382,-3.8652,-3.8877,-3.9073,-3.9272,-3.9477,-3.967,-3.9689,-3.9755,-3.9853,-3.9166,-3.8054,-3.6687,-3.7674,-3.8609,-3.9462,-4.0255,-4.0063,-3.9172,-3.8396,-3.7626,-3.6886,-3.6085,-3.5794,-3.5784,-3.5807,-3.5811,-3.5807,-3.5866,-3.5901,-3.5908,-3.5903,-3.5908,-3.5892,-3.5904,-3.5936,-3.5994,-3.6003,-3.5993,-3.5976,-3.5928,-3.5912,-3.5916,-3.5901,-3.5908,-3.5875,-3.5807,-3.5799,-3.5779,-3.5698,-3.4965,-3.4337,-3.4153,-3.2739,-3.1361,-3.0519,-3.0408,-3.0404,-3.0404,-3.0342,-3.031,-3.0304,-3.0241,-3.0214,-3.0207,-3.0206,-3.0192,-3.0211,-3.0014,-2.9901,-2.9904,-2.9654,-2.9492,-2.9402,-2.9275,-2.9112,-2.8905,-2.8834,-2.8724,-3.5565,-3.5871,-3.5989,-3.5754,-3.619,-3.6401,-3.5305,-3.5041,-3.4754,-3.3771,-3.3418,-3.3265,-3.3119,-3.3177,-3.3651,-3.4924,-3.5312,-3.5676,-3.6261,-3.6828,-3.6991,-3.6465,-3.6944,-3.7316,-3.7316,-3.808,-3.853,-3.8411,-3.8702,-3.8813,-3.8707,-3.8361,-3.8204,-3.8322,-3.858,-3.8777,-3.8935,-3.9142,-3.9285,-3.9401,-3.9606,-3.9426,-3.8883,-3.8153,-3.7745,-3.7655,-3.8554,-3.9129,-3.9404,-3.9599,-3.8807,-3.7444,-3.7253,-3.6701,-3.5979,-3.5781,-3.5718,-3.5737,-3.5788,-3.5806,-3.5799,-3.5811,-3.5852,-3.5892,-3.5908,-3.5891,-3.5894,-3.5908,-3.5904,-3.5938,-3.5994,-3.5991,-3.6007,-3.5976,-3.5984,-3.596,-3.5907,-3.5897,-3.588,-3.5815,-3.5799,-3.5582,-3.4909,-3.4057,-3.3,-3.156,-3.1028,-3.0683,-3.0422,-3.0411,-3.0394,-3.0404,-3.0398,-3.0355,-3.0305,-3.0292,-3.0267,-3.0206,-3.0194,-3.0194,-3.0211,-3.0113,-3.0011,-2.9907,-2.9851,-2.9654,-2.9314,-2.9283,-2.9141,-2.8905,-2.8834,-2.8761,-3.5014,-3.5334,-3.5666,-3.6209,-3.6309,-3.6102,-3.5593,-3.527,-3.4788,-3.3757,-3.3372,-3.324,-3.3238,-3.338,-3.3708,-3.446,-3.4818,-3.5242,-3.5948,-3.639,-3.6602,-3.6567,-3.7012,-3.7259,-3.7163,-3.7909,-3.8249,-3.79,-3.8368,-3.8554,-3.8275,-3.8043,-3.8001,-3.8204,-3.8465,-3.867,-3.8792,-3.905,-3.9183,-3.9264,-3.9514,-3.9313,-3.8672,-3.7937,-3.7916,-3.8487,-3.8543,-3.8873,-3.9324,-3.8968,-3.8054,-3.6856,-3.6893,-3.6406,-3.5707,-3.5707,-3.5698,-3.5694,-3.5737,-3.5751,-3.5769,-3.5783,-3.5853,-3.5905,-3.5892,-3.5905,-3.5897,-3.59,-3.5894,-3.5912,-3.5981,-3.5999,-3.5998,-3.5991,-3.5995,-3.5982,-3.5914,-3.5892,-3.5772,-3.5301,-3.5192,-3.4917,-3.4074,-3.3184,-3.2128,-3.0743,-3.0525,-3.0486,-3.046,-3.0414,-3.0406,-3.0389,-3.0396,-3.0392,-3.0356,-3.0323,-3.0286,-3.0254,-3.0241,-3.0227,-3.0194,-3.0166,-3.009,-3.0011,-2.9934,-2.9763,-2.9494,-2.9365,-2.9185,-2.894,-2.8846,-2.8749,-3.4642,-3.4954,-3.5413,-3.6948,-3.6859,0.0,-3.6307,-3.5799,-3.5089,-3.419,-3.3721,-3.3484,-3.3437,-3.3824,-3.4122,-3.406,-3.4547,-3.5172,-3.5828,-3.5934,-3.6163,-3.6828,-3.6989,-3.7022,-3.695,-3.7609,-3.7774,-3.7103,-3.7803,-3.8064,-3.7557,-3.7631,-3.781,-3.8068,-3.8334,-3.8528,-3.8658,-3.8935,-3.9101,-3.917,-3.9452,-3.9369,-3.8934,-3.8337,-3.8449,-3.9073,-3.8558,-3.87,-3.9268,-3.8504,-3.7643,-3.6813,-3.6714,-3.6265,-3.5678,-3.5702,-3.5702,-3.5707,-3.5699,-3.5704,-3.5708,-3.575,-3.5834,-3.5872,-3.5875,-3.5882,-3.5903,-3.5894,-3.5908,-3.5909,-3.5979,-3.5995,-3.5991,-3.6001,-3.5994,-3.5974,-3.5934,-3.5808,-3.5488,-3.4739,-3.4305,-3.3856,-3.3173,-3.231,-3.1435,-3.0708,-3.0545,-3.0506,-3.0496,-3.0455,-3.0409,-3.0398,-3.0408,-3.041,-3.0379,-3.0342,-3.031,-3.0298,-3.0292,-3.0279,-3.0221,-3.0214,-3.0161,-3.0123,-3.0007,-2.9857,-2.9717,-2.9465,-2.922,-2.9033,-2.887,-2.8737,-3.4089,-3.4679,-3.5486,-3.6476,-3.6684,-3.6633,0.0,0.0,-3.5509,0.0,-3.4488,-3.3767,-3.3623,-3.3535,-3.368,-3.4181,-3.4282,-3.4541,-3.5154,-3.5226,-3.5456,-3.607,-3.6064,-3.6192,-3.6693,-3.6913,-3.6974,-3.6849,-3.7117,-3.7309,-3.7334,-3.7503,-3.7739,-3.8001,-3.8223,-3.8403,-3.8525,-3.8803,-3.895,-3.9021,-3.9363,-3.9543,-3.9581,-3.9542,-3.9364,-3.9131,-3.9786,-3.9815,-3.9313,-3.8477,-3.7636,-3.6812,-3.6079,-3.5705,-3.5623,-3.5672,-3.5692,-3.5701,-3.5689,-3.5694,-3.5698,-3.5708,-3.5769,-3.5811,-3.5811,-3.5843,-3.5891,-3.5903,-3.5908,-3.5894,-3.5909,-3.596,-3.5994,-3.5991,-3.6005,-3.5995,-3.5987,-3.539,-3.4804,-3.4636,-3.3361,-3.2276,-3.2128,-3.1398,-3.0797,-3.0638,-3.0591,-3.0573,-3.0501,-3.0491,-3.0465,-3.0403,-3.0392,-3.0389,-3.0316,-3.0367,-3.0355,-3.0299,-3.0305,-3.0305,-3.0286,-3.0227,-3.0207,-3.0194,-3.0116,-2.998,-2.9799,-2.9589,-2.9377,-2.9174,-2.891,-2.8785,-3.3996,-3.4312,-3.4844,0.0,-3.5948,-3.6103,-3.6587,-3.613,-3.5584,-3.5506,-3.4796,-3.4111,-3.3815,-3.3648,-3.3636,-3.3813,-3.3715,-3.3894,-3.4619,-3.4614,-3.4781,-3.5421,-3.5734,-3.5969,-3.6105,-3.6521,-3.6748,-3.6809,-3.6891,-3.7048,-3.7278,-3.7411,-3.7631,-3.7933,-3.8104,-3.8269,-3.8446,-3.8686,-3.8925,-3.917,-3.9362,-3.9557,-3.9815,-3.9804,-3.9737,-3.9661,-3.9627,-3.9183,-3.8435,-3.7679,-3.689,-3.6074,-3.5732,-3.5595,-3.5612,-3.5687,-3.5692,-3.569,-3.5693,-3.5698,-3.5707,-3.5703,-3.5747,-3.5799,-3.5811,-3.5849,-3.5908,-3.5894,-3.5903,-3.5892,-3.5907,-3.5958,-3.6009,-3.6002,-3.5999,-3.5991,-3.5996,-3.5326,-3.4386,-3.3359,-3.2133,-3.1252,-3.1231,-3.0933,-3.0688,-3.0604,-3.06,-3.0586,-3.0564,-3.0525,-3.0679,-3.1146,-3.1188,-3.116,-3.1095,-3.1101,-3.0916,-3.0387,-3.0361,-3.0336,-3.0305,-3.0267,-3.0234,-3.0188,-3.0123,-3.003,-2.9857,-2.9689,-2.9465,-2.9198,-2.9034,-2.888,-3.4077,0.0,-3.4371,-3.5052,-3.5371,-3.5731,0.0,0.0,-3.5724,0.0,-3.5126,-3.4351,-3.4105,-3.3897,-3.3698,-3.3549,-3.3386,-3.3539,-3.4256,-3.4046,-3.4118,-3.4959,-3.5242,-3.5444,-3.5582,-3.6078,-3.6496,-3.6768,-3.6788,-3.693,-3.7222,-3.7317,-3.7522,-3.7828,-3.8002,-3.8186,-3.8399,-3.8624,-3.8892,-3.9192,-3.9328,-3.954,-3.9766,-3.9754,-3.972,-3.9663,-3.9385,-3.8863,-3.8092,-3.7365,-3.6568,-3.5824,-3.5668,-3.5595,-3.5601,-3.5687,-3.5692,-3.569,-3.5697,-3.5702,-3.5697,-3.5697,-3.5752,-3.5806,-3.5795,-3.5841,-3.5908,-3.5891,-3.59,-3.5892,-3.5902,-3.5934,-3.5984,-3.5994,-3.5991,-3.5888,-3.5428,-3.4822,-3.3844,-3.2043,-3.1151,-3.0691,-3.0697,-3.0699,-3.0677,-3.0613,-3.0604,-3.0595,-3.0602,-3.0559,-3.0854,-3.1704,-3.1804,-3.1854,-3.2014,-3.2027,-3.1746,-3.1107,-3.0845,-3.0717,-3.0661,-3.0433,-3.0279,-3.0227,-3.0142,-3.0053,-2.9945,-2.9794,-2.9598,-2.9345,-2.918,-2.8993,-3.429,-3.4381,0.0,-3.4697,-3.5259,-3.6023,0.0,0.0,-3.6128,-3.6934,-3.5717,-3.4495,-3.4473,-3.4161,-3.3815,-3.3633,-3.3534,-3.3679,-3.4245,-3.358,-3.3525,-3.4748,-3.4146,-3.4085,-3.5208,-3.5476,-3.5884,-3.665,-3.6748,-3.6891,-3.7108,-3.7222,-3.7447,-3.7703,-3.7897,-3.8136,-3.8399,-3.8728,-3.891,-3.8921,-3.9253,-3.9418,-3.9425,-3.9552,-3.9187,-3.8546,-3.9596,-3.969,-3.9065,-3.8129,-3.7356,-3.6652,-3.5894,-3.5598,-3.561,-3.5676,-3.5692,-3.569,-3.5697,-3.5692,-3.5709,-3.5709,-3.5742,-3.5808,-3.581,-3.5841,-3.5911,-3.5906,-3.5908,-3.5908,-3.5892,-3.5899,-3.5914,-3.5984,-3.6001,-3.5551,-3.3886,-3.3508,-3.2942,-3.1208,-3.0774,-3.0706,-3.07,-3.0704,-3.0676,-3.061,-3.0602,-3.0608,-3.0602,-3.0598,-3.0898,-3.1709,-3.18,-3.2118,-3.2877,-3.2929,-3.291,-3.2871,-3.2091,-3.163,-3.1625,-3.0765,-3.0312,-3.0286,-3.0159,-3.0101,-3.0094,-2.9894,-2.9786,-2.9754,-2.9306,-2.9086,0.0,0.0,0.0,-3.4573,-3.4832,-3.5318,-3.6118,-3.5722,-3.5417,-3.6193,-3.5445,-3.4443,-3.3832,-3.3899,-3.3985,-3.3868,-3.3684,-3.3629,-3.3773,-3.3376,-3.3176,-3.3503,-3.3564,-3.3722,-3.4102,-3.4985,-3.566,-3.6035,-3.6509,-3.6871,-3.7029,-3.7201,-3.741,-3.7631,-3.7828,-3.8087,-3.8399,-3.8655,-3.8855,-3.8983,-3.9133,-3.9309,-3.9439,-3.8983,-3.866,-3.8463,-3.8304,-3.7866,-3.7298,-3.7662,-3.7009,-3.582,-3.5663,-3.5598,-3.5604,-3.5679,-3.5665,-3.5643,-3.569,-3.5665,-3.5643,-3.5679,-3.5713,-3.5742,-3.5788,-3.5811,-3.5836,-3.5888,-3.5894,-3.5897,-3.5906,-3.5899,-3.5914,-3.5972,-3.6009,-3.5671,-3.4489,-3.3359,-3.2375,-3.176,-3.115,-3.0747,-3.0717,-3.0697,-3.0685,-3.0618,-3.0606,-3.0608,-3.0602,-3.1043,-3.1695,-3.2536,-3.314,-3.3575,-3.3812,-3.3832,-3.3589,-3.3031,-3.2713,-3.2536,-3.2536,-3.1636,-3.1123,-3.1123,-3.0499,-3.0142,-3.0091,-2.9988,-2.9855,-2.9726,-2.957,-2.9318,-3.4678,0.0,0.0,0.0,-3.4304,-3.4495,-3.4982,0.0,-3.4175,-3.4965,-3.467,-3.3989,-3.3098,-3.3418,-3.3759,-3.3623,-3.3637,-3.3633,-3.3495,-3.3241,-3.2993,-3.2821,-3.3051,-3.3284,-3.3458,-3.4257,-3.5056,-3.5696,-3.6164,0.0,-3.7011,-3.7145,-3.7336,-3.7577,-3.7846,-3.8105,-3.8368,-3.8596,-3.8795,-3.8983,-3.9045,-3.9237,-3.9439,-3.8639,-3.8174,-3.7996,-3.7423,-3.6807,-3.6254,-3.6929,-3.6472,-3.5308,-3.5455,-3.5528,-3.5572,-3.5631,-3.5631,-3.5614,-3.5673,-3.5668,-3.5606,-3.5679,-3.5702,-3.5713,-3.5775,-3.5795,-3.5815,-3.5889,-3.5901,-3.5908,-3.59,-3.5897,-3.5914,-3.5972,-3.6007,-3.5844,-3.5267,-3.4003,-3.289,-3.2591,-3.1835,-3.1227,-3.1181,-3.0912,-3.0678,-3.0645,-3.0618,-3.0593,-3.0606,-3.1066,-3.1835,-3.3016,-3.363,-3.4186,-3.4723,-3.4759,-3.4516,-3.3945,-3.3334,-3.3132,-3.3421,-3.2257,-3.1731,-3.2005,-3.1101,-3.0591,-3.0537,-3.0205,-2.9956,-2.9822,-2.9744,-2.9446,0.0,0.0,0.0,0.0,-3.3675,0.0,-3.3676,-3.2959,-3.2553,-3.3422,-3.3496,-3.3162,-3.2344,-3.2766,-3.3138,-3.2822,-3.3335,-3.3675,-3.3437,-3.318,-3.2945,-3.2821,-3.2575,-3.2652,-3.3315,-3.3384,-3.4069,-3.5652,-3.5733,-3.6122,-3.7054,-3.7108,-3.7261,-3.7577,-3.7932,-3.8153,-3.829,-3.8549,-3.8765,-3.8896,-3.9031,-3.9202,-3.9367,-3.8571,-3.779,-3.711,-3.7073,-3.6707,-3.6149,-3.6145,-3.5808,-3.5285,-3.5324,-3.54,-3.5496,-3.5577,-3.5602,-3.5604,-3.5662,-3.5648,-3.5606,-3.5679,-3.5702,-3.5713,-3.5775,-3.5791,-3.5811,-3.5875,-3.5892,-3.5905,-3.5908,-3.5908,-3.5912,-3.5981,-3.5994,-3.6007,-3.6008,-3.5331,-3.4473,-3.3613,-3.2727,-3.2144,-3.2148,-3.1373,-3.0776,-3.0733,-3.0688,-3.0625,-3.0606,-3.0625,-3.1304,-3.3009,-3.3161,-3.3839,-3.5548,-3.5697,-3.5701,-3.5707,-3.4047,-3.3456,-3.4305,-3.2615,-3.2045,-3.2823,-3.1983,-3.1513,-3.144,-3.0537,-3.0095,-3.0095,-2.9822,-2.9456,-3.4888,0.0,0.0,0.0,0.0,0.0,-3.2848,-3.2678,-3.2735,-3.3523,-3.3639,-3.3337,-3.2382,-3.3298,-3.3739,-3.2305,-3.2594,-3.3138,-3.3486,-3.3364,-3.3137,-3.29,-3.2673,-3.2595,-3.2738,-3.3284,-3.4004,0.0,-3.5607,-3.6296,-3.6993,-3.7182,-3.7354,-3.7577,-3.7828,-3.8019,-3.8153,-3.8385,-3.8559,-3.875,-3.8896,-3.9064,-3.9237,-3.8463,-3.776,-3.7073,-3.6479,-3.5791,-3.5141,-3.6443,-3.6177,-3.5085,-3.5815,-3.581,-3.5429,-3.5444,-3.549,-3.5547,-3.561,-3.5616,-3.5596,-3.5626,-3.5667,-3.5708,-3.5713,-3.5769,-3.5807,-3.5811,-3.5822,-3.5833,-3.5898,-3.5908,-3.5912,-3.5981,-3.5994,-3.6007,-3.6008,-3.5817,-3.5389,-3.4511,-3.3649,-3.3037,-3.305,-3.2837,-3.2415,-3.1743,-3.1612,-3.1363,-3.0692,-3.1149,-3.1967,-3.3087,-3.3761,-3.4531,-3.5607,-3.5698,-3.5702,-3.5707,-3.5184,-3.4985,-3.5231,-3.4122,-3.3557,-3.3747,-3.2886,-3.2436,-3.2405,-3.0848,-3.0095,-3.0095,-2.9822,-2.9589,0.0,0.0,0.0,-3.3422,0.0,0.0,-3.164,-3.1496,-3.1637,0.0,-3.2379,-3.2334,-3.1402,-3.2249,-3.2579,-3.1113,-3.1365,-3.22,-3.3497,-3.3506,-3.3289,-3.3026,-3.282,-3.2657,-3.2557,-3.2964,-3.3688,-3.4782,-3.5366,-3.6054,-3.6978,-3.7222,-3.7391,-3.7484,-3.7757,-3.7951,-3.8069,-3.8285,-3.8512,-3.875,-3.8851,-3.9021,-3.9251,-3.8115,-3.7386,-3.7,-3.5848,-3.5041,-3.4674,-3.6128,-3.597,-3.4927,-3.5532,-3.5577,-3.5278,-3.5374,-3.5409,-3.543,-3.5554,-3.5591,-3.556,-3.5596,-3.5635,-3.5654,-3.5654,-3.5718,-3.5801,-3.5795,-3.5819,-3.5849,-3.5898,-3.5906,-3.5904,-3.5955,-3.5986,-3.6001,-3.6001,-3.6008,-3.5857,-3.5332,-3.4549,-3.3942,-3.3937,-3.3634,-3.309,-3.2182,-3.2013,-3.1663,-3.0761,-3.1099,-3.1732,-3.2613,-3.3453,-3.4287,-3.5135,-3.5505,-3.5693,-3.5703,-3.5298,-3.5228,-3.5577,-3.4706,-3.434,-3.4684,-3.3796,-3.314,-3.2769,-3.1321,-3.0445,-3.0046,-2.9864,-2.9698,0.0,0.0,0.0,-3.298,-3.2616,0.0,-3.0418,-3.0106,-3.014,-3.0086,-3.0648,-3.0915,-3.0177,-3.0535,-3.0668,-2.9851,-3.0124,-3.1119,-3.3117,-3.3291,-3.3154,-3.3036,-3.2807,-3.2666,-3.2655,-3.2639,-3.3293,-3.487,-3.5102,-3.5739,-3.7058,-3.7318,-3.7392,-3.7316,-3.7685,-3.7934,-3.8002,-3.8252,-3.851,-3.8777,-3.8866,-3.9068,-3.9322,-3.786,-3.7112,-3.6923,-3.5499,-3.4749,-3.4573,-3.5405,-3.5375,-3.4802,-3.4964,-3.5058,-3.5105,-3.5304,-3.5335,-3.5315,-3.5495,-3.5534,-3.5502,-3.5554,-3.5595,-3.5607,-3.5612,-3.5708,-3.5803,-3.5803,-3.5834,-3.5882,-3.5898,-3.5897,-3.5892,-3.5907,-3.5958,-3.599,-3.6009,-3.6003,-3.5992,-3.5996,-3.5371,-3.4843,-3.4843,-3.419,-3.3396,-3.2515,-3.2331,-3.1943,-3.0962,-3.0847,-3.1177,-3.205,-3.2788,-3.3604,-3.4556,-3.5291,-3.5703,-3.5704,-3.4921,-3.4801,-3.5568,-3.4801,-3.4725,-3.5488,-3.4676,-3.3798,-3.2837,-3.1985,-3.1116,-3.0273,-3.0119,-2.9954,0.0,0.0,0.0,-3.285,-3.2653,0.0,-3.0557,-3.071,-3.1199,-3.1184,-3.126,-3.1263,-3.1002,-3.1046,-3.1014,-3.0619,-3.0561,-3.0639,-3.087,-3.1192,-3.1653,-3.23,-3.2107,-3.2188,-3.2862,-3.2884,-3.3244,-3.4225,-3.5437,-3.647,-3.7301,-3.7485,-3.7503,-3.7392,-3.7721,-3.7899,-3.7934,-3.8238,-3.8446,-3.8556,-3.8788,-3.8993,-3.9156,-3.8997,-3.8215,-3.6986,-3.6719,-3.5841,-3.4591,-3.4771,-3.4806,-3.4785,-3.5505,-3.5475,-3.5038,-3.5117,-3.5176,-3.5234,-3.5254,-3.5342,-3.5422,-3.5424,-3.552,-3.5612,-3.5653,-3.5737,-3.5803,-3.5801,-3.5811,-3.5838,-3.5882,-3.5898,-3.5897,-3.5904,-3.5958,-3.599,-3.6009,-3.6,-3.6007,-3.5992,-3.5859,-3.5742,-3.5742,-3.5604,-3.5191,-3.4325,-3.4174,-3.3585,-3.1963,-3.1746,-3.2072,-3.2947,-3.3192,-3.3911,-3.5426,-3.5691,-3.5761,-3.5708,-3.5538,-3.5477,-3.5606,-3.5421,-3.5385,-3.5496,-3.5315,-3.4738,-3.3735,-3.2931,-3.234,-3.1998,-3.1331,-3.0945,0.0,0.0,0.0,-3.3396,-3.2926,0.0,0.0,-3.0827,-3.0846,-3.081,-3.078,-3.0731,-3.0657,-3.0246,-2.9844,-2.9692,-2.9502,-2.9341,-2.9181,-3.0277,-3.156,-3.2802,-3.2043,-3.1866,-3.3072,-3.276,-3.3111,-3.4676,-3.5894,-3.6827,-3.7468,-3.7595,-3.7559,-3.7411,-3.7721,-3.7916,-3.7951,-3.8236,-3.8478,-3.8652,-3.8818,-3.8993,-3.9137,-3.8846,-3.8071,-3.6937,-3.656,-3.5702,-3.455,-3.4591,-3.4623,-3.4693,-3.521,-3.5198,-3.4927,-3.5048,-3.5119,-3.5151,-3.5193,-3.525,-3.5312,-3.5333,-3.5417,-3.5521,-3.5626,-3.5702,-3.577,-3.5793,-3.5803,-3.5811,-3.5875,-3.5895,-3.5894,-3.5894,-3.5953,-3.6007,-3.5997,-3.5995,-3.6005,-3.6007,-3.5992,-3.5995,-3.5996,-3.5996,-3.5703,-3.4821,-3.4698,-3.4219,-3.2867,-3.2292,-3.2322,-3.32,-3.331,-3.3817,-3.5092,-3.5578,-3.5795,-3.5747,-3.5718,-3.5674,-3.5648,-3.5629,-3.5565,-3.5495,-3.5494,-3.5235,-3.4702,-3.4266,-3.354,-3.254,-3.2132,-3.1895,0.0,0.0,0.0,0.0,-3.3386,-3.282,0.0,0.0,0.0,-3.0421,0.0,0.0,0.0,0.0,0.0,0.0,0.0,0.0,0.0,-2.9698,0.0,-3.2873,-3.1623,-3.1293,-3.3038,-3.2629,-3.3085,-3.5128,-3.6046,-3.6769,-3.7363,-3.7614,-3.7649,-3.7449,-3.7739,-3.7933,-3.8018,-3.8269,-3.8525,-3.8807,-3.8881,-3.9007,-3.9165,-3.8526,-3.7746,-3.6858,-3.6208,-3.5413,-3.4506,-3.4561,-3.4612,-3.4612,-3.4737,-3.4788,-3.4819,-3.4993,-3.5057,-3.5075,-3.5115,-3.5168,-3.5193,-3.5227,-3.5323,-3.5422,-3.556,-3.564,-3.5699,-3.577,-3.5806,-3.5823,-3.5875,-3.5892,-3.5908,-3.5906,-3.5948,-3.6005,-3.6005,-3.6007,-3.6002,-3.6002,-3.6005,-3.6009,-3.5994,-3.5995,-3.5761,-3.5058,-3.4959,-3.4643,-3.3755,-3.2989,-3.279,-3.349,-3.3546,-3.3891,-3.4779,-3.5421,-3.5791,-3.5807,-3.575,-3.5708,-3.5699,-3.5646,-3.5565,-3.5527,-3.5514,-3.5474,-3.5405,-3.5357,-3.4561,-3.3115,-3.2918,-3.2803,0.0,0.0,0.0,0.0,-3.4103,-3.4371,-3.2593,0.0,-3.2307,-3.1576,0.0,0.0,0.0,0.0,0.0,0.0,0.0,0.0,-2.9239,-2.879,-2.8967,-3.0584,-2.9655,-2.9829,-3.2274,-3.2904,-3.353,-3.4452,-3.5331,-3.6043,-3.6593,-3.7416,-3.781,-3.7667,-3.781,-3.7968,-3.8085,-3.8302,-3.8525,-3.8807,-3.8881,-3.8979,-3.9115,-3.9077,-3.8242,-3.6801,-3.6832,-3.5956,-3.4506,-3.4561,-3.4612,-3.4612,-3.4676,-3.4747,-3.4798,-3.4897,-3.4927,-3.4927,-3.4936,-3.502,-3.5119,-3.5124,-3.5239,-3.5438,-3.5562,-3.5607,-3.5634,-3.5761,-3.5803,-3.5825,-3.5887,-3.5901,-3.5892,-3.5903,-3.5948,-3.6005,-3.6005,-3.6001,-3.5994,-3.5994,-3.5995,-3.5999,-3.5991,-3.5993,-3.5975,-3.5878,-3.5859,-3.5544,-3.4659,-3.4456,-3.4407,-3.4449,-3.4443,-3.4812,-3.5672,-3.5781,-3.5799,-3.5799,-3.5793,-3.5757,-3.5693,-3.5635,-3.5602,-3.5585,-3.5534,-3.5463,-3.5405,-3.5379,-3.5246,-3.4971,-3.4086,-3.3641,0.0,0.0,0.0,0.0,0.0,0.0,-3.3258,0.0,-3.1929,0.0,0.0,0.0,0.0,0.0,0.0,0.0,-2.842,0.0,0.0,0.0,-2.7699,0.0,0.0,0.0,-3.0885,-3.1665,-3.2552,-3.3732,-3.4163,-3.504,-3.6603,-3.7034,-3.7431,-3.781,-3.7916,-3.8002,-3.8101,-3.8302,-3.8525,-3.8807,-3.8881,-3.8979,-3.9082,-3.8645,-3.7849,-3.677,-3.6366,-3.5518,-3.445,-3.4473,-3.4506,-3.4539,-3.4561,-3.4666,-3.4798,-3.4877,-3.4907,-3.4908,-3.4908,-3.4936,-3.5011,-3.507,-3.5219,-3.5369,-3.5496,-3.5575,-3.5621,-3.5723,-3.577,-3.5817,-3.583,-3.5872,-3.5908,-3.5891,-3.5919,-3.5958,-3.5984,-3.5995,-3.6006,-3.5991,-3.5992,-3.5995,-3.6001,-3.6006,-3.5992,-3.5994,-3.5996,-3.5879,-3.5506,-3.5013,-3.4889,-3.5356,-3.4967,-3.5006,-3.5834,-3.5449,-3.5154,-3.511,-3.5076,-3.5014,-3.4947,-3.5364,-3.5608,-3.5598,-3.5528,-3.5502,-3.546,-3.5372,-3.5335,-3.5285,-3.4838,-3.4575,-3.5119,0.0,0.0,0.0,0.0,0.0,0.0,0.0,0.0,0.0,0.0,0.0,0.0,0.0,0.0,0.0,0.0,-2.8017,0.0,-2.6962,0.0,0.0,0.0,0.0,0.0,-3.0806,-3.1651,-3.2736,-3.2984,-3.3888,-3.5679,-3.6219,-3.6815,-3.7557,-3.7859,-3.8052,-3.8153,-3.8318,-3.8528,-3.8762,-3.8866,-3.8964,-3.9055,-3.8251,-3.7493,-3.6726,-3.5951,-3.513,-3.4363,-3.4386,-3.4439,-3.4473,-3.4495,-3.4612,-3.4758,-3.4848,-3.4869,-3.4908,-3.4908,-3.4908,-3.4917,-3.5053,-3.5163,-3.5266,-3.5442,-3.5509,-3.5552,-3.5648,-3.5708,-3.5757,-3.5783,-3.583,-3.5872,-3.5895,-3.5903,-3.5907,-3.5955,-3.5988,-3.5999,-3.6007,-3.6009,-3.6009,-3.5992,-3.6,-3.6007,-3.5993,-3.5994,-3.5995,-3.5996,-3.5447,-3.5308,-3.5935,-3.5438,-3.529,-3.5885,-3.5385,-3.4896,-3.4583,-3.431,-3.4126,-3.4081,-3.4847,-3.5266,-3.5244,-3.5438,-3.5515,-3.55,-3.5405,-3.535,-3.5308,-3.5234,-3.517,0.0,0.0,0.0,-3.3895,0.0,0.0,0.0,0.0,-3.2588,0.0,0.0,0.0,0.0,0.0,0.0,0.0,0.0,0.0,0.0,0.0,0.0,0.0,0.0,0.0,0.0,-3.0882,-3.1261,0.0,-3.1965,-3.2582,-3.3188,-3.4763,-3.5986,-3.673,-3.7571,-3.8104,-3.829,-3.8368,-3.8496,-3.8707,-3.8837,-3.8939,-3.8974,-3.8238,-3.7448,-3.6662,-3.5926,-3.5106,-3.4305,-3.4363,-3.4386,-3.4416,-3.4473,-3.4539,-3.4623,-3.4758,-3.484,-3.4908,-3.4908,-3.4908,-3.4917,-3.5053,-3.5105,-3.5138,-3.5342,-3.5393,-3.5429,-3.5571,-3.5606,-3.564,-3.5769,-3.5795,-3.583,-3.5872,-3.5908,-3.5892,-3.5892,-3.5951,-3.6007,-3.5999,-3.6001,-3.6002,-3.5991,-3.6,-3.6006,-3.5991,-3.5993,-3.5995,-3.5996,-3.5976,-3.5976,-3.5996,-3.5974,-3.5971,-3.5991,-3.5901,-3.5471,-3.4567,-3.3705,-3.3244,-3.3238,-3.4003,-3.442,-3.4351,-3.5167,-3.556,-3.55,-3.55,-3.542,-3.5308,-3.522,-3.5155,0.0,0.0,-3.4105,-3.4309,0.0,0.0,0.0,0.0,0.0,0.0,0.0,0.0,0.0,0.0,0.0,0.0,0.0,0.0,0.0,0.0,0.0,0.0,0.0,0.0,0.0,0.0,0.0,0.0,-3.0579,0.0,-3.3211,-3.384,-3.4997,-3.6842,-3.7183,-3.7631,-3.8224,-3.8289,-3.8401,-3.8556,-3.815,-3.8058,-3.816,-3.683,-3.6109,-3.5863,-3.5021,-3.4512,-3.4233,-3.4257,-3.4293,-3.434,-3.4416,-3.4506,-3.4612,-3.4697,-3.4809,-3.4907,-3.4898,-3.4908,-3.4898,-3.5001,-3.5054,-3.5126,-3.5285,-3.5327,-3.536,-3.5509,-3.5571,-3.5618,-3.5664,-3.5732,-3.5818,-3.5834,-3.5872,-3.5905,-3.5906,-3.5924,-3.5958,-3.5988,-3.5995,-3.6001,-3.6004,-3.6007,-3.5995,-3.6005,-3.6008,-3.5991,-3.5995,-3.5995,-3.5996,-3.5996,-3.5996,-3.5995,-3.5991,-3.5415,-3.4659,-3.3766,-3.3398,-3.3182,-3.3132,-3.3393,-3.3787,-3.4289,-3.4594,-3.4988,-3.5509,-3.5455,-3.5412,-3.5364,-3.5297,-3.5237,-3.5173,-3.4353,0.0,-3.4024,-3.3822,0.0,-3.4571,0.0,-3.2851,0.0,0.0,0.0,0.0,0.0,0.0,0.0,0.0,0.0,0.0,-2.8427,0.0,0.0,0.0,0.0,0.0,0.0,0.0,0.0,0.0,0.0,0.0,-3.2799,-3.3939,-3.6041,-3.6417,-3.6816,-3.7341,-3.7437,-3.753,-3.7603,-3.7279,-3.7172,-3.7258,-3.5993,-3.5415,-3.5416,-3.4569,-3.4197,-3.4197,-3.4197,-3.4221,-3.4269,-3.4328,-3.442,-3.4539,-3.4655,-3.4778,-3.4897,-3.4888,-3.4898,-3.4917,-3.4983,-3.502,-3.5092,-3.5196,-3.5218,-3.5254,-3.5393,-3.5463,-3.5522,-3.5568,-3.5664,-3.5722,-3.5765,-3.5826,-3.5868,-3.5859,-3.5878,-3.5916,-3.5981,-3.5984,-3.5968,-3.5997,-3.5997,-3.6002,-3.6002,-3.6004,-3.6007,-3.5993,-3.5994,-3.5995,-3.5996,-3.5996,-3.5996,-3.5992,-3.5168,-3.4382,-3.3797,-3.3122,-3.2717,-3.2687,-3.2658,-3.2879,-3.3363,-3.3687,-3.4082,-3.4584,-3.4532,-3.4517,-3.4522,-3.4755,-3.4841]},{"header":{"parameterUnit":"m.s-1","parameterCategory":1,"la1":30.6,"la2":29.2853,"lo1":-89.7004,"lo2":-87.6739,"dy":0.0162,"dx":0.0183,"nx":112,"ny":82,"refTime":"2024-04-19T00:00:00:Z","depth":0,"parameterNumber":3,"parameterNumberName":"V-component_of_WINDS"},"data":[0.0,0.0,0.0,0.0,0.0,0.0,0.0,0.0,0.0,0.0,0.0,0.0,0.0,0.0,0.0,0.0,0.0,0.0,0.0,0.0,0.0,0.0,0.0,0.0,0.0,0.0,0.0,0.0,0.0,0.0,0.0,0.0,0.0,0.0,0.0,0.0,0.0,0.0,0.0,0.0,0.0,0.0,0.0,0.0,0.0,0.0,0.0,0.0,0.0,0.0,0.0,0.0,0.0,0.0,0.0,0.0,0.0,0.0,0.0,0.0,0.0,0.0,0.0,0.0,0.0,0.0,0.0,0.0,0.0,0.0,0.0,0.0,0.0,0.0,0.0,0.0,0.0,0.0,0.0,0.0,0.0,0.0,0.0,0.0,0.0,0.0,0.0,0.0,0.0,0.0,-1.2226,-1.2373,-1.3139,-1.3826,-1.436,-1.5239,-1.5706,-1.5687,0.0,0.0,0.0,0.0,0.0,0.0,0.0,0.0,0.0,0.0,0.0,0.0,0.0,0.0,0.0,0.0,0.0,0.0,0.0,0.0,0.0,0.0,0.0,0.0,0.0,0.0,0.0,0.0,0.0,0.0,0.0,0.0,0.0,0.0,0.0,0.0,0.0,0.0,0.0,0.0,0.0,0.0,0.0,0.0,0.0,0.0,0.0,0.0,0.0,0.0,0.0,0.0,0.0,0.0,0.0,0.0,0.0,0.0,0.0,0.0,0.0,0.0,0.0,0.0,0.0,0.0,0.0,0.0,0.0,0.0,0.0,0.0,0.0,0.0,0.0,0.0,0.0,0.0,0.0,0.0,0.0,0.0,0.0,0.0,0.0,0.0,0.0,0.0,0.0,0.0,0.0,0.0,0.0,0.0,0.0,0.0,0.0,0.0,0.0,0.0,0.0,0.0,0.0,0.0,-1.2847,-1.3567,-1.4021,-1.4466,-1.4921,-1.4954,-1.5293,-1.6069,0.0,0.0,0.0,0.0,0.0,0.0,0.0,0.0,0.0,0.0,0.0,0.0,0.0,0.0,0.0,0.0,0.0,0.0,0.0,0.0,0.0,0.0,0.0,0.0,0.0,0.0,0.0,0.0,0.0,0.0,0.0,0.0,0.0,0.0,0.0,0.0,0.0,0.0,0.0,0.0,0.0,0.0,0.0,0.0,0.0,0.0,0.0,0.0,0.0,0.0,0.0,0.0,0.0,0.0,0.0,0.0,0.0,0.0,0.0,0.0,0.0,0.0,0.0,0.0,0.0,0.0,0.0,0.0,0.0,0.0,0.0,0.0,0.0,0.0,0.0,0.0,0.0,0.0,0.0,0.0,0.0,0.0,0.0,0.0,0.0,0.0,0.0,0.0,0.0,0.0,0.0,0.0,0.0,0.0,0.0,0.0,0.0,0.0,0.0,0.0,0.0,0.0,0.0,-1.3221,-1.3807,-1.448,-1.4669,-1.5079,-1.5915,-1.5769,-1.5957,-1.6854,-1.6637,0.0,0.0,0.0,0.0,0.0,0.0,0.0,0.0,0.0,0.0,0.0,0.0,0.0,0.0,0.0,0.0,0.0,0.0,0.0,0.0,0.0,0.0,0.0,0.0,0.0,0.0,0.0,0.0,0.0,0.0,0.0,0.0,0.0,0.0,0.0,0.0,0.0,0.0,0.0,0.0,0.0,0.0,0.0,0.0,0.0,0.0,0.0,0.0,0.0,0.0,0.0,0.0,0.0,0.0,0.0,0.0,0.0,0.0,0.0,0.0,0.0,0.0,0.0,0.0,0.0,0.0,0.0,0.0,0.0,0.0,0.0,0.0,0.0,0.0,0.0,0.0,0.0,0.0,0.0,0.0,0.0,0.0,0.0,0.0,0.0,0.0,0.0,0.0,0.0,0.0,0.0,0.0,0.0,0.0,0.0,0.0,0.0,0.0,0.0,0.0,0.0,0.0,-1.4244,-1.4722,-1.5248,-1.536,-1.5776,-1.6716,-1.6557,-1.678,-1.7517,-1.7052,0.0,0.0,0.0,0.0,0.0,0.0,0.0,0.0,0.0,0.0,0.0,0.0,0.0,0.0,0.0,0.0,0.0,0.0,0.0,0.0,0.0,0.0,0.0,0.0,0.0,0.0,0.0,0.0,0.0,0.0,0.0,0.0,0.0,0.0,0.0,0.0,0.0,0.0,0.0,0.0,0.0,0.0,0.0,0.0,0.0,0.0,0.0,0.0,0.0,0.0,0.0,0.0,0.0,0.0,0.0,0.0,0.0,0.0,0.0,0.0,0.0,0.0,0.0,0.0,0.0,0.0,0.0,0.0,0.0,0.0,0.0,0.0,0.0,0.0,0.0,0.0,0.0,0.0,0.0,0.0,0.0,0.0,0.0,0.0,0.0,0.0,0.0,0.0,0.0,0.0,0.0,0.0,0.0,0.0,0.0,0.0,0.0,0.0,0.0,0.0,0.0,0.0,-1.513,-1.5365,-1.5821,-1.6067,-1.6436,-1.7012,-1.6941,-1.7104,-1.7735,-1.72,0.0,0.0,0.0,0.0,0.0,0.0,0.0,0.0,0.0,0.0,0.0,0.0,0.0,0.0,0.0,0.0,0.0,0.0,0.0,0.0,0.0,0.0,0.0,0.0,0.0,0.0,0.0,0.0,0.0,0.0,0.0,0.0,0.0,0.0,0.0,0.0,0.0,0.0,0.0,0.0,0.0,0.0,0.0,0.0,0.0,0.0,0.0,0.0,0.0,0.0,0.0,0.0,0.0,0.0,0.0,0.0,0.0,0.0,0.0,0.0,0.0,0.0,0.0,0.0,0.0,0.0,0.0,0.0,0.0,0.0,0.0,0.0,0.0,0.0,0.0,0.0,0.0,0.0,0.0,0.0,0.0,0.0,0.0,0.0,0.0,0.0,0.0,0.0,0.0,0.0,0.0,0.0,0.0,0.0,0.0,0.0,0.0,0.0,0.0,0.0,0.0,0.0,-1.5325,-1.5888,0.0,-1.6678,-1.7159,-1.7856,-1.7687,-1.7741,-1.8286,0.0,0.0,0.0,0.0,0.0,0.0,0.0,0.0,0.0,0.0,0.0,0.0,0.0,0.0,0.0,0.0,0.0,0.0,0.0,0.0,0.0,0.0,0.0,0.0,0.0,0.0,0.0,0.0,0.0,0.0,0.0,0.0,0.0,0.0,0.0,0.0,0.0,0.0,0.0,0.0,0.0,0.0,0.0,0.0,0.0,0.0,0.0,0.0,0.0,0.0,0.0,0.0,0.0,0.0,0.0,0.0,0.0,0.0,0.0,0.0,0.0,0.0,0.0,0.0,0.0,0.0,0.0,0.0,0.0,0.0,0.0,0.0,0.0,0.0,0.0,0.0,0.0,0.0,0.0,0.0,0.0,0.0,0.0,0.0,0.0,0.0,0.0,0.0,0.0,0.0,0.0,0.0,0.0,0.0,0.0,0.0,0.0,0.0,0.0,0.0,0.0,0.0,-1.5167,-1.5758,-1.6364,0.0,-1.7279,-1.7733,-1.8513,-1.8131,-1.8104,-1.8705,0.0,0.0,0.0,0.0,0.0,0.0,0.0,0.0,0.0,0.0,0.0,0.0,0.0,0.0,0.0,0.0,0.0,0.0,0.0,0.0,0.0,0.0,0.0,0.0,0.0,0.0,0.0,0.0,0.0,0.0,0.0,0.0,0.0,0.0,0.0,0.0,0.0,0.0,0.0,0.0,0.0,0.0,0.0,0.0,0.0,0.0,0.0,0.0,0.0,0.0,0.0,0.0,0.0,0.0,0.0,0.0,0.0,0.0,0.0,0.0,0.0,0.0,0.0,0.0,0.0,0.0,0.0,0.0,0.0,0.0,0.0,0.0,0.0,0.0,0.0,0.0,0.0,0.0,0.0,0.0,0.0,0.0,0.0,0.0,0.0,0.0,0.0,0.0,0.0,0.0,0.0,0.0,0.0,0.0,0.0,0.0,0.0,0.0,0.0,0.0,0.0,0.0,-1.6086,-1.6518,-1.689,-1.747,-1.7785,-1.8255,-1.884,-1.818,-1.805,0.0,0.0,0.0,0.0,0.0,0.0,0.0,0.0,0.0,0.0,0.0,0.0,0.0,0.0,0.0,0.0,0.0,0.0,0.0,0.0,0.0,0.0,0.0,0.0,0.0,0.0,0.0,0.0,0.0,0.0,0.0,0.0,0.0,0.0,0.0,0.0,0.0,0.0,0.0,0.0,0.0,0.0,0.0,0.0,0.0,0.0,0.0,0.0,0.0,0.0,0.0,0.0,0.0,0.0,0.0,0.0,0.0,0.0,0.0,0.0,0.0,0.0,0.0,0.0,0.0,0.0,0.0,0.0,0.0,0.0,0.0,0.0,0.0,0.0,0.0,0.0,0.0,0.0,0.0,0.0,0.0,0.0,0.0,0.0,0.0,0.0,0.0,0.0,0.0,0.0,0.0,0.0,0.0,0.0,0.0,0.0,0.0,0.0,0.0,0.0,0.0,0.0,0.0,-1.5805,-1.6672,-1.7407,-1.7754,-1.8302,-1.8676,-1.8796,-1.8402,-1.8256,-1.8543,0.0,0.0,0.0,0.0,0.0,0.0,0.0,0.0,0.0,0.0,0.0,0.0,0.0,0.0,0.0,0.0,0.0,0.0,0.0,0.0,0.0,0.0,0.0,0.0,0.0,0.0,0.0,0.0,0.0,0.0,0.0,0.0,0.0,0.0,0.0,0.0,0.0,0.0,0.0,0.0,0.0,0.0,0.0,0.0,0.0,0.0,0.0,0.0,0.0,0.0,0.0,0.0,0.0,0.0,0.0,0.0,0.0,0.0,0.0,0.0,0.0,0.0,0.0,0.0,0.0,0.0,0.0,0.0,0.0,0.0,0.0,0.0,0.0,0.0,0.0,0.0,0.0,0.0,0.0,0.0,0.0,0.0,0.0,0.0,0.0,0.0,0.0,0.0,0.0,0.0,0.0,0.0,0.0,0.0,0.0,0.0,0.0,0.0,0.0,0.0,0.0,0.0,-1.594,-1.698,-1.7761,-1.8016,-1.8636,-1.9043,-1.9001,-1.8562,-1.8379,-1.8566,0.0,0.0,0.0,0.0,0.0,0.0,0.0,0.0,0.0,0.0,0.0,0.0,0.0,0.0,0.0,0.0,0.0,0.0,0.0,0.0,0.0,0.0,0.0,0.0,0.0,0.0,0.0,0.0,0.0,0.0,0.0,0.0,0.0,0.0,0.0,0.0,0.0,0.0,0.0,0.0,0.0,0.0,0.0,0.0,0.0,0.0,0.0,0.0,0.0,0.0,0.0,0.0,0.0,0.0,0.0,0.0,0.0,0.0,0.0,0.0,0.0,0.0,0.0,0.0,0.0,0.0,0.0,0.0,0.0,0.0,0.0,0.0,0.0,0.0,0.0,0.0,0.0,0.0,0.0,0.0,0.0,0.0,0.0,0.0,0.0,0.0,0.0,0.0,0.0,0.0,0.0,0.0,0.0,0.0,0.0,0.0,0.0,0.0,0.0,0.0,0.0,0.0,-1.6287,-1.7319,-1.8016,-1.8249,-1.8884,-1.925,-1.9191,-1.8642,-1.8446,-1.8813,0.0,0.0,0.0,0.0,0.0,0.0,0.0,0.0,0.0,0.0,0.0,0.0,0.0,0.0,0.0,0.0,0.0,0.0,0.0,0.0,0.0,0.0,0.0,0.0,0.0,0.0,0.0,0.0,0.0,0.0,0.0,0.0,0.0,0.0,0.0,0.0,0.0,0.0,0.0,0.0,0.0,0.0,0.0,0.0,0.0,0.0,0.0,0.0,0.0,0.0,0.0,0.0,0.0,0.0,0.0,0.0,0.0,0.0,0.0,0.0,-0.4467,0.0,0.0,0.0,0.0,0.0,0.0,0.0,0.0,0.0,0.0,0.0,0.0,0.0,0.0,0.0,0.0,0.0,0.0,0.0,0.0,0.0,0.0,0.0,0.0,0.0,0.0,0.0,0.0,0.0,0.0,0.0,0.0,0.0,0.0,0.0,0.0,0.0,0.0,0.0,0.0,0.0,-1.636,-1.7454,-1.8256,-1.8299,-1.8884,-1.9067,-1.8555,-1.8379,-1.8301,-1.8278,-1.8348,0.0,0.0,0.0,0.0,0.0,0.0,0.0,0.0,0.0,0.0,0.0,0.0,0.0,0.0,0.0,0.0,0.0,0.0,0.0,0.0,0.0,0.0,0.0,0.0,0.0,0.0,0.0,0.0,0.0,0.0,0.0,0.0,0.0,0.0,0.0,0.0,0.0,0.0,0.0,0.0,0.0,0.0,0.0,0.0,0.0,0.0,0.0,0.0,0.0,0.0,0.0,0.0,0.0,0.0,0.0,0.0,0.0,0.0,0.0,0.0,-0.4041,0.0,0.0,0.0,0.0,0.0,0.0,0.0,0.0,0.0,0.0,0.0,0.0,0.0,0.0,0.0,0.0,0.0,0.0,0.0,0.0,0.0,0.0,0.0,0.0,0.0,0.0,0.0,0.0,0.0,0.0,0.0,0.0,0.0,0.0,0.0,0.0,0.0,0.0,0.0,0.0,-1.6721,-1.7644,-1.8364,-1.8518,-1.8979,-1.9074,-1.8577,-1.85,-1.8443,-1.8361,-1.8418,0.0,0.0,0.0,0.0,0.0,0.0,0.0,0.0,0.0,0.0,0.0,0.0,0.0,0.0,0.0,0.0,0.0,0.0,0.0,0.0,0.0,0.0,0.0,0.0,0.0,0.0,0.0,0.0,0.0,0.0,0.0,0.0,0.0,0.0,0.0,0.0,0.0,0.0,0.0,0.0,0.0,0.0,0.0,0.0,0.0,0.0,0.0,0.0,0.0,0.0,0.0,0.0,0.0,-0.1198,-0.1419,-0.1758,-0.1843,-0.2109,-0.2597,-0.3109,-0.3602,-0.4053,-0.4221,0.0,0.0,0.0,0.0,0.0,0.0,0.0,0.0,0.0,0.0,0.0,0.0,0.0,0.0,0.0,0.0,0.0,0.0,0.0,0.0,0.0,0.0,-0.9866,-1.0366,-1.1056,-1.1486,-1.1178,0.0,0.0,0.0,0.0,0.0,0.0,0.0,0.0,0.0,0.0,0.0,-1.6974,-1.7765,-1.8401,-1.8672,-1.8994,-1.9111,-1.8788,-1.8671,-1.8589,-1.8577,-1.8543,-1.8544,0.0,0.0,0.0,0.0,0.0,0.0,0.0,0.0,0.0,0.0,0.0,0.0,0.0,0.0,0.0,0.0,0.0,0.0,0.0,0.0,0.0,0.0,0.0,0.0,0.0,0.0,0.0,0.0,0.0,0.0,0.0,0.0,0.27,0.2402,0.0,0.0,0.0,0.0,0.0,0.0,0.0,0.0,0.0,0.0,0.0,0.0,0.0,-0.0535,-0.0759,-0.0877,-0.0894,-0.0851,-0.1019,-0.1287,-0.1566,-0.1946,-0.2422,-0.2867,-0.2939,0.0,-0.3072,-0.4019,0.0,0.0,0.0,0.0,0.0,0.0,0.0,0.0,0.0,0.0,0.0,0.0,0.0,0.0,0.0,0.0,0.0,0.0,0.0,0.0,0.0,0.0,-1.0149,-1.0984,-1.1148,-1.1239,-1.1755,-1.2112,-1.2458,-1.2911,-1.3724,-1.4321,0.0,0.0,0.0,0.0,0.0,0.0,-1.6477,-1.7578,-1.8321,-1.8364,-1.8657,-1.8824,-1.8706,-1.8428,-1.8339,-1.852,-1.8504,-1.8765,-1.9401,-1.9401,0.0,0.0,0.0,0.0,0.0,0.0,0.0,0.0,0.0,0.0,0.0,0.0,0.0,0.0,0.0,0.0,0.0,0.0,0.0,0.0,0.0,0.0,0.0,0.0,0.0,0.0,0.0,0.0,0.0,0.3238,0.2797,0.2748,0.2367,0.2156,0.0,0.0,0.0,0.0,0.0,0.0,0.0,0.0,0.0,0.0497,-0.0092,-0.0511,-0.0696,-0.0898,-0.1049,-0.1192,-0.1134,-0.1318,-0.1742,-0.196,-0.2275,-0.2736,-0.2876,-0.3095,-0.3386,-0.3931,-0.4132,-0.422,0.0,0.0,0.0,0.0,-0.6498,-0.6396,-0.6891,-0.6968,-0.6904,-0.7186,0.0,0.0,0.0,0.0,0.0,0.0,0.0,-0.9116,0.0,0.0,-1.0691,-1.1235,-1.1669,-1.2038,-1.2208,-1.2507,-1.2842,-1.3068,-1.3987,-1.4798,-1.5062,0.0,0.0,0.0,0.0,-1.6818,-1.6865,-1.756,-1.8101,-1.8284,-1.843,-1.8436,-1.8211,-1.8201,-1.8223,-1.8257,-1.8288,-1.8604,-1.9342,-1.9055,-1.8844,0.0,0.0,0.0,0.0,0.0,0.0,0.0,0.0,0.0,0.0,0.0,0.0,0.0,0.0,0.0,0.0,0.0,0.0,0.0,0.0,0.0,0.0,0.0,0.0,0.0,0.0,0.0,0.0,0.3444,0.3141,0.3158,0.2762,0.2448,0.0,0.0,0.0,0.0,0.0,0.0,0.1594,0.1156,0.0939,0.1096,0.0335,-0.0192,-0.0432,-0.0772,-0.1065,-0.1307,-0.1204,-0.1345,-0.173,-0.1768,-0.205,-0.2526,-0.2716,-0.3146,-0.3708,-0.3853,-0.4201,-0.4687,-0.5158,-0.5418,-0.5664,-0.6172,-0.6327,-0.6325,-0.6814,-0.6927,-0.6881,-0.7286,-0.7381,-0.7497,-0.8228,0.0,0.0,0.0,0.0,-0.9525,-1.0899,-1.1146,-1.1176,-1.1653,-1.2194,-1.2625,-1.2671,-1.2934,-1.3159,0.0,-1.4155,-1.5044,-1.5366,0.0,0.0,0.0,0.0,-1.7128,-1.7086,-1.752,-1.7911,-1.8152,-1.8174,-1.8079,-1.7941,-1.8085,-1.8172,-1.8202,-1.8272,-1.855,-1.9188,-1.8755,-1.8543,-1.8608,0.0,0.0,0.0,0.0,0.0,0.0,0.0,0.0,0.0,0.0,0.0,0.0,0.0,0.0,0.0,0.0,0.0,0.0,0.0,0.0,0.0,0.0,0.0,0.0,0.0,0.0,0.0,0.0,0.0,0.3609,0.3493,0.0,0.0,0.0,0.0,0.251,0.2089,0.1852,0.1902,0.1428,0.1286,0.1574,0.102,0.0588,0.0343,-0.015,-0.0554,-0.0856,-0.1088,-0.1225,-0.1225,-0.1443,-0.1812,-0.2337,-0.2337,-0.2766,-0.3472,-0.3816,-0.415,-0.4464,-0.4728,-0.4912,-0.509,-0.5581,-0.5894,-0.6118,-0.6163,-0.6561,-0.7051,-0.6881,-0.7319,-0.7973,-0.8679,-0.889,0.0,0.0,-0.973,-1.0024,-1.0801,-1.1146,-1.1533,-1.2489,-1.2426,-1.2396,-1.3275,-1.3292,-1.3263,0.0,-1.4349,-1.5009,-1.4727,0.0,-1.6325,-1.5744,-1.6375,-1.6819,-1.6567,-1.7294,-1.7823,-1.7838,-1.7838,-1.7934,-1.8174,-1.8112,-1.8202,-1.8481,-1.8651,-1.892,-1.9188,-1.9171,-1.9121,-1.8977,-1.9238,0.0,0.0,0.0,0.0,0.0,0.0,0.0,0.0,0.0,0.0,0.0,0.0,0.0,0.0,0.0,0.0,0.0,0.0,0.0,0.0,0.0,0.0,0.0,0.0,0.0,0.0,0.0,0.0,0.46,0.4401,0.0,0.344,0.3367,0.3173,0.2661,0.2344,0.2185,0.2234,0.1721,0.1584,0.1832,0.1345,0.085,0.04,0.0201,-0.0202,-0.0808,-0.0903,-0.105,-0.12,-0.144,-0.1881,-0.2375,-0.2375,-0.282,-0.3557,-0.3678,-0.3875,-0.4112,-0.469,-0.508,-0.5352,-0.5752,-0.5915,-0.5977,-0.6162,-0.6418,-0.6757,-0.7258,-0.776,-0.818,-0.869,-0.9089,-0.9415,-0.9722,-0.9992,-1.0338,-1.102,-1.1381,-1.1671,-1.2186,-1.2398,-1.2658,-1.2972,-1.3231,-1.3469,-1.372,-1.4571,-1.5303,-1.5345,-1.6171,-1.6772,-1.6512,-1.686,-1.7072,-1.6854,-1.7229,-1.7501,-1.7501,-1.7501,-1.7508,-1.7603,-1.7742,-1.791,-1.8108,-1.8249,-1.8586,-1.9044,-1.8975,-1.8957,-1.9072,-1.9179,-1.9097,0.0,0.0,0.0,0.0,0.0,0.0,0.0,0.0,0.0,0.0,0.0,0.0,0.0,0.0,0.0,0.0,0.0,0.0,0.0,0.0,0.0,0.0,0.0,0.0,0.0,0.0,0.5782,0.561,0.5188,0.4608,0.3933,0.3644,0.3346,0.2888,0.2596,0.2426,0.2426,0.1956,0.1819,0.1971,0.1566,0.1162,0.0808,0.0606,0.0202,-0.0404,-0.0657,-0.0909,-0.1061,-0.1415,-0.1868,-0.2422,-0.2422,-0.2826,-0.3481,-0.3632,-0.3726,-0.3923,-0.451,-0.5071,-0.5494,-0.5801,-0.5918,-0.6031,-0.6304,-0.6472,-0.6666,-0.7626,-0.8024,-0.8265,-0.8874,-0.9317,-0.9655,-1.0044,-1.0291,-1.0639,-1.1156,-1.1569,-1.1864,-1.2194,-1.255,-1.2915,-1.3233,-1.3425,-1.3636,-1.407,-1.4825,-1.5439,-1.5547,-1.6312,-1.6831,-1.6744,-1.7019,-1.7153,-1.7026,-1.7246,-1.7426,-1.7426,-1.752,-1.7613,-1.7707,-1.7841,-1.7964,-1.8147,-1.8389,-1.8667,-1.8941,-1.9056,-1.9047,-1.9007,-1.8956,-1.8832,-1.8612,0.0,0.0,0.0,0.0,0.0,0.0,0.0,0.0,0.0,0.0,0.0,0.0,0.0,0.0,0.0,0.0,0.0,0.0,0.0,0.0,0.0,0.0,0.0,0.7416,0.6759,0.6407,0.6626,0.5809,0.5064,0.4635,0.3998,0.3457,0.3147,0.2897,0.2674,0.2422,0.2171,0.2022,0.2022,0.1768,0.1617,0.1566,0.1061,0.0707,0.0404,-0.0404,-0.0758,-0.0808,-0.1364,-0.1868,-0.2371,-0.2371,-0.2674,-0.323,-0.3636,-0.3803,-0.3854,-0.4202,-0.4754,-0.5426,-0.5607,-0.5875,-0.6156,-0.6548,-0.6725,-0.6954,-0.7795,-0.8113,-0.8291,-0.9285,-0.9597,-0.9768,-1.0431,-1.0782,-1.0991,-1.1287,-1.1679,-1.2127,-1.2662,-1.2813,-1.305,-1.401,-1.3823,-1.3732,-1.4496,-1.5064,-1.5302,-1.5131,-1.5927,-1.6494,-1.6265,-1.665,0.0,-1.7026,-1.7441,-1.7721,-1.7721,-1.7947,-1.8226,-1.8496,-1.8374,-1.8401,-1.8625,-1.9123,-1.9222,-1.8817,-1.938,-1.9441,-1.8835,-1.8684,-1.8549,-1.8393,0.0,0.0,0.0,0.0,0.0,0.0,0.0,0.0,0.0,0.0,0.0,0.0,0.0,0.0,0.0,0.0,0.0,0.0,0.0,0.0,0.0,0.8842,0.8887,0.8556,0.8031,0.7595,0.7361,0.6746,0.5914,0.4864,0.441,0.3877,0.3207,0.2918,0.2775,0.2674,0.2272,0.2022,0.2022,0.1921,0.1718,0.1314,0.1364,0.1061,0.0404,0.0,-0.0303,-0.0505,-0.1061,-0.1515,-0.1818,-0.2119,-0.2472,-0.2876,-0.323,-0.3555,-0.3871,-0.4446,-0.4923,-0.5307,-0.5699,-0.5944,-0.6119,-0.6339,-0.6526,-0.6842,-0.7506,-0.7945,-0.8389,-0.9165,-0.9813,-1.0394,-1.0698,-1.136,-1.201,-1.209,-1.2178,-1.2322,-1.2467,-1.2516,-1.2565,-1.2851,-1.305,-1.3346,-1.3732,-1.44,-1.4927,-1.5083,-1.5601,-1.6211,-1.6697,-1.6885,0.0,-1.7721,-1.79,-1.7994,-1.7994,-1.804,-1.8226,-1.8496,-1.8594,-1.88,-1.9168,-1.9535,-1.9653,-1.9441,-1.9888,-1.9874,-1.9299,-1.9329,-1.9073,0.0,0.0,0.0,0.0,0.0,0.0,0.0,0.0,0.0,0.0,0.0,0.0,0.0,0.0,0.0,0.0,0.0,0.0,0.0,0.0,0.0,0.0,0.9737,0.9769,0.9458,0.8739,0.8234,0.8117,0.7488,0.6597,0.5441,0.4957,0.4321,0.3472,0.3189,0.2986,0.286,0.2554,0.2291,0.2172,0.2071,0.1869,0.1516,0.1364,0.101,0.0556,0.0051,-0.0253,-0.0404,-0.0859,-0.1263,-0.1617,-0.1868,-0.2322,-0.2927,-0.313,-0.3422,0.0,0.0,0.0,0.0,0.0,-0.601,-0.6131,-0.6394,-0.6655,-0.6988,-0.7529,-0.7967,-0.8416,-0.9132,-0.9754,-1.0321,-1.0722,-1.1351,-1.1905,-1.1891,-1.1975,-1.2073,-1.2073,-1.2224,-1.2419,-1.2516,-1.2807,-1.3195,-1.3431,-1.4058,0.0,-1.4885,-1.5594,-1.6305,-1.6737,-1.712,-1.7488,-1.804,-1.8187,-1.828,-1.828,-1.8319,-1.855,-1.892,-1.8921,0.0,0.0,0.0,-2.0002,-1.9982,-2.0052,0.0,0.0,0.0,-1.9277,-1.8812,-1.9042,0.0,0.0,-1.9237,-1.9649,0.0,0.0,0.0,0.0,0.0,0.0,0.0,0.0,0.0,0.0,0.0,0.0,0.0,0.0,0.0,0.0,1.0603,1.0412,1.0047,0.9191,0.8649,0.8779,0.8066,0.7142,0.612,0.5527,0.481,0.3799,0.3584,0.3325,0.296,0.0,0.0,0.0,0.0,0.2022,0.2022,0.1263,0.0859,0.0808,0.0101,-0.0303,-0.0354,-0.0657,-0.101,-0.1465,-0.1566,-0.2171,-0.313,-0.313,-0.334,-0.3663,-0.3835,-0.4524,-0.5403,-0.5766,-0.5989,-0.61,-0.6543,0.0,0.0,-0.766,-0.7973,-0.8378,-0.9095,-0.9525,-0.9895,-1.0556,-1.1047,-1.134,-1.1243,-1.1438,-1.1634,-1.159,-1.198,-1.237,-1.2565,-1.2807,-1.3093,-1.342,-1.3859,-1.4298,-1.455,-1.5635,-1.6487,-1.6636,-1.72,-1.7768,-1.8087,-1.8381,-1.8527,-1.8527,0.0,0.0,-1.9487,-1.9229,-1.9218,-1.9671,-1.9981,-2.0237,-2.0448,-2.0077,-1.9731,-1.9321,-1.9371,-1.9281,-1.9082,-1.9231,-1.9566,-1.9987,-2.0389,-2.1012,0.0,0.0,0.0,0.0,0.0,0.0,0.0,0.0,0.0,0.0,0.0,0.0,0.0,0.0,0.0,1.091,1.0812,1.0565,1.0064,0.9796,0.9427,0.8889,0.8217,0.7376,0.6274,0.6138,0.5519,0.3973,0.3985,0.38,0.327,0.2967,0.2785,0.2725,0.2273,0.2022,0.2022,0.1617,0.1212,0.0808,0.0,0.0,-0.0101,-0.0404,-0.0606,-0.0758,-0.1364,-0.1969,-0.2573,-0.2725,-0.3166,-0.3786,-0.4053,-0.4554,-0.5174,-0.5351,-0.5564,-0.5847,-0.6345,-0.6816,-0.7167,-0.7485,-0.7944,-0.8439,-0.878,-0.9567,0.0,-1.0449,-1.1292,-1.2078,-1.1634,-1.1731,-1.1878,-1.1639,-1.1683,-1.1829,-1.2078,-1.237,-1.2662,-1.3098,-1.3437,-1.3732,-1.4027,-1.4975,-1.5974,-1.6784,-1.72,-1.7621,-1.8334,-1.8604,-1.8743,-1.8743,-1.8789,-1.892,-1.9242,-1.9222,-1.9364,-1.9827,-2.009,-2.0451,-2.0891,-2.0641,-2.0368,-2.0009,-2.0042,-1.9847,-1.9478,-1.9518,-1.9844,-2.0443,-2.0386,-2.07,0.0,0.0,0.0,0.0,0.0,0.0,0.0,0.0,0.0,0.0,0.0,1.3976,1.3477,0.0,1.2572,1.2086,1.1662,1.1194,1.0654,1.0325,0.9851,0.921,0.8685,0.8027,0.7135,0.6829,0.6143,0.4886,0.4803,0.4548,0.4049,0.3887,0.3699,0.3531,0.3121,0.2752,0.2424,0.2019,0.1515,0.101,0.0859,0.0606,0.0253,0.0101,-0.0253,-0.0657,-0.1061,-0.1716,-0.2573,-0.2826,-0.3343,-0.3919,-0.4025,-0.4294,-0.4746,-0.5224,-0.5468,-0.5626,-0.6265,-0.6689,-0.6993,-0.7288,-0.7631,-0.8088,-0.8482,-0.9175,-0.9821,-0.9969,-1.0654,-1.1345,-1.1047,-1.1194,-1.1389,-1.1243,-1.1389,-1.1634,-1.1785,-1.2127,-1.2467,-1.271,-1.305,-1.3394,-1.3636,-1.4352,-1.5255,-1.6258,-1.7012,-1.7667,-1.8055,-1.8326,-1.8504,-1.8651,-1.8658,-1.8789,-1.9188,-1.9333,-1.9525,-1.9882,-2.0019,-2.0292,-2.0645,-2.069,-2.0474,-1.9998,-2.0108,-1.997,-1.9429,-1.9636,-1.9937,-2.0254,-2.0282,-2.0769,0.0,0.0,0.0,0.0,0.0,0.0,0.0,0.0,1.6885,1.6495,1.5989,1.5519,1.5322,1.449,1.3714,1.3258,1.2608,1.1932,1.1292,1.0806,1.0293,0.9788,0.9265,0.8685,0.8046,0.752,0.6818,0.5898,0.5721,0.5391,0.487,0.479,0.459,0.4305,0.3925,0.343,0.2826,0.232,0.1766,0.1212,0.096,0.0758,0.0505,0.0455,0.0,-0.0657,-0.0859,-0.1615,-0.2674,-0.2977,-0.3473,-0.3955,-0.3942,-0.4084,-0.447,-0.5172,-0.5466,-0.5528,-0.6238,-0.662,-0.6845,-0.7191,-0.7391,-0.7643,-0.8233,-0.8684,-0.9034,-0.943,-0.9821,-1.0167,-1.0216,-1.0462,-1.0659,-1.0659,-1.1047,-1.1443,-1.1487,-1.1878,-1.2273,-1.237,-1.2759,-1.3098,-1.3394,-1.3919,-1.4634,-1.5588,-1.6636,-1.7394,-1.7535,-1.7761,-1.7994,-1.8295,-1.8342,-1.8488,-1.8907,-1.919,-1.9426,-1.9645,-1.9691,-1.9807,-2.0201,-2.0428,-2.0297,-1.9828,-2.0023,-1.9879,-1.9341,-1.9666,-1.9863,-1.9902,-2.0186,-2.0827,1.8382,1.7947,1.8008,1.7838,1.8112,1.8295,0.0,0.0,1.8014,1.7597,1.7415,1.7026,1.6162,1.5531,1.4823,1.3655,1.3044,1.237,1.134,1.1176,1.1005,1.0543,0.9705,0.8944,0.8331,0.8311,0.7729,0.632,0.6376,0.6115,0.5274,0.4869,0.4625,0.4556,0.3924,0.3334,0.2826,0.2522,0.1968,0.1212,0.1111,0.0859,0.0505,0.0202,0.0,-0.0152,-0.1111,-0.1868,-0.2472,-0.2725,-0.3246,-0.3932,-0.3922,-0.4155,-0.4641,-0.5145,-0.5398,-0.5618,-0.6371,-0.6747,-0.6895,-0.7394,-0.7391,-0.7388,-0.8184,-0.8287,-0.8287,-0.9034,-0.9286,-0.9381,-0.9628,-0.9871,-1.0068,-1.0068,-1.0511,-1.0949,-1.1194,-1.1487,-1.1829,-1.2322,-1.2613,-1.291,-1.3098,-1.3769,-1.4586,-1.5343,-1.5778,-1.6258,-1.6979,-1.7099,-1.7286,-1.7721,-1.7776,-1.788,-1.8029,-1.8269,-1.8546,-1.8832,-1.8832,-1.9151,-1.992,-1.9973,-1.9941,-1.9786,-1.982,-1.9754,-1.9557,-1.9597,-1.9715,-1.9902,-2.0186,-2.0643,2.0031,1.9393,1.9098,1.9161,1.9105,1.908,1.9274,1.9167,1.9187,1.9569,1.9048,1.837,1.8131,1.7069,1.6048,0.0,1.4238,1.3236,1.262,1.2113,1.1605,1.1045,1.0326,0.967,0.913,0.8604,0.7993,0.7104,0.7009,0.6658,0.5966,0.578,0.5548,0.5281,0.4883,0.4333,0.3734,0.3179,0.2523,0.1917,0.1566,0.1212,0.0859,0.0455,-0.0051,-0.0657,-0.1314,-0.1919,-0.2422,-0.2674,-0.3164,-0.3736,-0.3839,-0.4096,-0.4504,-0.5179,-0.5451,-0.5594,-0.6292,-0.6548,-0.6639,-0.6995,-0.7045,-0.7092,-0.7743,-0.7942,-0.8088,-0.8584,-0.8935,-0.9232,-0.9335,-0.9677,-1.0019,-1.0019,-1.0413,-1.085,-1.1145,-1.1389,-1.178,-1.2322,-1.2362,-1.2464,-1.2846,-1.318,-1.3696,-1.444,-1.5098,-1.573,-1.6258,-1.6581,-1.7012,-1.7628,-1.7688,-1.769,-1.7869,-1.8041,-1.8274,-1.8685,-1.9015,-1.9422,-1.9874,-1.9816,-1.9806,-1.9786,-1.9463,-1.9283,-1.924,-1.9359,-1.9469,-1.9539,-1.9902,-2.0282,2.1097,2.0582,2.0182,2.0133,1.9944,1.985,2.0344,2.0148,2.0043,2.0784,2.0067,1.9391,1.9425,1.8218,1.7109,1.6663,1.5345,1.4143,1.3561,1.2802,1.2082,1.1507,1.0835,1.0188,0.9758,0.8922,0.8235,0.7799,0.7507,0.7132,0.6693,0.6476,0.6192,0.5904,0.5567,0.5008,0.4388,0.3734,0.3026,0.2169,0.1716,0.1313,0.1061,0.0505,-0.0252,-0.1053,-0.1361,-0.1813,-0.2305,-0.2568,-0.3019,-0.3501,-0.3697,-0.4006,-0.4328,-0.5008,-0.5366,-0.5601,-0.6197,-0.6387,-0.6437,-0.6692,-0.6742,-0.6792,-0.7344,-0.7643,-0.7839,-0.8187,-0.8634,-0.9034,-0.9183,-0.948,-0.9772,-0.9871,-1.0216,-1.0645,-1.0835,-1.1113,-1.1453,-1.1986,-1.1946,-1.1953,-1.2404,-1.2596,-1.2896,-1.352,-1.4346,-1.5117,-1.5629,-1.6204,-1.6824,-1.7347,-1.7551,-1.7637,-1.7689,-1.7861,-1.8139,-1.8454,-1.8921,-1.9323,-1.9641,-1.9521,-1.9488,-1.9534,-1.9118,-1.8909,-1.8922,-1.9112,-1.9271,-1.9301,-1.9666,-1.999,2.1441,2.1457,2.1497,2.0929,2.0825,2.085,2.0862,2.0688,2.0498,2.0531,2.0241,1.9842,1.9409,1.8627,1.7753,1.6756,1.5963,1.4992,1.3668,1.2964,1.2385,1.1827,1.089,1.0237,0.0,0.9328,0.8705,0.8319,0.783,0.7546,0.7399,0.665,0.6218,0.6213,0.5549,0.4893,0.4288,0.4085,0.3176,0.1613,0.126,0.111,0.1061,0.0,-0.06,-0.0836,-0.1102,-0.15,-0.2018,-0.2304,-0.2695,-0.3143,-0.3387,-0.3783,-0.4241,-0.4528,-0.5017,-0.5601,-0.6197,-0.6387,-0.6437,-0.6692,-0.6639,-0.6537,-0.7039,-0.7238,-0.7338,-0.7839,-0.8187,-0.8531,-0.9084,-0.9236,-0.9286,-0.9529,-0.9821,-1.0021,-1.0132,-1.0332,-1.0667,-1.1239,-1.134,-1.1389,-1.1669,-1.2122,-1.2503,-1.2778,-1.3297,-1.4102,-1.5365,-1.6157,-1.6636,-1.6636,-1.7286,-1.7579,-1.7258,-1.7636,-1.7906,-1.7906,-1.8037,-1.8409,-1.9018,-1.8914,-1.8846,-1.8922,-1.8904,-1.8836,-1.87,-1.8922,-1.9112,-1.9301,-1.9518,-1.9872,2.2764,2.2418,2.1997,2.1765,2.1228,2.0771,2.1063,2.0727,2.0554,2.1198,2.0686,2.0147,2.0394,1.9418,1.8458,1.8171,1.6924,1.5752,1.5178,1.4436,1.3621,1.2683,1.1893,0.0,0.0,0.0,0.0,0.8381,0.8072,0.7645,0.7157,0.6796,0.6502,0.6348,0.5909,0.5589,0.534,0.479,0.4036,0.3029,0.1615,0.0909,0.0859,-0.0051,-0.045,-0.054,-0.0988,-0.1383,-0.1769,-0.2222,-0.2564,-0.289,-0.3289,-0.3613,-0.3923,-0.4388,-0.4735,-0.5108,-0.5729,-0.6109,-0.6325,-0.6423,-0.6423,-0.6388,-0.6816,-0.6942,-0.7042,-0.7593,-0.7942,-0.8237,-0.8779,-0.8928,-0.9027,-0.948,-0.9677,-0.9825,-1.0031,-1.0323,-1.0657,-1.1182,-1.103,-1.1071,-1.176,-1.1791,-1.2042,-1.2948,-1.3773,-1.4582,-1.533,-1.5825,-1.6211,-1.6581,-1.6779,-1.689,-1.6948,-1.7221,-1.7491,-1.7572,-1.7976,-1.8294,-1.8461,-1.8487,-1.8524,-1.8721,-1.8594,-1.8533,-1.8482,-1.8692,-1.8851,-1.8922,-1.9359,-1.9754,2.3075,2.2702,2.2294,2.2028,2.1481,2.1025,2.1071,2.0727,2.0518,2.0938,2.0545,2.0209,2.0492,1.9607,1.8738,1.8651,1.7261,1.6077,1.5747,1.4915,1.4038,1.3247,1.2438,1.1543,0.0,0.0,0.0,0.8539,0.8177,0.7805,0.7337,0.7015,0.6795,0.6639,0.6242,0.5992,0.5789,0.514,0.4338,0.3433,0.1768,0.0859,0.0606,-0.0201,-0.0495,-0.0437,-0.0972,-0.1312,-0.1508,-0.1908,-0.2305,-0.2593,-0.3072,-0.3437,-0.3743,-0.4127,-0.4501,-0.4868,-0.5477,-0.5847,-0.6104,-0.6203,-0.6281,-0.6333,-0.6555,-0.6708,-0.6895,-0.7344,-0.7739,-0.8088,-0.8528,-0.8726,-0.8924,-0.9331,-0.948,-0.9563,-0.9893,-1.0121,-1.0382,-1.0828,-1.0772,-1.0805,-1.1394,-1.1639,-1.2066,-1.2928,-1.3927,-1.4682,-1.5112,-1.554,-1.5967,-1.6386,-1.66,-1.6713,-1.6812,-1.7168,-1.7348,-1.727,-1.783,-1.814,-1.8094,-1.8146,-1.8235,-1.8391,-1.8282,-1.8322,-1.8402,-1.8612,-1.874,-1.8812,-1.928,-1.9597,2.2454,2.2451,2.247,2.173,2.1655,2.1607,2.1057,2.0709,2.0353,1.9748,1.983,1.9987,0.0,0.0,1.8673,1.8195,1.7087,1.6072,1.5513,1.4627,1.3874,0.0,0.0,0.0,0.0,0.0,0.0,0.8816,0.0,0.7999,0.7935,0.7365,0.6998,0.6998,0.6598,0.6145,0.5636,0.5085,0.4131,0.2826,0.1767,0.101,0.0454,-0.0347,-0.0584,-0.0382,-0.0955,-0.1194,-0.1196,-0.146,-0.1862,-0.2345,-0.2828,-0.329,-0.3731,-0.3841,-0.4268,-0.4859,-0.5469,-0.5693,-0.574,-0.6028,-0.6154,-0.63,-0.6314,-0.6544,-0.6833,-0.7138,-0.7587,-0.8038,-0.8333,-0.8581,-0.8829,-0.9133,-0.9187,-0.929,-0.9695,-0.9804,-0.9886,-1.0253,-1.0431,-1.0591,-1.0612,-1.165,-1.2535,-1.2717,-1.3602,-1.4316,-1.464,-1.5296,-1.5846,-1.6123,-1.6601,-1.6901,-1.6857,-1.7281,-1.7407,-1.7108,-1.7573,-1.7853,-1.7878,-1.7942,-1.7951,-1.8,-1.8,-1.8161,-1.8402,-1.8612,-1.8812,-1.9002,-1.9222,-1.9429,2.2924,2.2509,2.2148,2.2291,2.172,2.1125,2.1212,2.04,1.9712,2.0006,1.9465,1.9242,2.0086,0.0,0.0,1.8463,1.7853,0.0,1.619,1.5669,0.0,1.4446,0.0,1.2466,1.1606,1.0808,0.0,0.0,0.8872,0.84,0.7992,0.7612,0.7194,0.6845,0.6542,0.6342,0.6195,0.5039,0.4183,0.3681,0.2623,0.2018,0.1866,0.0653,0.0248,0.0439,-0.0487,-0.0926,-0.0925,-0.1351,-0.1826,-0.2253,-0.2818,-0.3267,-0.3659,-0.3819,-0.4139,-0.4484,-0.4901,-0.5305,-0.5676,-0.5858,-0.5969,-0.6032,-0.6262,-0.6339,-0.6527,-0.7062,-0.7288,-0.7537,-0.8233,-0.8283,-0.8386,-0.9034,-0.9031,-0.9064,-0.9615,-0.9711,-0.9793,-1.0085,-1.0371,-1.0572,-1.0656,-1.1363,-1.1969,-1.2238,-1.2774,-1.3572,-1.459,-1.4845,-1.4992,-1.5259,-1.5762,-1.61,-1.6246,-1.6677,-1.6932,-1.6935,-1.709,-1.7219,-1.7286,-1.7441,-1.7635,-1.7781,-1.8112,-1.8313,-1.8402,-1.8612,-1.8812,-1.9002,-1.9222,-1.9429,2.2683,2.2257,2.1889,2.206,2.1659,2.1122,2.101,2.0245,1.9562,1.9637,1.9153,1.8888,1.9575,1.9043,1.8387,0.0,0.0,0.0,1.6041,1.5619,1.5195,0.0,1.3862,0.0,1.2272,1.1476,1.0698,0.0,0.9272,0.8733,0.8287,0.7895,0.76,0.7347,0.6739,0.6237,0.5942,0.4987,0.4334,0.3982,0.3026,0.2522,0.237,0.1301,0.0794,0.0736,0.0,-0.0577,-0.0823,-0.1187,-0.1608,-0.2142,-0.261,-0.3075,-0.3495,-0.378,-0.4078,-0.4357,-0.4682,-0.4993,-0.5322,-0.5691,-0.5927,-0.6089,-0.6276,-0.6304,-0.6454,-0.6921,-0.7,-0.715,-0.7789,-0.7791,-0.7841,-0.8523,-0.8616,-0.8712,-0.92,-0.9397,-0.9584,-0.9923,-1.0173,-1.0388,-1.0774,-1.1297,-1.1787,-1.206,-1.249,-1.3066,-1.3778,-1.4019,-1.4335,-1.478,-1.5224,-1.5653,-1.5929,-1.6395,-1.6635,-1.6553,-1.6815,-1.7061,-1.7229,-1.7424,-1.7627,-1.7829,-1.8072,-1.8322,-1.8531,-1.8652,-1.8851,-1.9112,-1.9271,-1.9341,2.2214,2.1894,2.1709,2.1571,2.1505,2.1293,2.0764,2.0154,1.9549,1.9066,1.877,1.8631,1.8724,1.8298,1.7825,1.7461,0.0,1.63,1.5703,1.5183,1.4844,1.4784,1.401,1.3315,1.2817,1.2256,1.1452,1.0429,0.9638,0.9031,0.8634,0.8247,0.8002,0.8005,0.6942,0.6134,0.5534,0.5133,0.4634,0.4133,0.3379,0.2875,0.2571,0.1836,0.1279,0.0882,0.0379,-0.0188,-0.0761,-0.098,-0.1403,-0.1896,-0.2366,-0.2854,-0.3308,-0.3657,-0.3989,-0.4314,-0.4589,-0.4761,-0.4915,-0.5469,-0.5899,-0.6222,-0.6219,-0.6287,-0.6369,-0.6688,-0.6761,-0.6819,-0.7253,-0.7308,-0.7402,-0.7875,-0.8157,-0.8346,-0.8661,-0.8943,-0.9257,-0.9691,-0.9855,-1.0133,-1.078,-1.1251,-1.165,-1.1965,-1.2322,-1.2592,-1.2592,-1.3125,-1.3781,-1.4398,-1.4894,-1.5339,-1.5741,-1.6232,-1.6408,-1.6144,-1.6689,-1.7139,-1.7392,-1.7587,-1.7789,-1.8,-1.8,-1.8201,-1.8652,-1.8607,-1.8811,-1.9189,-1.918,-1.918,2.2138,2.1717,2.1406,2.1749,2.1421,2.0968,2.0862,1.9947,0.0,1.8798,1.8151,1.7805,1.8349,1.8262,1.8036,1.798,1.8025,1.7647,1.6253,1.6031,1.5772,0.0,1.4065,1.3371,1.3212,1.2359,0.0,0.0,0.9899,0.9316,0.8775,0.8276,0.7988,0.8005,0.6942,0.6337,0.6237,0.5734,0.5286,0.4989,0.4388,0.3984,0.3679,0.2916,0.2142,0.1423,0.0682,0.0,-0.0524,-0.0933,-0.1298,-0.1625,-0.2092,-0.2569,-0.3018,-0.3232,-0.3587,-0.4002,-0.4175,-0.4482,-0.4903,-0.5381,-0.5586,-0.5691,-0.592,-0.598,-0.6062,-0.6445,-0.6652,-0.6875,-0.7155,-0.7375,-0.7597,-0.7926,-0.8016,-0.8149,-0.8396,-0.8617,-0.8806,-0.8985,-0.9296,-0.9772,-1.0333,-1.0658,-1.1011,-1.1364,-1.1489,-1.156,-1.156,-1.2528,-1.332,-1.3661,-1.4226,-1.4747,-1.5217,-1.5804,-1.6231,-1.6319,-1.6607,-1.6943,-1.7392,-1.7432,-1.7635,-1.7991,-1.8,-1.8161,-1.8442,-1.8127,-1.8165,-1.8554,-1.8574,-1.8643,2.1883,2.1578,2.1332,2.1271,2.0811,2.0312,1.9998,0.0,0.0,1.8236,1.7745,1.7511,1.7943,1.7735,0.0,1.7841,1.7802,1.7377,1.6361,1.5984,1.5658,1.518,1.4207,1.3574,1.3414,1.2714,1.1805,1.0741,1.0371,0.9912,0.9236,0.8425,0.7982,0.8005,0.7241,0.6686,0.6387,0.5989,0.5589,0.519,0.4788,0.4384,0.3982,0.3432,0.2712,0.1791,0.1134,0.0486,-0.0238,-0.084,-0.1195,-0.1319,-0.1802,-0.2288,-0.2735,-0.2957,-0.3406,-0.3914,-0.4036,-0.4296,-0.4666,-0.5037,-0.5349,-0.5624,-0.5764,-0.5903,-0.6057,-0.6255,-0.6321,-0.6409,-0.6777,-0.6912,-0.7086,-0.7447,-0.7724,-0.8,-0.8136,-0.8404,-0.8652,-0.8694,-0.9087,-0.9588,-1.0183,-1.0511,-1.0819,-1.1219,-1.1305,-1.1305,-1.1305,-1.2016,-1.2693,-1.3201,-1.3724,-1.4321,-1.5048,-1.5714,-1.6128,-1.6245,-1.636,-1.6581,-1.6911,-1.6771,-1.6861,-1.7254,-1.7254,-1.7449,-1.7791,-1.7578,-1.7652,-1.8004,-1.8053,-1.8228,2.1768,2.1584,2.131,2.0722,2.0255,1.9745,1.9161,1.8629,1.8135,1.7718,1.7408,1.7305,1.7482,1.7303,1.7241,0.0,1.7444,1.7012,1.6285,1.5954,1.5591,0.0,1.4493,0.0,1.3601,1.3098,0.0,1.0964,1.0667,1.0265,0.9648,0.8581,0.7982,0.7998,0.7543,0.7039,0.6587,0.6239,0.5839,0.529,0.5037,0.4576,0.4059,0.3762,0.3103,0.2141,0.1522,0.0869,0.0095,-0.0745,-0.1051,-0.1076,-0.1525,-0.1974,-0.2378,-0.2645,-0.3138,-0.373,-0.3924,-0.4131,-0.4316,-0.4593,-0.5069,-0.5521,-0.5592,-0.5771,-0.5961,-0.601,-0.5985,-0.6048,-0.6412,-0.6466,-0.6609,-0.7007,-0.7408,-0.7764,-0.7812,-0.8168,-0.8476,-0.8596,-0.899,-0.9519,-1.012,-1.0511,-1.0819,-1.1176,-1.1267,-1.1305,-1.1305,-1.1613,-1.2118,-1.279,-1.3428,-1.411,-1.4957,-1.5631,-1.6046,-1.6087,-1.6163,-1.6285,-1.6491,-1.623,-1.6226,-1.6514,-1.656,-1.675,-1.709,-1.705,-1.7164,-1.7369,-1.7509,-1.7773,2.2353,2.1829,2.1128,2.0722,2.0255,1.9745,1.9161,1.8669,1.8195,1.7563,1.7245,1.7088,1.6985,1.7176,1.7422,1.756,0.0,1.7567,1.6379,1.6567,1.6395,1.5256,0.0,0.0,1.3835,1.3344,1.2609,1.1515,1.0352,0.9657,0.9595,0.8581,0.8024,0.7975,0.7637,0.7341,0.7138,0.6637,0.6087,0.5536,0.5288,0.4845,0.4275,0.398,0.3407,0.2585,0.1627,0.104,0.0,-0.0602,-0.096,-0.0762,-0.1256,-0.1615,-0.1885,-0.2154,-0.2556,-0.3048,-0.3504,-0.3778,-0.4002,-0.4269,-0.4602,-0.494,-0.53,-0.5447,-0.5494,-0.5676,-0.5888,-0.61,-0.6145,-0.6447,-0.6836,-0.7054,-0.7143,-0.7231,-0.7503,-0.7768,-0.8072,-0.8504,-0.899,-0.9432,-0.9951,-1.0381,-1.0776,-1.1008,-1.1181,-1.1305,-1.1305,-1.1354,-1.1645,-1.2363,-1.3421,-1.4272,-1.4692,-1.536,-1.5824,-1.6087,-1.6163,-1.6285,-1.6491,-1.6354,-1.6302,-1.6315,-1.6514,-1.6636,-1.6636,-1.653,-1.6551,-1.6698,-1.6779,-1.6906,2.1896,2.1537,2.1051,2.0333,1.9942,1.9478,1.8603,1.8193,1.7789,1.7098,1.6894,1.6924,1.7122,1.7161,1.7238,1.7567,0.0,0.0,1.673,1.6574,1.6285,1.5602,1.5236,0.0,0.0,0.0,1.2604,1.142,1.0242,0.9608,0.9624,0.9183,0.868,0.8024,0.7885,0.759,0.7188,0.6839,0.6389,0.5839,0.5589,0.5166,0.4583,0.4336,0.3751,0.2909,0.2328,0.1668,0.0,0.0139,-0.032,-0.0583,-0.1031,-0.1345,-0.157,-0.1839,-0.2377,-0.2913,-0.3092,-0.3497,-0.3903,-0.4036,-0.4236,-0.4574,-0.4893,-0.5193,-0.5416,-0.5508,-0.5686,-0.5908,-0.6038,-0.6438,-0.6836,-0.6881,-0.7279,-0.7588,-0.7503,-0.7948,-0.834,-0.8376,-0.8859,-0.9388,-0.9689,-1.0164,-1.0559,-1.0965,-1.1051,-1.1128,-1.1107,-1.1133,-1.1297,-1.1708,-1.2904,-1.3893,-1.4482,-1.5235,-1.5741,-1.5865,-1.5961,-1.5968,-1.5834,-1.5829,-1.5687,-1.5467,-1.5751,-1.5942,-1.5934,-1.6016,-1.6055,-1.6127,-1.627,-1.6499,2.133,2.1094,2.0712,1.9953,1.9487,1.9044,1.8162,1.7743,1.7375,1.6812,1.6689,1.6768,1.7072,1.7141,1.7125,0.0,0.0,1.699,1.671,1.6479,1.6244,1.5967,0.0,1.4927,0.0,1.3335,1.2516,1.1277,1.065,1.0105,0.9645,0.9727,0.9312,0.8255,0.8118,0.7806,0.7318,0.6975,0.6533,0.5992,0.5743,0.5382,0.4863,0.4573,0.4004,0.3325,0.2844,0.2081,0.0,0.0784,0.0228,-0.0444,-0.0666,-0.0978,-0.1334,-0.16,-0.2088,-0.2666,-0.2861,-0.3227,-0.3723,-0.3767,-0.3991,-0.4212,-0.4393,-0.4792,-0.524,-0.5371,-0.5597,-0.5863,-0.6038,-0.6438,-0.6795,-0.6795,-0.7234,-0.7621,-0.753,-0.7998,-0.8368,-0.8309,-0.8782,-0.9262,-0.9476,-0.9856,-1.0206,-1.056,-1.0633,-1.0699,-1.0699,-1.0714,-1.0797,-1.0999,-1.2064,-1.3123,-1.4048,-1.4816,-1.5345,-1.5475,-1.5493,-1.5521,-1.5474,-1.5327,-1.5199,-1.5097,-1.5306,-1.5426,-1.5426,-1.5691,-1.5805,-1.5805,-1.5894,-1.6112,2.0771,2.049,1.998,1.9534,1.8962,1.8404,1.797,1.7482,1.7017,1.6771,1.6689,1.6689,1.6697,1.7098,1.7147,1.6337,0.0,0.0,1.5932,1.6246,1.6487,0.0,0.0,1.5486,1.4752,1.3539,1.2375,1.1297,1.1697,0.0,0.9669,0.9953,0.9743,0.8731,0.8349,0.7993,0.7506,0.7032,0.6514,0.5994,0.5808,0.5467,0.508,0.4623,0.4254,0.3928,0.2958,0.2102,0.0,0.1192,0.0497,-0.0392,-0.013,-0.0435,-0.1045,-0.1304,-0.1695,-0.218,-0.2713,-0.3047,-0.3272,-0.3497,-0.3723,-0.3903,-0.3903,-0.4304,-0.4795,-0.5282,-0.5727,-0.6083,-0.6083,-0.6438,-0.6795,-0.6795,-0.6969,-0.7186,-0.7507,-0.778,-0.8023,-0.8491,-0.878,-0.8999,-0.9262,-0.9486,-0.9606,-0.9606,-0.9851,-0.9999,-0.9999,-0.9999,-1.0116,-1.0384,-1.0945,-1.1875,-1.3305,-1.3966,-1.4488,-1.4867,-1.4784,-1.5018,-1.5674,-1.5014,-1.488,-1.5483,-1.5314,-1.5204,-1.5204,-1.5611,-1.5805,-1.5805,-1.5611,-1.562,2.055,2.0008,1.9223,1.8789,1.8484,1.8235,1.7688,1.7581,1.749,1.6827,1.6755,1.6807,1.6737,1.6835,1.6822,1.6585,1.6857,0.0,0.0,0.0,0.0,1.6487,1.5771,1.5105,0.0,0.0,1.2511,1.1784,1.1575,1.1247,1.0734,1.0359,0.9739,0.8727,0.8542,0.8181,0.7503,0.7029,0.6602,0.6269,0.59,0.5648,0.5516,0.5186,0.4727,0.4246,0.373,0.2995,0.2109,0.1857,0.1266,0.0469,0.0475,0.0043,-0.0596,-0.0851,-0.1317,-0.1875,-0.2221,-0.259,-0.2941,-0.3202,-0.3421,-0.3631,-0.3578,-0.4073,-0.4795,-0.5282,-0.5362,-0.5346,-0.5608,-0.5886,-0.6072,-0.6202,-0.6668,-0.7161,-0.7408,-0.7743,-0.8018,-0.8087,-0.8525,-0.8825,-0.8656,-0.8922,-0.9256,-0.945,-0.9538,-0.965,-0.9776,-0.9682,-0.9597,-0.9632,-1.0078,-1.1105,-1.3035,-1.364,-1.4206,-1.5007,-1.4922,-1.4875,-1.501,-1.4991,-1.5024,-1.5069,-1.5163,-1.5204,-1.5204,-1.5319,-1.539,-1.539,-1.5311,-1.5319,1.9864,1.9457,1.8813,1.8319,1.8134,1.791,1.7483,1.7424,1.7291,1.6778,1.6781,1.6784,1.6737,1.6734,1.6715,1.6541,1.6785,0.0,0.0,0.0,0.0,1.6204,0.0,0.0,0.0,1.363,1.2948,1.2339,1.1873,1.1492,1.1194,1.0738,1.0026,0.9017,0.8779,0.8338,0.7657,0.7148,0.6731,0.6403,0.6043,0.5817,0.5678,0.5444,0.5062,0.4512,0.4227,0.3481,0.0,0.2438,0.1832,0.0927,0.1057,0.0591,-0.0126,-0.0459,-0.0955,-0.15,-0.1917,-0.2318,-0.2662,-0.2875,-0.3132,-0.3338,-0.3374,-0.3896,-0.455,-0.494,-0.498,-0.5012,-0.5267,-0.5549,-0.5779,-0.5948,-0.6367,-0.6823,-0.7154,-0.7404,-0.7563,-0.777,-0.8152,-0.8406,-0.8207,-0.8463,-0.8745,-0.8986,-0.8947,-0.8969,-0.9189,-0.9097,-0.9019,-0.898,-0.9397,-1.0363,-1.2037,-1.2768,-1.3454,-1.4249,-1.428,-1.4401,-1.4667,-1.483,-1.4979,-1.5138,-1.5108,-1.507,-1.4955,-1.507,-1.5106,-1.5106,-1.5169,-1.5169,0.0,1.8743,1.8536,1.814,1.7803,1.7476,1.7281,1.7,0.0,1.6697,1.6713,1.6721,1.6697,1.6766,1.6711,1.6307,1.6581,0.0,0.0,1.6339,0.0,0.0,1.5778,0.0,1.449,1.4016,1.3539,1.2861,1.2429,1.1937,1.1292,1.1067,1.0489,0.9584,0.9058,0.8513,0.7904,0.7363,0.6874,0.6384,0.6213,0.5952,0.5688,0.55,0.5215,0.0,0.4366,0.363,0.2728,0.2917,0.2269,0.1129,0.1559,0.1195,0.0376,-0.0123,-0.0609,-0.1059,-0.1706,-0.2098,-0.2391,-0.2602,-0.281,-0.3014,-0.3303,-0.369,-0.412,-0.4323,-0.4694,-0.502,-0.5061,-0.5385,-0.5753,-0.5921,-0.6007,-0.6214,-0.6829,-0.6798,-0.6891,-0.751,-0.7683,-0.7728,-0.7877,-0.7983,-0.8105,-0.8286,-0.8177,-0.814,-0.8327,-0.8365,-0.8403,-0.8403,-0.8937,-0.9632,-1.054,-1.1575,-1.2401,-1.2957,-1.3172,-1.3651,-1.4486,-1.4387,-1.4683,-1.5413,-1.5061,-1.4756,-1.4569,-1.4756,-1.4828,-1.4864,-1.5026,-1.5034,1.8164,0.0,1.7226,1.7309,1.712,1.6899,0.0,1.7008,1.703,1.658,1.6654,1.6755,1.6531,1.6297,1.6266,1.6752,0.0,1.65,1.6317,1.6335,0.0,1.6828,1.6581,1.6062,1.5201,1.4334,1.3624,1.3206,1.2565,1.2116,1.197,1.1439,1.0879,1.029,0.9811,0.9005,0.7904,0.7363,0.6874,0.6384,0.6213,0.5952,0.5686,0.5547,0.5359,0.5061,0.4518,0.4016,0.3581,0.3167,0.2679,0.2122,0.2061,0.1516,0.0759,0.0476,-0.0079,-0.0755,-0.1099,-0.1518,-0.1928,-0.2295,-0.2509,-0.2673,-0.3072,-0.3476,-0.3867,-0.4118,-0.419,-0.4297,-0.4829,-0.4964,-0.5054,-0.5371,-0.561,-0.585,-0.6363,-0.6487,-0.665,-0.6936,-0.7397,-0.7569,-0.7156,-0.7337,-0.7541,-0.7492,-0.759,-0.7714,-0.7902,-0.8208,-0.8403,-0.8403,-0.8789,-0.9271,-0.9812,-1.1012,-1.206,-1.2864,-1.3013,-1.331,-1.3809,-1.3771,-1.4002,-1.4651,-1.4581,-1.4425,-1.4201,-1.4274,-1.4281,-1.4281,-1.4346,-1.4418,1.7737,1.7466,1.7343,1.7432,1.735,1.7184,1.7026,1.7092,1.7093,1.6647,1.6674,1.6745,1.6556,1.6292,1.6284,1.6718,1.6484,0.0,0.0,0.0,1.6465,1.6714,1.6558,1.6177,0.0,1.4424,1.3661,1.3346,1.2807,1.2414,1.2316,1.1639,1.1048,1.0552,0.9908,0.9117,0.8195,0.7789,0.7255,0.6738,0.6523,0.6219,0.5858,0.5733,0.5561,0.5283,0.4777,0.4382,0.3982,0.3458,0.2997,0.2558,0.2305,0.1795,0.1196,0.0868,0.0393,-0.0118,-0.0518,-0.1041,-0.1602,-0.2081,-0.2261,-0.2316,-0.2708,-0.2996,-0.326,-0.379,-0.3756,-0.3679,-0.4358,-0.4393,-0.4426,-0.4893,-0.509,-0.5341,-0.5835,-0.6011,-0.6195,-0.6584,-0.6965,-0.7107,-0.6899,-0.7038,-0.7161,-0.7196,-0.7296,-0.7446,-0.7633,-0.8021,-0.8255,-0.8255,-0.8718,-0.9099,-0.9322,-1.0226,-1.1236,-1.2145,-1.2512,-1.2914,-1.3413,-1.3579,-1.3848,-1.4245,-1.4181,-1.4072,-1.3964,-1.3964,-1.3992,-1.4093,-1.4093,-1.4201,1.7448,1.7663,1.8146,1.7894,1.7862,1.776,1.7375,1.7201,1.7057,1.6771,1.6779,1.6771,1.6689,1.6525,1.6428,0.0,0.0,0.0,1.6042,1.6097,1.6274,1.6511,1.6462,0.0,1.5425,1.4519,1.3757,1.3383,1.305,1.2748,1.2469,1.1853,1.1256,1.0713,0.9921,0.9233,0.8643,0.8302,0.7766,0.7095,0.6925,0.6615,0.6121,0.599,0.5746,0.5474,0.0,0.0,0.4219,0.3747,0.3249,0.2744,0.2454,0.2069,0.1656,0.1227,0.0864,0.055,-0.0039,-0.0628,-0.1178,-0.1765,-0.1884,-0.1885,-0.2276,-0.2431,-0.2627,-0.3411,-0.3374,-0.3258,-0.3884,-0.3921,-0.3958,-0.4504,-0.4659,-0.4802,-0.5302,-0.5477,-0.5668,-0.6255,-0.6456,-0.6602,-0.671,-0.6826,-0.6907,-0.7026,-0.7103,-0.718,-0.7365,-0.7757,-0.8025,-0.8068,-0.8527,-0.8861,-0.8865,-0.941,-1.0126,-1.1014,-1.1718,-1.2415,-1.3046,-1.3441,-1.3724,-1.3912,-1.3746,-1.3645,-1.3645,-1.3681,-1.3783,-1.3949,-1.3985,-1.4137,1.7623,1.8105,1.8414,1.7689,1.754,1.7553,1.7211,1.727,1.7229,1.6771,1.7025,1.7188,0.0,1.6409,1.6319,0.0,0.0,1.6306,0.0,0.0,1.6675,1.8218,0.0,1.6758,1.5805,1.5003,1.4256,1.3534,1.3195,1.2962,1.2764,1.2209,1.1698,1.1221,1.06,0.9994,0.9358,0.8577,0.7827,0.7095,0.7051,0.6786,0.6337,0.6034,0.5878,0.5809,0.0,0.4871,0.4508,0.4105,0.3565,0.3021,0.2665,0.2369,0.209,0.1849,0.1375,0.0786,0.0157,-0.0118,-0.0275,-0.0707,-0.1098,-0.145,-0.1882,-0.2117,-0.2353,-0.2824,-0.3022,-0.3217,-0.3726,-0.3841,-0.3919,-0.4345,-0.4462,-0.4545,-0.499,-0.5096,-0.5207,-0.5662,-0.608,-0.6296,-0.6096,-0.6367,-0.6602,-0.6451,-0.6567,-0.6753,-0.698,-0.733,-0.7638,-0.7838,-0.8068,-0.823,-0.8249,-0.8792,-0.9263,-0.9584,-1.0689,-1.1632,-1.2415,-1.282,-1.3039,-1.3076,-1.3046,-1.3046,-1.3046,-1.32,-1.3309,-1.3339,-1.3528,-1.3775,1.7011,1.749,1.8005,1.7795,1.8012,1.8085,1.7392,1.7424,1.7308,1.6484,0.0,0.0,0.0,0.0,1.658,1.6495,0.0,1.6066,1.6469,1.6395,1.665,0.0,0.0,1.6758,1.6096,1.5255,1.455,1.3968,1.3673,1.3324,1.2808,1.2337,1.1831,1.1368,1.0728,1.017,0.9783,0.922,0.8512,0.7669,0.7455,0.7143,0.6779,0.6424,0.6147,0.5883,0.0,0.5131,0.4634,0.4307,0.3831,0.3322,0.3036,0.2685,0.2314,0.2004,0.165,0.1218,0.0668,0.0432,0.0236,-0.0275,-0.051,-0.0667,-0.1059,-0.1452,-0.1766,-0.2079,-0.2392,-0.2785,-0.345,-0.3528,-0.353,-0.3958,-0.4153,-0.4309,-0.4618,-0.4929,-0.5201,-0.5401,-0.5789,-0.6022,-0.5789,-0.5906,-0.606,-0.6099,-0.6293,-0.6525,-0.6714,-0.7173,-0.7522,-0.7642,-0.791,-0.8143,-0.8242,-0.8403,-0.8953,-1.004,-1.0859,-1.1558,-1.2268,-1.2562,-1.279,-1.29,-1.29,-1.29,-1.29,-1.3083,-1.32,-1.32,-1.3419,-1.3674,1.6648,1.7013,1.7604,1.7901,1.8345,1.8522,1.7796,1.7694,1.7475,1.6481,0.0,0.0,0.0,1.6814,0.0,1.6211,1.6144,1.6113,1.5806,1.6195,1.6605,1.6998,1.6883,1.6657,1.6237,1.5493,1.4885,1.4496,1.4142,1.3571,1.286,1.2327,1.186,1.1407,1.078,1.0342,1.0081,0.9841,0.922,0.8288,0.7852,0.7499,0.7183,0.6807,0.6408,0.6013,0.588,0.5423,0.4785,0.449,0.4088,0.3626,0.3366,0.3015,0.2571,0.2125,0.1886,0.1689,0.1257,0.1021,0.0746,0.0236,0.0118,0.0079,-0.0275,-0.0668,-0.106,-0.1333,-0.1686,-0.2196,-0.3096,-0.3215,-0.318,-0.3569,-0.3843,-0.4077,-0.4268,-0.4698,-0.5049,-0.5207,-0.5476,-0.567,-0.5556,-0.5559,-0.5637,-0.5825,-0.606,-0.6296,-0.6486,-0.7022,-0.7365,-0.7407,-0.7753,-0.8042,-0.8259,-0.8074,-0.8636,-1.0214,-1.0896,-1.1484,-1.1929,-1.2224,-1.2452,-1.2636,-1.2604,-1.2606,-1.2606,-1.2826,-1.2906,-1.2906,-1.3157,-1.338,1.697,1.7329,1.7624,1.7861,1.8158,1.84,1.828,1.8083,1.78,1.7212,0.0,0.0,0.0,1.7096,1.7106,1.6252,1.6663,1.7067,1.6929,0.0,1.6793,1.7878,1.7301,1.6669,1.6318,1.5954,1.5547,1.5083,1.4311,1.3583,1.2825,1.2299,1.1794,1.1343,1.1077,1.0715,1.0294,1.0052,0.948,0.8548,0.8288,0.7896,0.7459,0.7003,0.6643,0.6369,0.6145,0.5702,0.503,0.4785,0.4338,0.3781,0.3624,0.3329,0.2913,0.2372,0.2157,0.2118,0.1886,0.169,0.1493,0.1257,0.0904,0.051,0.0314,0.0079,-0.0196,-0.0785,-0.1139,-0.161,-0.2589,-0.2982,-0.3102,-0.3141,-0.3491,-0.3882,-0.4077,-0.4157,-0.4353,-0.4898,-0.5049,-0.5121,-0.5282,-0.5479,-0.5598,-0.5637,-0.5789,-0.6022,-0.6296,-0.6679,-0.7019,-0.7219,-0.7407,-0.7643,-0.7838,-0.7668,-0.7919,-0.8796,-1.0109,-1.085,-1.0925,-1.1446,-1.1781,-1.1781,-1.1748,-1.1683,-1.1683,-1.1971,-1.208,-1.208,-1.2422,-1.266,1.6162,1.6507,1.6923,1.7423,1.7351,1.7232,1.7553,1.7617,1.7361,1.6505,1.7136,0.0,0.0,0.0,1.673,1.6492,1.6781,1.692,1.67,1.6951,1.7251,1.7507,1.7139,1.6803,1.6696,1.6067,1.5506,1.5199,1.4774,1.4217,1.345,1.3119,1.2633,1.1989,1.175,1.1357,1.0727,1.0475,0.999,0.9209,0.8679,0.8201,0.7724,0.737,0.7017,0.6653,0.6352,0.5866,0.5282,0.5032,0.4697,0.425,0.3925,0.3616,0.3322,0.277,0.2431,0.2195,0.2119,0.1963,0.1768,0.169,0.1572,0.1375,0.1178,0.0746,0.0314,-0.0039,-0.0785,-0.1687,-0.2589,-0.2865,-0.3022,-0.3452,-0.3567,-0.3722,-0.4192,-0.427,-0.4387,-0.474,-0.4815,-0.4854,-0.4932,-0.4973,-0.5129,-0.5362,-0.5476,-0.567,-0.6022,-0.6322,-0.6599,-0.6795,-0.7142,-0.74,-0.7425,-0.76,-0.7813,-0.8107,-0.8984,-0.9763,-1.0325,-1.0575,-1.0866,-1.1198,-1.13,-1.1353,-1.1353,-1.1655,-1.1874,-1.2017,-1.2255,-1.2526,1.5628,1.5714,1.5876,1.6516,1.6327,1.6168,1.6707,1.7005,1.6931,1.6112,1.6641,1.7204,1.7005,0.0,0.0,0.0,1.71,1.7291,1.6277,1.669,1.7191,1.7386,1.7131,1.6929,1.6929,1.6269,1.5702,1.5449,1.5048,1.4502,1.3949,1.3548,1.3114,1.2625,1.2279,1.1805,1.1111,1.0836,1.0357,0.9602,0.9205,0.8727,0.8116,0.768,0.7258,0.6812,0.6455,0.5993,0.5455,0.5199,0.4882,0.4513,0.4085,0.3794,0.3559,0.3016,0.2668,0.247,0.2353,0.2198,0.2082,0.2004,0.1964,0.1887,0.1729,0.1375,0.0943,0.0589,-0.0196,-0.1137,-0.2157,-0.2628,-0.2904,-0.3372,-0.3411,-0.3526,-0.3995,-0.4109,-0.4229,-0.4543,-0.4545,-0.4545,-0.4582,-0.4659,-0.4776,-0.5087,-0.5247,-0.5413,-0.572,-0.6047,-0.6324,-0.6511,-0.6829,-0.7019,-0.7031,-0.7289,-0.7486,-0.7524,-0.7918,-0.8606,-0.9614,-0.9869,-1.0188,-1.0541,-1.0763,-1.0923,-1.0957,-1.1229,-1.1489,-1.1722,-1.1888,-1.2153,1.5513,1.5094,1.4633,1.5165,1.524,1.5313,1.584,1.6317,1.6527,1.6313,1.6294,1.6234,1.6035,1.6483,0.0,1.5736,1.7664,1.8362,1.5791,1.5835,1.6521,1.7666,1.7324,1.6999,1.6999,1.658,1.6227,1.6027,1.5078,1.4385,1.4117,1.3458,1.3094,1.3003,1.2619,1.2057,1.1327,1.1111,1.0549,0.9602,0.9864,0.9515,0.8592,0.7852,0.7287,0.6886,0.6497,0.6078,0.5666,0.5285,0.4887,0.445,0.4051,0.3831,0.3635,0.3034,0.2943,0.3062,0.2628,0.2511,0.247,0.2275,0.208,0.1887,0.1887,0.1887,0.1768,0.11,0.0746,0.0275,-0.1215,-0.2195,-0.2787,-0.2787,-0.2943,-0.3178,-0.3448,-0.3487,-0.3682,-0.4265,-0.4231,-0.4155,-0.4345,-0.4579,-0.4698,-0.4698,-0.5097,-0.5392,-0.5392,-0.5825,-0.6165,-0.6373,-0.6402,-0.6474,-0.6672,-0.6714,-0.6741,-0.6881,-0.6913,-0.7453,-0.8634,-0.9392,-0.9776,-0.9776,-1.0039,-1.0267,-1.0394,-1.0534,-1.0782,-1.109,-1.1247,-1.1397,1.4513,1.465,1.4718,1.4388,1.4518,1.4754,1.4896,1.5313,0.0,0.0,1.5786,1.5726,1.5948,1.6464,0.0,1.6301,1.6951,1.7196,1.6436,1.6788,1.7141,1.7153,1.7044,1.6943,1.6943,1.6685,1.6427,1.6168,1.5727,1.5375,1.5166,1.4442,1.3942,1.3786,1.3179,1.2534,1.18,1.1413,1.0939,1.0381,1.0125,0.9515,0.8588,0.8379,0.7951,0.7343,0.681,0.6405,0.6079,0.5585,0.5301,0.519,0.4873,0.4502,0.4085,0.3647,0.3335,0.3102,0.2943,0.2826,0.2707,0.2628,0.2472,0.2315,0.2158,0.2119,0.2041,0.169,0.11,0.0471,-0.0118,-0.0862,-0.1727,-0.2747,-0.2943,-0.2981,-0.3368,-0.3333,-0.3374,-0.388,-0.3802,-0.3802,-0.4116,-0.4291,-0.4394,-0.4541,-0.4821,-0.515,-0.5448,-0.5713,-0.5918,-0.6048,-0.606,-0.6163,-0.646,-0.6482,-0.6613,-0.6881,-0.6913,-0.7193,-0.7841,-0.8151,-0.8555,-0.9086,-0.94,-0.9748,-1.0109,-1.0315,-1.0618,-1.109,-1.1153,-1.1373,1.4094,1.4154,1.4203,1.4106,1.4304,1.4532,1.4445,1.4847,0.0,0.0,1.5338,1.5322,1.5327,1.5818,0.0,1.6398,1.6875,1.7211,1.7204,1.7342,1.7372,1.7205,1.7056,1.6998,1.6998,1.693,1.6707,1.6293,1.6159,1.5926,1.5631,1.5014,1.4573,1.4334,1.3695,1.3009,1.2272,1.1714,1.1198,1.0641,1.0381,0.9816,0.8982,0.8623,0.8123,0.7484,0.6919,0.6566,0.6292,0.5915,0.5638,0.5494,0.5202,0.4758,0.425,0.3994,0.3726,0.3493,0.3295,0.3215,0.3137,0.2904,0.2707,0.2589,0.2392,0.2314,0.2275,0.2081,0.1571,0.1021,0.0549,-0.0078,-0.0903,-0.2276,-0.255,-0.2588,-0.3176,-0.3178,-0.3258,-0.3724,-0.3684,-0.3684,-0.3921,-0.4112,-0.4234,-0.4345,-0.4692,-0.5035,-0.5307,-0.5528,-0.5659,-0.5704,-0.5756,-0.5851,-0.605,-0.6218,-0.6416,-0.6613,-0.6683,-0.6811,-0.7068,-0.7466,-0.7927,-0.8349,-0.8894,-0.937,-0.9728,-1.0015,-1.046,-1.0965,-1.1059,-1.131,1.3888,1.3687,1.3398,1.3978,1.4351,1.4558,1.432,1.4638,1.4942,1.4786,0.0,1.4888,1.44,1.4866,1.5548,1.6168,1.7179,1.7924,1.7909,1.754,1.7327,1.7498,1.727,1.7139,1.7139,1.7273,1.7135,1.6547,1.645,1.6242,1.5835,1.5389,1.4999,1.4734,1.4068,1.3434,1.279,1.21,1.1413,1.0722,1.0727,1.0328,0.9614,0.8773,0.8002,0.7381,0.6898,0.6548,0.6294,0.6151,0.5853,0.5462,0.5225,0.4787,0.4243,0.4191,0.4157,0.4077,0.3684,0.3645,0.3684,0.3059,0.2865,0.2787,0.2589,0.2511,0.247,0.2275,0.208,0.1729,0.0943,0.0432,-0.0196,-0.1451,-0.1803,-0.2079,-0.2865,-0.3023,-0.3178,-0.3684,-0.3763,-0.3761,-0.3791,-0.4022,-0.4178,-0.4231,-0.4638,-0.5002,-0.5073,-0.5259,-0.5395,-0.5395,-0.5521,-0.5583,-0.5617,-0.5947,-0.6181,-0.6214,-0.6317,-0.6383,-0.6387,-0.7171,-0.7629,-0.7699,-0.8468,-0.9017,-0.9306,-0.976,-1.0238,-1.0807,-1.0996,-1.1279,1.2725,1.3144,1.35,1.2837,1.3351,1.4064,1.413,1.4157,1.4086,1.3859,1.3842,1.3906,1.4101,1.4989,1.5781,1.61,1.6701,1.7208,1.7344,1.7517,1.7446,1.7004,1.7178,1.7351,1.7351,1.7606,1.761,1.7303,1.713,1.6977,1.668,1.5792,1.5242,1.4999,1.4377,1.3779,1.3264,1.2577,1.2057,1.1671,1.103,1.0426,0.9875,0.9248,0.8325,0.7319,0.6972,0.6636,0.6285,0.6051,0.567,0.5262,0.536,0.5076,0.4577,0.4592,0.4465,0.4309,0.4038,0.3882,0.3763,0.3448,0.3215,0.2982,0.2787,0.2746,0.2707,0.2511,0.2275,0.2041,0.1729,0.1335,0.0786,-0.0196,-0.0942,-0.1609,-0.2235,-0.2392,-0.2627,-0.3409,-0.3565,-0.3583,-0.3631,-0.388,-0.4162,-0.4471,-0.4603,-0.4791,-0.5057,-0.5123,-0.5223,-0.5395,-0.5428,-0.5557,-0.5822,-0.5785,-0.5918,-0.6317,-0.628,-0.628,-0.6387,-0.6745,-0.7101,-0.7526,-0.7824,-0.8468,-0.9454,-0.955,-1.0034,-1.0807,-1.0996,-1.1185,1.2528,1.2904,1.3246,1.2956,1.3081,1.3364,1.3663,1.2968,1.2405,1.2831,1.323,1.3557,1.3768,1.4384,1.5096,1.5659,1.6144,1.6621,1.7002,1.7163,1.7263,1.7246,1.7308,1.7473,1.7676,1.7879,1.7937,1.7623,1.7587,1.7367,1.6841,1.6197,1.5692,1.5242,1.4573,1.4075,1.3737,1.2924,1.2448,1.2192,1.1284,1.0396,0.9508,0.8977,0.8276,0.7438,0.7143,0.6854,0.6536,0.6041,0.5687,0.5508,0.539,0.5076,0.4701,0.4701,0.4621,0.4501,0.4309,0.4192,0.4036,0.3722,0.3413,0.3062,0.2982,0.2826,0.2668,0.2628,0.2431,0.2157,0.1964,0.1611,0.1139,0.0589,-0.0196,-0.1021,-0.1764,-0.2156,-0.2501,-0.3011,-0.335,-0.3554,-0.3544,-0.3781,-0.4052,-0.4389,-0.4528,-0.4658,-0.4824,-0.4987,-0.5156,-0.5256,-0.5326,-0.5462,-0.566,-0.562,-0.5716,-0.5984,-0.605,-0.6115,-0.628,-0.6412,-0.6671,-0.7101,-0.7498,-0.8079,-0.8877,-0.9294,-0.9907,-1.0713,-1.0965,-1.1216,1.2523,1.2636,1.2802,1.3266,1.3052,0.0,1.3259,1.1805,1.0686,1.1689,1.265,1.3317,1.3382,1.3623,1.4134,1.512,1.5562,1.6029,1.6659,1.6709,1.6911,1.7517,1.7495,1.7609,1.8072,1.8191,1.8118,1.7846,1.7829,1.7548,1.6869,1.6607,1.6147,1.5477,1.4859,1.4405,1.4166,1.3264,1.2705,1.2491,1.1499,1.0411,0.9257,0.8895,0.8304,0.7595,0.7277,0.7042,0.6748,0.6098,0.5794,0.5789,0.5405,0.5097,0.4776,0.474,0.474,0.4701,0.4462,0.4423,0.4384,0.4034,0.3608,0.3217,0.3178,0.2863,0.2589,0.2707,0.2511,0.2196,0.2004,0.169,0.1335,0.1021,0.0393,-0.0392,-0.1294,-0.1916,-0.2365,-0.2696,-0.319,-0.3558,-0.3523,-0.3681,-0.3929,-0.4213,-0.4395,-0.4525,-0.4592,-0.4858,-0.502,-0.5087,-0.5259,-0.5362,-0.5425,-0.5521,-0.5583,-0.565,-0.5785,-0.5954,-0.6148,-0.6181,-0.6342,-0.6609,-0.7204,-0.7722,-0.8172,-0.8973,-0.9741,-1.046,-1.0902,-1.1247,1.1863,1.2068,1.2305,1.2426,1.2901,1.3333,0.0,0.0,1.0015,0.0,1.1414,1.2583,1.2907,1.3294,1.3822,1.4597,1.4906,1.5288,1.6021,1.6146,1.6439,1.7108,1.7347,1.7799,1.8545,1.8455,1.8334,1.8322,1.7953,1.7596,1.731,1.6894,1.636,1.5692,1.5249,1.479,1.4356,1.3646,1.3222,1.3009,1.18,1.0966,1.0375,1.0134,0.9133,0.7606,0.7509,0.7021,0.6359,0.6266,0.5961,0.5543,0.5553,0.5416,0.5165,0.4815,0.4818,0.4898,0.454,0.4501,0.4621,0.4384,0.4036,0.3645,0.3448,0.3096,0.2746,0.2589,0.2511,0.2431,0.2196,0.2003,0.1729,0.1335,0.0864,0.0196,-0.0785,-0.1197,-0.1672,-0.2764,-0.3212,-0.3464,-0.3554,-0.3577,-0.3679,-0.4,-0.4061,-0.4195,-0.4558,-0.4625,-0.4791,-0.5054,-0.512,-0.5256,-0.555,-0.5491,-0.5557,-0.5855,-0.5719,-0.5719,-0.5921,-0.6115,-0.6214,-0.628,-0.6642,-0.7232,-0.8019,-0.8554,-0.9192,-0.9939,-1.0737,-1.1122,1.183,1.1815,1.1828,0.0,1.1854,1.1818,1.2464,1.1219,1.0036,1.0517,1.0971,1.1496,1.2224,1.2622,1.3038,1.3704,1.4095,1.4475,1.4963,1.5366,1.5805,1.6423,1.6996,1.7543,1.8149,1.8408,1.8523,1.8402,1.8193,1.787,1.7432,1.7098,1.6607,1.5955,1.5492,1.5026,1.4566,1.4033,1.3355,1.2491,1.194,1.1203,1.025,1.0294,0.9678,0.8521,0.8017,0.7439,0.6864,0.6305,0.5925,0.5714,0.55,0.5359,0.5243,0.4857,0.4818,0.4976,0.4659,0.4621,0.4701,0.4582,0.4231,0.3763,0.3645,0.3255,0.2787,0.2707,0.2589,0.247,0.2235,0.2042,0.1808,0.1533,0.11,0.0589,-0.0079,-0.0655,-0.1389,-0.2552,-0.2917,-0.3112,-0.3489,-0.3524,-0.3598,-0.3961,-0.3995,-0.4095,-0.4398,-0.4528,-0.4688,-0.4863,-0.4975,-0.5145,-0.5413,-0.5379,-0.5417,-0.5598,-0.5524,-0.5554,-0.5719,-0.5918,-0.6083,-0.621,-0.6609,-0.7106,-0.7722,-0.8199,-0.8903,-0.9805,-1.0281,-1.0762,1.1775,0.0,1.1209,1.1389,1.0898,1.0584,0.0,0.0,1.0117,0.0,1.0697,1.0625,1.1329,1.1879,1.2432,1.3046,1.3404,1.3807,1.4321,1.4715,1.5279,1.5978,1.6621,1.7239,1.7886,1.8333,1.8545,1.8482,1.8442,1.8112,1.7505,1.7302,1.6853,1.6203,1.5741,1.5235,1.4692,1.4201,1.3392,1.2357,1.2118,1.1478,1.0516,1.0559,1.0226,0.9568,0.8686,0.7951,0.7318,0.6631,0.6201,0.5914,0.553,0.5359,0.5321,0.4857,0.4818,0.4976,0.4779,0.474,0.4779,0.4779,0.435,0.3882,0.3802,0.3333,0.2787,0.2746,0.2628,0.247,0.2314,0.2119,0.1925,0.1729,0.1335,0.0861,0.0348,-0.0418,-0.1256,-0.2065,-0.2486,-0.282,-0.3159,-0.3328,-0.3529,-0.3894,-0.3961,-0.4028,-0.4267,-0.4431,-0.4577,-0.4703,-0.4824,-0.501,-0.525,-0.5288,-0.5312,-0.5345,-0.5369,-0.5416,-0.551,-0.5778,-0.5954,-0.6115,-0.6613,-0.7007,-0.7293,-0.7809,-0.8522,-0.9358,-0.9799,-1.0338,1.139,1.0923,0.0,1.036,1.0528,1.0628,0.0,0.0,0.9977,1.0286,1.0284,1.0218,1.0293,1.1223,1.2224,1.2826,1.3083,1.3565,1.4448,1.4514,1.4882,1.6157,1.6378,1.6948,1.8231,1.8223,1.8284,1.8674,1.8523,1.8193,1.77,1.7505,1.7066,1.6394,1.594,1.536,1.4692,1.3857,1.3398,1.3307,1.2423,1.1957,1.1866,1.1435,1.1006,1.0464,0.9597,0.8482,0.7328,0.7541,0.7008,0.6051,0.5725,0.5598,0.5521,0.4935,0.4818,0.4976,0.4779,0.4818,0.4979,0.4979,0.4587,0.404,0.3843,0.3333,0.2747,0.255,0.2511,0.2511,0.247,0.2353,0.2118,0.1925,0.1572,0.1047,0.0185,-0.0731,-0.133,-0.1192,-0.2017,-0.2653,-0.2484,-0.2889,-0.336,-0.3758,-0.3825,-0.3928,-0.4267,-0.43,-0.4411,-0.4668,-0.4717,-0.4836,-0.517,-0.5215,-0.5212,-0.5206,-0.5262,-0.5293,-0.5328,-0.5702,-0.5892,-0.5921,-0.6445,-0.6708,-0.6741,-0.7419,-0.7842,-0.8112,-0.9416,-1.0015,0.0,0.0,0.0,1.0159,1.0111,1.0044,1.0229,0.9907,0.9614,1.0037,0.9955,0.9836,0.9981,1.0892,1.1744,1.2077,1.2636,1.3162,1.3645,1.3996,1.4511,1.5312,1.5875,1.6447,1.7003,1.7682,1.8121,1.8114,1.8302,1.8233,1.791,1.7595,1.7147,1.6607,1.6203,1.5533,1.4692,1.4117,1.3616,1.3185,1.2668,1.2112,1.1542,1.1224,1.0858,1.0396,1.0085,0.9353,0.8354,0.7877,0.7362,0.672,0.5928,0.5598,0.5559,0.5054,0.5012,0.5168,0.4976,0.5012,0.5168,0.5054,0.4662,0.427,0.4038,0.3645,0.3175,0.2785,0.2707,0.2668,0.255,0.2353,0.2118,0.1767,0.1375,0.0934,0.0489,-0.0146,-0.0706,-0.104,-0.1598,-0.2116,-0.2519,-0.2753,-0.309,-0.3692,-0.3792,-0.3928,-0.4267,-0.4363,-0.449,-0.4681,-0.4731,-0.4868,-0.5129,-0.5132,-0.517,-0.5195,-0.5328,-0.5445,-0.5445,-0.5828,-0.6015,-0.6015,-0.6344,-0.6613,-0.6843,-0.7199,-0.7652,-0.8139,-0.8619,-0.9314,0.9576,0.0,0.0,0.0,0.9392,0.9283,0.9578,0.0,0.9197,0.9492,0.9533,0.9506,0.9569,1.0337,1.1132,1.1536,1.2201,1.2826,1.3236,1.3811,1.4346,1.4828,1.5544,1.6099,1.6409,1.7173,1.767,1.77,1.8031,0.0,1.7902,1.7668,1.7261,1.673,1.6162,1.5541,1.4824,1.4334,1.3786,1.3185,1.2875,1.2277,1.1542,1.1217,1.0856,1.0403,1.0422,0.9862,0.8955,0.8483,0.7836,0.7103,0.6331,0.5906,0.5634,0.5246,0.5246,0.5362,0.5093,0.5132,0.5282,0.5054,0.474,0.4345,0.4155,0.3802,0.3409,0.3022,0.2865,0.2787,0.2628,0.2392,0.2118,0.1767,0.1415,0.1056,0.0693,0.0223,-0.0251,-0.064,-0.1146,-0.1637,-0.2078,-0.2535,-0.2954,-0.3458,-0.3692,-0.3892,-0.4097,-0.4193,-0.4333,-0.4493,-0.4614,-0.4729,-0.4841,-0.5001,-0.5043,-0.5035,-0.528,-0.5433,-0.548,-0.5797,-0.606,-0.6185,-0.6328,-0.6572,-0.691,-0.7043,-0.733,-0.7782,-0.8074,-0.8967,0.0,0.0,0.0,0.0,0.8318,0.0,0.8396,0.8524,0.8684,0.8682,0.9014,0.9197,0.8932,0.9589,1.0448,1.1222,1.1886,1.2549,1.3382,1.3956,1.4453,1.4828,1.5407,1.6014,1.661,1.669,1.6893,1.7437,1.767,1.7764,1.7723,1.77,1.7375,1.673,1.5858,1.5318,1.5131,1.4461,1.387,1.344,1.2918,1.2454,1.1989,1.1517,1.1059,1.0597,1.0587,1.0007,0.9055,0.9306,0.8556,0.7219,0.7026,0.6521,0.586,0.5476,0.544,0.5559,0.5171,0.5129,0.5282,0.5054,0.474,0.4345,0.4155,0.3841,0.3448,0.3178,0.2982,0.2826,0.2787,0.2511,0.2157,0.1964,0.1729,0.1415,0.0746,0.0308,0.0,0.0,-0.0678,-0.1228,-0.1123,-0.2125,-0.2963,-0.2993,-0.3429,-0.3794,-0.3792,-0.3794,-0.3878,-0.409,-0.4292,-0.438,-0.4404,-0.4779,-0.4898,-0.4701,-0.5012,-0.5261,-0.5395,-0.5678,-0.5975,-0.638,-0.6398,-0.6555,-0.6898,-0.691,-0.6913,-0.6913,-0.7782,-0.8935,0.8861,0.0,0.0,0.0,0.0,0.0,0.8,0.7958,0.7972,0.8203,0.8465,0.8699,0.8866,0.9509,1.0154,1.0614,1.1343,1.2143,1.2938,1.3564,1.4109,1.4605,1.5106,1.5503,1.5791,1.6099,1.6493,0.0,1.7127,1.7361,1.7893,1.7635,1.7221,1.673,1.6203,1.5699,1.5318,1.4783,1.4321,1.3913,1.344,1.2881,1.2277,1.1805,1.123,1.0587,1.046,1.0094,0.9663,0.9637,0.9104,0.8221,0.7735,0.7082,0.6367,0.6051,0.5899,0.5789,0.5521,0.5482,0.5479,0.5285,0.4854,0.4384,0.4345,0.4036,0.3684,0.3448,0.3331,0.3214,0.2904,0.2511,0.2157,0.1964,0.1729,0.1415,0.0746,0.0508,0.0309,-0.0151,-0.0477,-0.0793,-0.1046,-0.1505,-0.2054,-0.2673,-0.3044,-0.3366,-0.3734,-0.3859,-0.3925,-0.4099,-0.422,-0.4355,-0.4411,-0.4621,-0.474,-0.4701,-0.5062,-0.5346,-0.5541,-0.5787,-0.6068,-0.6331,-0.6467,-0.6526,-0.6482,-0.6768,-0.6913,-0.6913,-0.7782,-0.8554,0.0,0.0,0.0,0.787,0.0,0.0,0.7596,0.7525,0.7523,0.0,0.811,0.8287,0.8377,0.8981,0.9534,0.9661,1.0533,1.1521,1.2524,1.3156,1.3746,1.4317,1.4784,1.5141,1.5355,1.5591,1.5933,1.6497,1.6586,1.7004,1.7836,1.7505,1.7188,1.6984,1.6417,1.5914,1.5526,1.4985,1.4447,1.3913,1.3568,1.3009,1.2235,1.1744,1.1252,1.0697,1.0322,1.0089,1.0024,0.9977,0.9512,0.8789,0.8367,0.7725,0.7057,0.6556,0.6363,0.6247,0.575,0.5637,0.5712,0.5479,0.5087,0.4654,0.4654,0.4307,0.3921,0.3802,0.3567,0.3255,0.2904,0.255,0.2275,0.2081,0.1886,0.1572,0.1021,0.0746,0.043,-0.0077,-0.0302,-0.0481,-0.0741,-0.1101,-0.1517,-0.2039,-0.2484,-0.2909,-0.3301,-0.344,-0.358,-0.3788,-0.3996,-0.4096,-0.4081,-0.4438,-0.4659,-0.4582,-0.4961,-0.5304,-0.5476,-0.573,-0.6016,-0.6311,-0.6493,-0.6592,-0.6555,-0.68,-0.6959,-0.704,-0.7619,-0.8166,0.0,0.0,0.0,0.7614,0.7455,0.0,0.7162,0.7124,0.7236,0.7536,0.7784,0.7923,0.7734,0.8289,0.8758,0.8772,0.9679,1.0829,1.1972,1.2738,1.3353,1.3896,1.4478,1.4887,1.5098,1.5133,1.5348,1.5891,1.6136,1.6665,1.7577,1.7253,1.7139,1.7351,1.6533,1.6004,1.5741,1.5068,1.4398,1.3779,1.3525,1.293,1.2069,1.1575,1.1214,1.0893,1.0263,1.0046,1.0159,1.0236,0.9769,0.9041,0.888,0.8417,0.7783,0.7022,0.6868,0.6865,0.6099,0.5867,0.5941,0.575,0.5359,0.5004,0.4965,0.4543,0.4079,0.4079,0.3608,0.31,0.2904,0.2668,0.247,0.2235,0.2042,0.1807,0.1375,0.0943,0.051,0.0157,-0.0116,-0.0266,-0.0266,-0.0783,-0.1203,-0.1242,-0.1836,-0.2374,-0.2641,-0.2834,-0.3071,-0.3369,-0.3627,-0.3717,-0.3632,-0.4255,-0.4582,-0.4423,-0.483,-0.5123,-0.5276,-0.5512,-0.585,-0.6257,-0.6466,-0.6685,-0.6905,-0.6872,-0.7005,-0.7268,-0.7405,-0.7816,0.0,0.0,0.0,0.7395,0.7202,0.0,0.6635,0.6668,0.681,0.6878,0.7074,0.7325,0.7658,0.7885,0.8238,0.8997,0.9526,1.0177,1.1122,1.2208,1.2949,1.3173,1.3836,1.4331,1.4545,1.4641,1.4888,1.5327,1.587,1.6524,1.7196,1.6935,1.6894,1.7139,1.6451,1.6087,1.6004,1.5159,1.4566,1.4272,1.3688,1.3094,1.2534,1.2062,1.1547,1.0956,1.0616,1.0277,0.996,0.997,0.9775,0.9483,0.9514,0.901,0.825,0.7906,0.7638,0.7369,0.7173,0.683,0.6405,0.6167,0.5586,0.4965,0.4813,0.4467,0.4079,0.3921,0.3645,0.3372,0.31,0.2904,0.2668,0.2275,0.2042,0.1807,0.1375,0.1061,0.0786,0.051,0.0196,-0.0078,-0.0078,-0.0311,-0.0576,-0.0861,-0.1305,-0.1797,-0.2375,-0.2638,-0.2947,-0.3427,-0.3525,-0.3602,-0.3762,-0.4027,-0.4272,-0.4384,-0.4639,-0.4947,-0.5282,-0.5333,-0.5565,-0.598,-0.6227,-0.6556,-0.6902,-0.6737,-0.6985,-0.7608,-0.7377,-0.7644,0.0,0.0,0.0,0.7633,0.7413,0.0,0.0,0.6588,0.6592,0.676,0.6894,0.7024,0.7254,0.7541,0.7927,0.8409,0.8985,0.9498,0.9977,1.132,1.2392,1.2756,1.3027,1.3403,1.3911,1.3948,1.4268,1.5078,1.5607,1.6204,1.6878,1.6689,1.6722,1.7098,1.6451,1.6046,1.5914,1.511,1.4482,1.4068,1.3603,1.3094,1.2528,1.2155,1.1685,1.1117,1.0743,1.0406,1.003,0.996,0.9846,0.9744,0.9558,0.9226,0.8789,0.8293,0.7987,0.7753,0.7561,0.7292,0.6984,0.6668,0.6205,0.5705,0.5285,0.474,0.4194,0.3999,0.3724,0.3448,0.3178,0.2943,0.2707,0.2431,0.212,0.1848,0.165,0.1218,0.0864,0.0786,0.051,0.0275,0.0157,0.0079,-0.0117,-0.0494,-0.0795,-0.1158,-0.1687,-0.2152,-0.2544,-0.2832,-0.3134,-0.3368,-0.3379,-0.3622,-0.3802,-0.3876,-0.4307,-0.4657,-0.4851,-0.5126,-0.5553,-0.6099,-0.6219,-0.6451,-0.6745,-0.6738,-0.6976,-0.7438,-0.7381,-0.7621,0.0,0.0,0.0,0.0,0.7938,0.7615,0.0,0.0,0.0,0.6709,0.0,0.0,0.0,0.0,0.0,0.0,0.0,0.0,0.0,1.0335,0.0,1.2128,1.2178,1.2485,1.3223,1.3349,1.3831,1.4866,1.5254,1.575,1.6489,1.6404,1.6517,1.6968,1.6409,1.5955,1.565,1.5026,1.4356,1.3695,1.3483,1.3052,1.2443,1.2194,1.1811,1.1312,1.0897,1.049,1.018,0.9992,0.9884,0.9884,0.9511,0.9322,0.9208,0.8522,0.8255,0.8178,0.7825,0.7676,0.7561,0.7207,0.6826,0.6405,0.5712,0.5049,0.4462,0.4194,0.3882,0.3528,0.3178,0.2982,0.2787,0.255,0.2199,0.1887,0.1887,0.1415,0.0982,0.0982,0.0864,0.0668,0.0393,0.0314,0.0195,-0.0153,-0.0343,-0.0605,-0.0994,-0.1585,-0.2006,-0.2085,-0.2677,-0.3002,-0.2928,-0.3216,-0.3446,-0.3487,-0.4034,-0.4384,-0.4462,-0.501,-0.5553,-0.6145,-0.6222,-0.6335,-0.6602,-0.6753,-0.6953,-0.719,-0.7449,-0.7686,0.0,0.0,0.0,0.0,0.8701,0.8014,0.7975,0.0,0.6573,0.6245,0.0,0.0,0.0,0.0,0.0,0.0,0.0,0.0,0.9044,0.9424,0.9939,1.0643,1.1309,1.1938,1.2551,1.3294,1.3931,1.4359,1.4635,1.516,1.5959,1.6075,1.6245,1.6476,1.6245,1.5873,1.5436,1.4943,1.4356,1.3695,1.3483,1.3137,1.2662,1.2462,1.2058,1.1559,1.1129,1.0651,1.018,0.9992,0.9884,0.9884,0.9657,0.9473,0.9284,0.8984,0.8789,0.8627,0.8589,0.8327,0.7987,0.7787,0.7049,0.6089,0.5315,0.5004,0.481,0.4272,0.4079,0.3884,0.3258,0.3102,0.2982,0.2589,0.2199,0.1887,0.1887,0.1572,0.1257,0.1257,0.1218,0.11,0.0628,0.0432,0.0275,0.0235,-0.0078,-0.0465,-0.0794,-0.1053,-0.1352,-0.173,-0.2182,-0.2511,-0.2534,-0.313,-0.3565,-0.3763,-0.3999,-0.4311,-0.4659,-0.5087,-0.544,-0.5676,-0.5867,-0.6173,-0.6602,-0.6637,-0.6811,-0.7194,-0.7596,-0.796,0.0,0.0,0.0,0.0,0.0,0.0,0.8215,0.0,0.6569,0.0,0.0,0.0,0.0,0.0,0.0,0.0,0.735,0.0,0.0,0.0,0.8733,0.0,0.0,0.0,1.1701,1.2393,1.3069,1.38,1.3933,1.4469,1.549,1.5625,1.584,1.6196,1.5997,1.5741,1.5394,1.4943,1.4356,1.3695,1.3483,1.3137,1.2699,1.2463,1.207,1.1594,1.1249,1.0817,1.0368,1.0293,1.018,1.0067,0.9992,0.9695,0.9284,0.9061,0.8865,0.8703,0.8703,0.8589,0.8365,0.7936,0.7246,0.6475,0.5741,0.5356,0.5046,0.4426,0.4194,0.3962,0.345,0.3217,0.3023,0.2746,0.2354,0.2042,0.1925,0.169,0.1454,0.1335,0.1296,0.1218,0.1021,0.0825,0.055,0.0353,0.0157,-0.0039,-0.031,-0.0688,-0.0952,-0.1042,-0.1527,-0.1911,-0.2152,-0.2362,-0.2651,-0.2956,-0.3532,-0.4105,-0.464,-0.5049,-0.5401,-0.5598,-0.5786,-0.606,-0.6412,-0.6676,-0.6868,-0.7019,-0.7445,-0.7824,1.2696,0.0,0.0,0.0,0.0,0.0,0.0,0.0,0.0,0.0,0.0,0.0,0.0,0.0,0.0,0.0,0.0,0.6791,0.0,0.7288,0.0,0.0,0.0,0.0,0.0,1.1633,1.2269,1.2978,1.3201,1.3778,1.4916,1.5095,1.539,1.5942,1.5779,1.5567,1.5318,1.4901,1.4405,1.3822,1.3525,1.3179,1.2784,1.2475,1.2092,1.1668,1.1335,1.095,1.0588,1.0513,1.0406,1.0293,1.0218,0.9884,0.9435,0.9175,0.8937,0.8703,0.8703,0.8703,0.8585,0.8012,0.7514,0.7015,0.6289,0.5902,0.5512,0.4851,0.4543,0.4311,0.3722,0.345,0.3217,0.2943,0.2589,0.2235,0.2081,0.1847,0.1611,0.1415,0.1375,0.1375,0.1296,0.1061,0.0786,0.0432,0.0353,0.0236,0.0039,-0.0348,-0.0539,-0.0431,-0.0889,-0.1271,-0.1528,-0.1777,-0.2134,-0.2684,-0.3341,-0.3964,-0.4487,-0.4936,-0.531,-0.5582,-0.5732,-0.5983,-0.63,-0.6602,-0.6791,-0.6903,-0.7369,-0.7757,0.0,0.0,0.0,1.2003,0.0,0.0,0.0,0.0,0.7225,0.0,0.0,0.0,0.0,0.0,0.0,0.0,0.0,0.0,0.0,0.0,0.0,0.0,0.0,0.0,0.0,1.1431,1.1922,0.0,1.243,1.3205,1.4088,1.4577,1.5044,1.5591,1.5658,1.5492,1.5131,1.4824,1.4489,1.4088,1.361,1.3313,1.3088,1.2517,1.2168,1.1868,1.1414,1.1027,1.0775,1.0588,1.0513,1.0481,1.0293,1.0067,0.9846,0.9435,0.9051,0.8703,0.8703,0.8703,0.8585,0.8012,0.7783,0.7629,0.683,0.656,0.6367,0.5515,0.5282,0.5049,0.4036,0.3802,0.3647,0.3217,0.2787,0.247,0.247,0.2159,0.1848,0.1611,0.1572,0.1533,0.1335,0.1061,0.0825,0.0628,0.0432,0.0236,0.0039,0.0,-0.0039,-0.0039,-0.0392,-0.0628,-0.0628,-0.1607,-0.2597,-0.3519,-0.3691,-0.3935,-0.4302,-0.4628,-0.5029,-0.5479,-0.557,-0.5831,-0.63,-0.63,-0.6525,-0.6903,-0.7526,-0.7915,0.0,0.0,1.3866,1.3299,0.0,0.0,0.0,0.0,0.0,0.0,0.0,0.0,0.0,0.0,0.0,0.0,0.0,0.0,0.0,0.0,0.0,0.0,0.0,0.0,0.0,0.0,0.0,0.0,1.2007,0.0,1.3629,1.3844,1.4318,1.512,1.5165,1.5204,1.5298,1.5082,1.4741,1.4272,1.3791,1.3291,1.2814,1.2234,1.1863,1.1609,1.1294,1.1089,1.0999,1.0925,1.0812,1.0663,1.0481,1.018,0.9884,0.9582,0.9246,0.8865,0.8742,0.8703,0.8661,0.8322,0.8093,0.7868,0.7219,0.6907,0.6633,0.5902,0.5515,0.5204,0.4735,0.419,0.3765,0.3608,0.3217,0.2826,0.255,0.2276,0.2042,0.1847,0.169,0.1572,0.1493,0.1415,0.1218,0.0864,0.0746,0.0589,0.0236,0.0196,0.0157,0.0,-0.0118,-0.0314,-0.0589,-0.1546,-0.2462,-0.3288,-0.3621,-0.3964,-0.4362,-0.4619,-0.4899,-0.5239,-0.5441,-0.5698,-0.6022,-0.6331,-0.6563,-0.6714,-0.7061,-0.745,1.6215,1.5565,0.0,1.3963,1.3365,0.0,1.22,0.0,1.0319,0.0,0.0,0.0,0.0,0.0,0.0,0.0,0.0,0.0,0.0,0.6498,0.0,0.0,0.0,0.0,0.0,0.0,0.0,0.0,0.0,0.0,0.0,1.3293,1.3756,1.4653,1.4714,1.4874,1.5087,1.4794,1.4501,1.42,1.3615,1.3163,1.2738,1.2087,1.1721,1.1593,1.1232,1.1111,1.1111,1.1111,1.1037,1.0887,1.07,1.04,1.0067,0.9733,0.9359,0.8984,0.8861,0.8742,0.8665,0.8479,0.8327,0.8102,0.7642,0.7446,0.7173,0.656,0.6173,0.5825,0.5276,0.4735,0.4268,0.4075,0.3686,0.3256,0.2901,0.2666,0.2393,0.1964,0.1925,0.1846,0.165,0.165,0.1533,0.0982,0.0904,0.0786,0.0432,0.0393,0.0314,0.0118,0.0118,-0.0079,-0.055,-0.1382,-0.2216,-0.2957,-0.3445,-0.3908,-0.4303,-0.4517,-0.4767,-0.5098,-0.5298,-0.5551,-0.5865,-0.6167,-0.6358,-0.6437,-0.6677,-0.7049]}]]